GFSSGP_850_spd_000.txt.gz
Wind_Speed
2 6 8 9 6 6 14 6 12 11 6 11 12 18 20 19 13 8 4 10 8 10 10 7 10 11 12 9 6 4 3 3 1 1 2 5 8 10 9 10 13 27 22 26 14 15 17 17 16
3 2 6 9 7 10 8 11 9 14 12 2 4 12 26 16 22 18 12 7 9 14 3 4 7 10 13 11 8 4 2 1 1 9 5 6 7 10 13 13 19 21 14 18 21 23 16 15 13
2 2 9 5 10 5 6 14 11 13 5 5 3 19 12 5 13 10 11 10 10 10 4 6 9 11 12 10 9 6 1 4 5 2 1 1 2 6 6 8 17 23 22 18 12 14 13 14 14
5 7 9 9 10 13 11 9 6 6 6 4 4 11 11 8 10 13 13 7 9 13 10 10 10 10 9 8 7 5 3 1 3 5 4 4 4 2 2 3 9 12 18 16 19 16 25 17 11
10 10 11 2 14 11 8 1 3 3 5 2 6 11 14 8 11 10 10 10 8 6 9 9 7 7 7 7 5 3 2 1 1 1 2 4 6 9 6 3 7 11 13 16 13 21 22 27 16
15 19 11 8 9 10 9 12 7 6 7 4 18 22 8 1 5 8 9 9 7 8 9 7 7 7 7 7 6 5 4 3 3 4 4 2 3 6 9 8 9 11 13 7 2 4 10 11 14
16 11 5 11 7 8 6 6 11 8 7 6 11 16 11 11 8 9 6 4 6 6 5 5 11 14 11 10 10 8 7 7 7 6 4 3 3 5 7 9 9 12 14 11 5 9 10 11 10
13 8 6 4 5 10 3 0 4 7 8 8 8 3 3 17 12 7 5 3 3 3 3 3 3 6 10 11 12 10 9 7 7 6 3 2 2 1 2 7 10 10 12 12 12 12 12 10 9
11 7 8 8 10 6 7 8 7 2 7 3 7 10 10 12 11 8 4 3 2 2 3 3 5 6 8 2 9 8 7 8 9 6 5 4 5 4 4 6 6 8 10 14 15 15 14 11 10
9 6 14 8 8 10 6 2 8 5 8 9 5 0 2 7 8 6 6 7 5 1 2 4 8 8 11 1 6 3 4 2 2 4 4 3 7 6 4 6 6 5 10 14 15 12 14 17 13
15 12 4 6 10 9 11 10 4 7 9 14 6 8 4 5 6 6 6 2 4 3 4 9 10 9 2 3 4 7 9 2 7 3 3 5 3 1 2 3 3 7 7 8 9 18 20 23 16
8 6 7 9 5 6 8 11 9 10 10 5 3 3 4 7 8 7 8 5 5 5 7 13 9 5 3 5 6 5 6 4 6 6 4 6 6 4 3 4 5 7 7 7 8 10 12 14 23
5 3 2 2 3 4 8 11 7 10 12 3 6 6 9 9 9 9 8 8 9 8 8 12 9 6 4 6 10 11 10 10 8 8 7 7 6 5 4 5 5 5 8 9 11 11 11 10 13
4 4 2 2 4 7 9 14 12 12 7 5 8 11 11 11 12 11 12 11 11 9 11 12 9 8 6 5 10 10 11 9 9 9 9 7 8 6 7 4 7 9 9 11 13 14 14 14 14
4 9 13 10 3 9 8 16 16 9 9 9 12 13 14 15 15 16 15 15 13 12 10 13 8 11 9 11 12 6 11 9 9 10 8 8 8 6 6 6 5 10 9 8 11 14 17 19 21
12 7 7 5 3 2 4 13 6 8 10 13 13 15 16 18 18 17 17 16 13 13 13 12 9 13 13 10 13 10 13 9 10 11 12 9 8 7 5 4 7 6 3 9 12 11 12 16 17
3 10 11 8 7 1 6 15 16 18 15 17 16 16 17 20 20 18 17 16 17 15 14 12 15 14 14 14 15 13 14 12 9 12 12 11 8 6 4 6 9 7 6 8 11 10 12 14 16
11 10 11 12 8 9 12 15 13 19 20 17 13 14 15 10 13 16 17 15 16 15 16 14 16 15 16 14 14 16 16 10 17 15 13 13 9 8 5 5 10 10 5 9 13 14 12 12 14
11 13 15 14 8 15 16 17 15 6 9 10 9 8 7 6 8 9 9 13 16 15 16 17 16 17 19 16 17 15 15 14 15 12 16 12 11 11 7 5 6 5 6 9 12 13 15 15 13
15 15 12 13 17 15 19 19 13 8 7 6 4 6 6 5 5 4 3 9 15 16 16 18 16 17 19 17 16 15 16 16 20 17 21 22 15 16 11 8 8 7 10 11 10 12 15 16 16
14 8 13 17 18 15 12 12 10 6 13 8 6 4 4 3 5 5 5 8 12 16 17 17 19 19 21 23 19 20 21 24 19 20 19 18 21 19 15 14 13 12 10 10 12 15 18 19 17
11 13 16 17 14 10 15 7 4 12 11 10 7 5 4 4 5 6 6 8 10 15 18 19 18 21 22 24 26 24 24 23 22 19 23 26 24 19 15 15 15 15 13 13 14 15 16 20 24
11 16 19 19 15 9 5 5 10 8 9 11 11 7 4 4 6 9 10 10 13 12 14 19 20 19 23 26 27 29 30 29 27 24 21 19 17 18 14 15 16 21 17 18 20 21 25 25 25
12 17 19 4 1 3 5 2 10 6 4 5 4 4 7 6 9 10 12 12 13 15 15 18 23 25 25 26 29 32 33 32 25 25 25 22 20 18 16 16 19 20 20 21 21 23 23 27 31
16 14 4 4 2 3 12 9 11 17 2 3 7 9 5 6 9 8 14 16 15 15 18 21 23 26 27 28 31 34 36 33 32 30 27 23 22 20 21 18 18 25 25 25 26 27 29 30 33
13 7 2 4 4 9 17 6 6 4 6 6 3 3 11 9 8 16 16 14 15 13 18 21 26 31 31 31 33 33 35 36 28 29 25 23 23 22 25 21 21 22 26 28 27 29 28 28 29
6 5 5 4 1 1 5 12 15 6 7 10 9 13 6 10 13 16 15 15 16 17 21 26 32 34 30 33 35 32 29 30 30 25 22 21 17 9 10 14 17 28 26 26 27 29 29 28 29
7 6 3 1 3 5 8 15 10 11 16 20 15 14 18 17 21 17 16 14 19 26 27 27 30 28 32 30 27 24 26 27 24 20 16 12 16 17 15 18 25 26 28 29 29 29 30 30 31
3 6 4 7 5 4 6 6 12 22 21 10 16 22 22 16 14 14 11 15 18 25 25 33 33 30 31 30 29 28 25 20 18 18 13 18 14 17 21 25 26 27 29 30 30 31 31 33 34
5 9 8 2 8 9 10 13 18 9 5 29 24 18 18 18 17 21 24 25 23 21 28 43 31 30 27 25 23 22 18 15 14 12 11 15 17 21 22 23 25 28 30 31 32 33 34 34 35

GFSSGP_850_spd_006.txt.gz
Wind_Speed
3 2 0 0 4 5 2 3 2 5 4 12 21 19 11 10 5 5 7 5 7 7 8 8 6 7 7 7 6 6 7 7 6 5 4 4 5 7 8 10 12 12 11 15 16 17 17 20 21
2 1 2 1 5 4 4 4 3 5 20 24 22 19 13 5 12 12 8 6 5 9 5 9 7 8 7 7 5 5 5 5 3 1 1 2 3 5 7 9 13 19 18 17 20 20 15 12 7
7 3 2 4 4 5 1 4 3 16 11 4 6 12 7 7 9 7 8 8 6 7 5 7 7 9 9 9 8 6 4 2 1 2 3 3 1 2 4 7 12 13 12 14 14 12 12 15 24
7 2 4 5 3 0 2 6 3 3 15 14 14 7 8 9 10 10 11 8 5 8 9 10 9 9 10 9 9 7 5 5 4 4 3 1 1 2 3 6 7 8 10 13 13 12 7 5 7
7 3 4 4 4 1 4 19 16 6 6 4 4 4 10 11 11 15 11 11 5 6 9 8 7 7 8 7 7 6 3 4 4 3 2 2 1 2 3 5 4 3 3 7 10 9 9 13 13
3 2 5 3 3 4 5 23 20 9 4 12 14 7 6 13 12 13 9 9 8 6 7 6 4 7 7 7 6 4 2 1 2 1 2 2 1 1 0 3 4 5 5 5 6 8 11 16 22
6 4 4 4 4 4 3 7 8 10 7 4 11 5 9 15 16 13 9 10 2 1 4 3 3 6 8 10 7 4 2 1 2 3 3 2 3 1 2 3 4 6 7 6 6 7 9 9 9
3 4 4 3 3 3 7 3 10 9 4 10 9 6 5 19 16 10 15 9 5 2 3 2 3 6 9 11 10 8 3 1 1 2 3 3 3 2 1 2 4 5 7 6 7 7 8 10 12
4 5 3 3 4 2 8 4 7 5 3 3 4 8 4 20 17 16 12 14 13 8 5 6 6 8 9 9 8 8 5 0 2 0 2 3 4 2 3 3 2 3 4 7 9 9 10 12 14
8 4 1 3 5 1 3 6 2 2 9 10 12 11 18 17 18 15 13 17 17 15 11 4 3 8 8 8 6 6 6 8 6 4 4 4 4 4 4 4 4 5 6 7 7 9 9 10 15
3 2 3 3 4 4 4 7 4 4 3 8 18 19 19 14 12 9 11 17 20 17 9 6 5 10 7 7 6 7 8 8 8 5 7 6 7 7 9 8 7 8 8 8 8 8 10 14 16
4 3 4 2 1 2 2 4 5 1 3 6 11 14 19 18 12 9 11 10 21 12 9 6 11 12 6 5 6 8 10 9 9 8 7 8 6 8 10 11 11 11 11 11 12 12 10 10 12
3 2 2 4 5 5 4 4 5 8 9 11 12 19 19 17 12 10 13 12 13 11 7 8 13 12 10 7 7 9 11 12 14 13 13 14 13 13 12 13 13 13 13 12 13 15 15 15 15
3 5 5 10 9 8 5 5 1 13 7 15 16 20 17 14 13 11 14 14 13 12 13 15 14 13 13 9 9 10 12 16 17 17 17 18 17 16 15 15 16 16 15 14 13 12 13 13 14
4 4 7 12 6 4 5 3 5 6 9 18 22 18 16 15 16 19 19 18 16 15 15 13 12 13 16 15 12 12 15 17 18 18 18 17 16 17 18 18 18 17 16 14 14 13 12 13 14
3 4 4 6 8 4 3 7 10 12 8 22 25 20 15 16 15 18 19 20 18 15 13 12 13 15 20 18 16 17 18 17 19 19 19 19 18 17 19 19 17 16 16 15 14 11 11 12 15
6 4 4 9 6 4 3 7 11 18 9 26 24 20 19 19 19 18 17 19 16 14 12 12 11 15 18 18 20 21 20 20 21 23 23 22 20 17 19 19 16 13 13 13 13 12 12 14 14
4 5 6 1 6 5 5 8 9 9 6 21 25 18 8 8 6 7 18 16 16 13 9 10 13 15 15 18 20 21 22 23 23 22 25 26 25 21 19 19 18 14 14 15 13 12 13 14 16
1 3 3 4 3 7 6 8 13 6 17 19 20 22 18 15 11 4 6 15 14 8 8 10 11 12 15 15 17 19 22 23 25 26 27 24 24 27 24 20 19 19 17 14 14 14 15 13 15
6 3 4 6 6 3 9 11 7 7 6 20 23 21 17 15 10 10 7 5 4 6 7 8 8 10 12 14 16 19 22 25 27 25 23 26 29 29 27 26 26 23 19 18 18 18 15 12 13
3 2 4 6 7 3 5 6 6 3 10 16 15 15 11 6 6 4 1 3 6 7 6 5 5 10 13 15 16 20 24 28 31 33 32 30 29 34 32 32 30 28 24 23 21 21 16 16 13
4 4 5 6 4 2 4 3 4 3 2 2 8 12 11 9 7 5 5 5 6 5 6 7 8 11 14 19 22 25 28 30 31 33 33 31 34 30 32 31 30 26 24 24 21 20 17 16 15
7 7 8 4 4 3 9 3 6 4 4 6 5 12 11 9 5 2 2 2 3 3 4 6 9 13 15 20 24 29 33 39 38 37 36 36 35 36 30 31 34 33 30 24 19 16 18 19 15
6 6 5 4 3 3 3 1 4 5 5 5 7 8 7 6 1 3 3 5 3 1 0 3 5 8 13 20 26 29 33 36 38 39 41 43 40 39 33 31 36 32 30 31 28 27 23 23 23
8 6 4 5 5 4 5 4 2 1 7 10 10 8 5 1 4 5 5 5 4 4 5 8 15 22 28 33 32 37 42 36 33 33 31 39 41 32 32 31 30 27 24 21 19 24 24 24 30
4 5 4 1 0 5 7 1 3 5 4 6 10 12 9 3 3 3 1 5 1 6 12 16 19 25 29 32 37 39 32 34 35 33 32 34 36 27 26 23 20 15 16 22 23 28 33 35 21
4 4 1 5 2 3 5 5 8 4 8 9 5 9 10 7 7 9 9 10 10 13 17 22 26 31 35 38 33 27 31 34 34 30 28 23 27 28 23 16 25 23 23 28 29 22 19 20 25
3 1 5 4 2 3 5 6 5 7 13 14 5 2 9 14 11 8 8 4 9 20 27 32 37 36 34 29 28 29 31 32 31 20 15 18 20 18 14 21 19 22 18 11 13 17 21 26 28
5 4 3 1 4 3 2 6 4 11 10 11 7 11 12 9 10 12 12 13 19 26 29 28 33 30 29 30 31 30 30 29 23 15 13 15 15 13 20 15 14 13 13 15 20 23 26 30 33
2 3 5 3 5 3 3 10 14 7 19 8 10 9 13 12 10 10 16 23 28 30 30 33 31 30 29 31 35 30 28 22 17 14 13 13 11 7 10 11 12 14 18 21 24 28 31 32 33

GFSSGP_850_spd_012.txt.gz
Wind_Speed
3 2 1 0 4 5 2 1 2 2 3 2 6 8 8 7 3 3 10 6 4 6 8 9 7 8 8 5 6 5 3 0 1 1 3 3 4 5 10 12 12 12 11 9 9 14 15 11 14
3 2 1 2 5 5 3 4 4 2 9 12 10 8 9 4 5 11 11 10 7 8 8 9 8 10 9 8 7 5 3 1 0 2 3 5 7 9 11 12 11 11 14 17 19 20 17 8 10
4 3 1 5 4 4 3 2 4 5 9 5 4 7 4 4 7 10 13 12 10 9 10 10 12 12 10 9 9 6 4 2 1 2 2 3 8 10 11 13 14 14 18 17 18 18 9 8 10
3 3 7 6 4 3 3 4 8 6 3 4 8 6 6 5 4 10 15 12 11 12 13 13 12 11 9 9 8 6 3 1 1 0 1 3 5 7 8 7 9 10 12 11 10 10 10 9 10
4 4 5 5 4 3 3 6 11 6 6 4 4 3 4 6 14 15 15 14 13 14 13 13 11 10 9 7 5 2 1 1 1 2 3 5 6 5 5 5 6 7 7 7 8 8 8 9 10
4 4 5 4 1 2 3 5 4 4 8 11 11 6 5 14 15 17 14 15 11 8 9 9 8 7 4 4 5 4 3 3 3 3 3 4 4 5 4 5 6 7 7 8 9 9 7 9 11
7 5 4 4 2 2 1 3 3 4 4 3 9 4 8 16 14 14 13 12 9 5 3 4 4 4 7 10 9 9 7 5 5 6 5 5 5 5 6 6 5 6 6 8 9 9 9 9 10
5 5 3 3 2 2 3 2 4 4 3 10 7 6 6 20 16 14 12 9 7 5 5 4 4 5 9 12 12 10 8 5 4 5 6 6 7 7 7 8 8 7 7 8 9 11 10 10 11
5 5 2 2 3 2 2 2 2 3 6 3 3 8 6 22 21 18 17 14 11 7 5 2 2 5 9 11 11 8 7 4 5 6 7 8 8 7 8 8 8 9 11 11 10 10 12 12 10
6 5 3 3 3 0 3 2 3 2 2 1 3 4 15 23 22 20 19 17 11 8 4 1 2 2 7 8 8 7 7 6 5 7 7 9 10 9 10 10 10 12 13 14 14 14 12 13 13
3 4 3 2 2 1 2 2 1 10 2 9 11 13 20 22 19 18 18 12 5 6 7 6 4 5 8 9 8 6 6 6 6 7 8 10 12 12 12 13 13 15 15 15 16 18 17 15 13
6 4 3 2 3 3 2 2 2 8 6 7 9 14 20 21 17 16 16 12 11 10 10 10 7 5 10 11 12 10 9 8 8 9 11 11 11 13 15 15 16 17 17 17 18 18 19 19 17
4 2 4 3 5 4 3 3 4 13 9 7 10 16 21 18 15 14 16 15 15 15 12 12 7 5 7 8 11 11 10 11 12 13 13 14 15 16 18 19 20 20 20 19 19 19 18 19 19
2 2 3 2 2 2 2 3 3 4 4 11 13 18 21 18 15 17 16 17 16 16 15 14 9 5 6 8 11 10 11 12 14 16 16 16 17 18 19 20 20 20 21 22 22 20 19 17 18
4 4 6 9 5 2 1 5 6 9 7 8 16 20 22 18 17 17 16 17 15 13 16 15 9 6 5 10 10 10 11 13 15 15 15 16 18 19 19 20 21 21 22 23 22 21 20 19 17
6 6 5 6 4 5 3 8 13 8 6 17 14 20 24 21 19 18 16 16 14 15 18 15 10 6 7 8 9 10 11 13 15 16 17 17 18 18 19 21 21 19 20 21 22 22 21 19 18
7 1 2 7 6 5 3 8 12 13 20 23 12 20 24 23 20 16 16 14 14 18 17 14 9 4 7 8 7 9 11 12 13 17 19 21 22 21 22 22 21 20 20 20 21 22 22 21 20
2 2 3 2 5 7 5 7 9 19 12 16 10 11 22 18 13 13 12 13 14 17 15 12 6 6 6 3 5 6 9 10 12 15 18 21 24 26 27 27 26 25 24 23 24 24 23 23 23
1 1 3 3 2 5 3 6 9 15 10 6 1 8 10 9 6 3 3 2 5 10 11 7 5 5 5 6 9 11 14 15 17 20 22 24 27 31 33 34 33 31 31 28 26 25 27 28 27
3 2 4 5 3 0 5 8 6 11 7 8 11 14 15 14 11 10 9 7 6 4 5 6 7 8 8 10 13 16 19 21 22 24 26 29 31 32 34 38 39 39 37 36 33 33 33 32 32
4 2 3 5 6 1 6 4 6 4 11 13 11 10 12 11 9 7 6 3 2 3 4 7 9 12 13 15 18 20 21 22 27 28 26 27 32 33 35 34 39 43 44 43 41 40 39 38 37
3 2 2 5 2 1 4 2 5 6 3 7 5 6 8 7 6 5 1 4 6 7 10 11 13 15 16 16 15 17 23 30 33 34 36 36 31 29 30 31 31 36 44 49 48 45 42 39 37
7 4 2 1 3 3 8 4 6 6 4 2 2 7 5 6 5 3 7 9 11 12 12 11 9 8 8 11 17 24 28 33 35 34 33 31 32 33 33 33 33 32 34 44 49 44 40 37 34
6 4 5 4 2 3 3 3 5 3 4 4 4 1 4 5 4 6 7 6 6 3 2 3 5 9 14 20 26 31 32 32 33 34 35 37 37 36 36 34 34 35 33 33 28 36 31 25 26
9 6 3 5 5 3 3 1 5 6 4 2 1 8 9 7 9 7 6 4 1 3 6 11 17 23 27 29 29 29 28 30 32 35 37 37 36 36 35 32 27 26 24 22 23 23 23 19 19
3 4 4 2 1 4 5 3 3 3 15 22 20 17 12 9 8 5 5 5 6 11 17 22 26 29 30 28 27 26 27 31 35 37 37 33 31 32 31 26 19 16 18 18 12 10 11 16 17
2 4 2 5 2 3 3 5 5 3 8 16 13 9 8 8 8 8 8 9 15 21 24 26 26 26 26 26 27 30 34 38 41 41 34 27 27 29 22 13 11 5 7 16 20 25 30 24 22
6 4 4 3 2 3 5 5 4 6 8 7 7 8 9 7 9 12 16 19 19 20 24 24 24 24 24 29 30 34 39 42 42 40 26 22 25 20 9 5 9 17 23 24 24 12 13 15 13
4 3 5 4 3 3 3 6 5 4 4 5 4 8 11 9 12 18 20 19 20 23 24 25 26 29 29 31 33 38 42 43 42 28 18 17 13 6 5 15 18 17 14 10 11 13 13 17 20
2 3 4 4 3 1 3 6 4 7 1 4 1 8 13 14 19 23 25 26 24 28 27 25 28 31 32 33 36 41 42 39 27 18 9 6 6 5 11 10 8 10 15 18 19 20 22 25 26

GFSSGP_850_spd_015.txt.gz
Wind_Speed
6 5 3 2 2 4 3 2 2 4 2 3 6 5 7 5 1 3 14 7 2 6 9 9 8 8 7 5 2 1 3 3 4 4 4 6 9 12 12 13 14 13 9 8 7 10 13 12 8
6 6 4 3 4 8 3 2 3 3 10 8 9 5 4 4 4 12 12 13 11 11 12 12 12 12 12 9 6 5 4 3 1 1 2 5 7 11 11 12 10 11 12 12 16 17 15 11 8
6 6 2 4 3 5 5 1 8 8 4 2 5 7 3 4 8 13 15 14 14 15 16 15 15 14 13 11 9 7 4 1 0 1 2 3 7 9 9 11 12 13 15 17 14 14 10 8 8
4 3 6 6 7 2 3 7 8 7 3 4 9 7 5 4 7 13 16 14 14 16 17 16 14 12 9 7 5 3 1 1 1 2 2 3 4 6 7 8 9 10 11 11 9 9 11 12 10
4 4 5 7 6 3 2 5 6 2 2 4 2 4 4 5 12 16 15 15 16 16 16 14 12 9 7 6 6 5 4 4 4 4 4 5 4 4 5 7 7 7 7 8 9 8 9 10 10
4 4 6 9 6 3 4 3 3 3 5 8 8 5 3 14 16 16 15 16 15 14 14 13 10 8 8 7 7 4 2 3 4 4 5 5 5 5 4 6 7 8 9 11 10 9 9 9 10
6 4 3 5 5 3 2 1 6 5 5 3 9 4 8 16 16 16 16 16 15 13 11 9 7 6 6 8 9 6 3 2 3 4 5 5 7 7 8 7 6 7 7 8 8 9 11 11 11
6 5 4 1 4 3 1 3 5 4 2 9 7 5 6 20 18 16 15 13 11 10 9 7 5 5 6 9 8 6 6 3 3 3 4 5 7 8 8 8 8 7 8 10 11 10 10 11 12
5 4 3 4 5 3 1 3 2 4 7 3 5 7 8 22 20 17 15 13 10 9 8 6 2 3 6 7 7 5 5 4 4 4 5 6 6 8 8 9 10 10 11 13 13 13 13 13 12
5 3 3 2 3 3 2 3 4 3 3 3 5 7 14 22 21 18 16 12 11 9 7 4 2 2 6 7 6 5 4 5 5 6 7 7 9 9 10 11 12 12 14 14 15 16 16 14 13
3 4 4 2 4 4 3 3 2 6 1 6 9 10 17 24 21 19 16 15 8 8 8 5 3 1 6 6 7 4 3 4 5 7 8 9 10 11 12 13 14 15 17 18 17 18 19 18 16
6 4 4 5 5 5 3 2 1 7 3 3 5 9 17 21 20 18 17 14 9 7 6 7 7 3 1 4 9 7 6 6 7 9 10 11 12 12 13 15 17 18 19 20 19 19 21 21 20
5 2 3 3 7 3 4 2 2 8 10 7 10 13 15 16 15 14 13 13 10 12 11 10 10 6 3 3 8 6 6 7 8 10 11 11 12 13 15 17 18 19 20 20 21 21 21 21 20
3 4 3 4 2 2 1 1 1 1 2 9 9 15 18 18 16 15 15 14 13 12 13 12 13 9 5 4 7 6 5 6 8 9 10 11 13 15 17 17 18 18 20 21 21 22 21 20 20
4 4 2 12 6 4 2 2 3 5 7 1 6 15 22 21 17 15 14 14 14 14 15 14 14 10 6 6 5 6 5 6 8 10 12 13 14 15 17 19 19 20 20 21 22 22 21 20 19
5 4 4 4 8 4 2 5 7 7 8 12 11 11 21 24 21 19 17 16 16 16 16 17 15 10 6 6 6 4 5 6 8 11 13 15 17 19 20 21 21 20 22 22 23 22 22 22 21
8 3 3 4 4 5 5 5 6 19 14 15 10 7 17 23 22 19 17 17 14 13 15 17 14 9 7 6 5 3 3 6 7 9 12 14 17 20 23 25 26 26 26 25 25 24 23 23 23
0 1 1 3 5 6 3 7 11 15 6 5 5 3 12 19 17 14 12 12 12 11 13 14 12 9 9 7 7 6 8 10 12 14 17 19 21 22 24 28 30 30 31 31 29 29 28 26 24
3 2 3 3 2 5 3 6 8 13 12 10 8 8 10 9 6 4 1 3 1 5 11 12 10 9 8 9 10 10 11 13 16 18 20 24 25 26 27 30 32 33 36 38 38 36 34 32 30
1 2 1 3 1 1 5 5 4 12 9 8 9 12 12 13 12 11 10 8 6 3 5 10 11 11 11 12 14 16 17 18 21 22 25 27 27 29 33 33 34 35 36 36 39 42 42 40 36
1 2 2 3 7 1 4 2 7 5 8 11 11 12 13 12 10 8 7 6 4 5 8 10 11 12 12 14 15 15 16 17 21 27 32 34 33 29 28 29 31 32 32 34 35 38 44 46 41
3 2 4 4 1 1 4 3 5 6 4 6 5 6 4 4 4 3 1 2 5 6 7 9 9 10 9 7 10 14 21 25 27 30 31 30 29 30 32 33 32 33 33 36 35 35 38 40 44
3 2 1 1 3 2 5 1 4 4 6 6 10 7 6 6 5 4 5 5 4 1 2 1 3 6 10 15 20 24 27 28 29 30 33 35 35 36 36 35 34 34 34 35 36 35 34 33 33
4 2 3 3 2 1 1 2 4 5 5 5 7 15 11 6 4 5 4 3 4 4 3 4 8 15 21 25 28 29 31 32 33 35 39 40 39 38 36 33 31 29 27 26 25 24 20 13 18
8 3 1 2 2 1 2 1 4 9 8 6 9 11 12 9 7 5 2 2 4 7 11 15 19 23 25 29 32 31 29 28 31 35 39 42 40 36 32 30 28 23 21 18 14 12 9 8 7
4 2 2 1 2 4 2 4 6 8 9 14 11 12 12 12 11 10 8 9 12 17 20 23 25 27 31 33 30 24 25 28 35 38 40 40 37 31 27 25 20 14 10 7 9 11 9 16 16
1 4 1 5 1 1 3 1 3 7 9 11 9 10 11 10 11 12 15 18 19 21 21 24 27 25 22 23 23 24 28 33 38 40 39 35 27 22 19 11 4 6 11 13 15 19 17 18 19
3 4 1 3 2 2 4 4 3 3 5 5 6 5 7 7 10 17 21 22 22 22 22 25 23 21 21 24 26 28 33 37 39 40 35 25 17 11 5 5 8 12 13 13 12 13 13 14 14
2 2 5 4 1 1 3 5 4 6 0 5 5 1 5 8 14 20 20 20 21 17 21 24 22 22 25 27 26 31 38 39 37 33 24 15 7 4 5 4 5 6 10 8 14 15 17 17 17
2 3 3 2 2 1 1 7 2 7 2 7 8 1 8 15 21 23 19 21 18 18 24 24 22 22 26 27 30 36 36 31 28 24 17 4 7 7 6 9 19 24 15 16 17 20 18 18 20

GFSSGP_850_spd_018.txt.gz
Wind_Speed
6 6 5 1 5 3 10 7 8 10 6 3 2 3 8 9 6 5 11 9 9 11 11 10 11 8 5 4 4 3 2 2 2 3 5 7 8 8 9 10 9 9 8 8 8 8 10 13 11
7 8 3 3 5 11 9 8 9 9 13 11 8 4 4 6 7 11 11 11 12 12 12 12 12 11 8 7 7 5 4 4 4 4 5 7 8 8 10 10 10 10 10 12 13 15 16 17 14
8 6 4 4 5 11 11 9 14 13 6 5 5 5 3 5 7 13 13 15 14 12 13 14 14 11 9 7 6 4 1 1 0 0 0 1 6 7 8 9 10 11 14 16 16 15 14 12 10
4 3 3 5 15 7 14 13 13 10 6 4 7 9 8 6 10 10 14 16 14 16 16 16 14 12 10 7 6 5 3 2 2 2 3 3 4 5 7 8 10 10 12 13 12 12 11 12 12
4 5 8 11 14 12 9 12 7 6 7 8 2 6 7 6 9 15 14 15 13 14 16 15 13 10 9 6 5 3 4 3 3 3 4 4 4 4 4 6 7 8 9 9 10 10 10 11 11
5 5 12 13 13 11 8 7 5 4 6 6 9 10 8 9 14 14 14 14 13 14 15 13 11 10 8 7 5 3 3 3 3 4 5 5 5 6 5 5 6 6 7 8 9 9 9 9 9
7 5 14 15 14 11 9 5 8 8 8 6 7 7 8 12 13 13 13 13 15 12 11 9 9 8 7 5 6 3 2 1 1 1 2 3 5 6 6 6 5 5 5 7 9 10 10 10 11
5 5 13 13 10 12 7 6 6 3 6 6 3 5 10 16 16 15 14 12 11 10 8 8 7 4 5 6 5 3 4 3 2 3 4 5 6 7 7 8 8 8 8 9 11 12 12 12 12
2 6 8 8 8 9 8 7 4 2 8 3 3 4 9 19 18 16 13 11 10 9 10 7 4 3 4 5 4 3 4 4 4 6 6 6 5 8 9 10 10 10 11 13 14 14 14 15 15
2 6 5 3 5 10 8 4 6 5 6 5 7 5 13 20 19 16 14 12 11 10 9 6 4 2 4 4 4 3 3 2 4 5 8 7 8 9 10 11 12 13 14 15 16 16 16 15 10
3 8 9 7 7 6 7 6 4 5 6 7 8 10 16 18 16 13 12 10 10 10 9 8 5 3 2 1 3 2 2 3 5 7 7 8 9 9 9 9 10 13 16 13 17 17 12 15 15
11 9 5 6 6 5 6 4 4 6 7 4 5 9 15 18 16 14 12 12 11 11 10 8 8 6 3 1 3 3 3 4 5 7 10 9 8 9 10 10 12 14 12 16 15 13 19 20 19
13 9 7 5 7 4 2 3 2 4 5 4 8 11 13 13 12 12 13 13 12 11 10 10 10 9 6 3 5 4 4 4 5 6 7 8 8 9 10 12 14 14 13 13 13 14 14 16 18
7 7 5 4 5 2 4 2 3 5 3 6 8 10 13 12 13 13 15 14 13 11 11 11 12 11 7 5 6 5 3 3 4 4 6 8 9 10 10 11 12 12 12 13 14 14 16 15 16
10 10 6 6 3 2 3 8 6 4 1 3 6 10 13 15 14 14 12 11 10 10 11 13 14 13 9 7 6 5 3 1 1 3 7 10 11 12 15 13 13 13 14 18 17 15 16 16 14
4 4 6 7 2 2 5 8 7 4 6 8 8 7 15 18 16 12 11 11 11 11 13 13 17 15 11 9 8 6 4 1 1 5 7 9 11 13 15 16 16 17 20 18 17 17 17 16 16
2 2 2 6 4 4 3 3 4 9 10 12 12 10 14 18 16 12 10 11 13 14 15 14 15 13 11 11 9 7 5 4 6 7 10 12 14 16 18 21 22 22 21 21 20 20 19 19 19
2 2 2 3 4 5 4 4 5 11 8 3 4 7 11 15 13 10 9 12 13 12 10 8 10 12 13 13 12 9 9 9 9 10 14 17 20 22 24 26 28 27 24 24 23 24 23 24 24
1 2 3 1 3 9 1 3 8 10 9 8 6 6 9 11 7 4 7 6 3 3 4 5 6 14 12 11 9 6 7 9 10 11 16 18 21 26 30 31 29 28 24 26 28 25 26 27 26
2 3 1 1 1 5 3 3 7 11 12 10 11 12 12 12 11 11 10 8 7 4 5 6 8 9 11 10 12 14 15 12 15 14 16 21 29 30 28 28 27 25 23 24 25 26 26 28 26
1 2 4 5 6 3 3 6 5 7 11 13 14 14 14 12 10 10 9 6 4 2 3 4 7 10 11 10 7 7 9 12 11 22 25 28 30 29 28 28 29 30 28 25 24 24 25 29 27
2 2 9 7 6 3 2 4 6 4 9 10 10 10 10 10 8 7 7 3 2 3 3 3 3 4 7 9 12 16 13 13 15 16 18 25 26 30 30 30 30 30 27 24 23 22 23 24 30
5 7 6 3 5 4 3 6 7 4 7 7 11 10 10 8 7 7 7 8 7 6 7 8 9 9 13 17 19 18 21 23 27 30 41 25 22 24 26 31 32 31 29 26 30 25 16 17 20
5 4 1 1 2 4 1 5 6 2 3 5 8 11 11 10 7 6 7 7 8 8 8 9 10 10 16 19 21 22 21 24 21 19 22 24 26 26 25 29 29 27 22 14 10 16 16 17 18
8 3 2 2 4 1 1 5 8 6 6 8 10 11 11 10 9 8 6 5 6 8 11 14 16 15 17 21 24 30 18 17 19 22 24 29 30 28 25 27 17 11 10 12 13 13 12 9 10
6 6 3 3 2 2 3 3 7 8 9 10 9 9 8 8 7 7 6 8 9 10 11 13 14 15 14 15 20 21 19 20 22 25 31 31 29 27 23 13 8 5 2 4 12 14 15 13 18
3 3 2 2 1 3 1 3 8 9 5 7 8 7 5 2 3 6 10 11 12 12 12 14 17 20 19 18 18 20 23 25 27 34 34 29 27 19 12 7 5 6 7 8 9 9 8 8 10
4 3 2 2 3 3 2 4 6 13 11 3 9 8 4 3 4 9 13 15 15 15 13 14 19 19 17 16 16 18 21 24 29 31 29 25 19 11 7 7 7 6 5 6 15 9 10 10 10
2 2 2 2 2 3 4 5 4 2 1 4 12 6 6 6 10 14 16 15 14 12 14 17 18 16 15 15 17 20 22 24 25 24 18 13 8 7 8 7 6 9 15 24 13 12 11 11 11
1 2 1 2 2 2 4 7 3 2 5 5 9 4 5 9 14 15 16 14 12 14 18 18 15 17 17 17 19 21 26 20 17 17 12 10 8 8 8 10 12 19 24 15 12 12 11 13 14

GFSSGP_850_spd_021.txt.gz
Wind_Speed
6 5 4 7 8 9 9 6 12 9 10 8 6 11 15 16 14 5 12 11 14 13 9 9 9 7 7 5 4 3 3 2 2 3 3 4 4 5 6 8 8 6 7 7 9 10 11 12 15
4 7 5 13 9 8 10 9 12 14 14 12 9 6 10 15 14 16 14 14 14 14 12 7 10 9 9 6 5 4 2 1 1 1 3 4 6 6 8 9 10 9 9 10 13 14 16 18 17
8 8 15 6 13 7 10 8 15 13 8 5 8 12 9 10 11 12 15 15 14 14 10 13 13 12 9 8 6 4 2 1 1 1 1 2 4 7 7 8 10 12 12 14 14 13 13 13 12
5 6 8 10 15 12 12 13 14 11 7 2 8 12 9 11 9 15 16 15 14 14 13 15 13 11 9 7 5 4 4 4 3 2 2 3 3 5 6 7 8 9 10 11 11 11 11 11 11
8 15 9 8 13 12 13 12 11 12 11 8 4 9 12 9 13 16 15 14 15 14 14 13 12 10 8 7 5 4 3 3 3 3 4 4 4 4 5 5 6 7 8 9 9 10 10 10 11
14 18 7 10 12 8 8 8 3 7 8 7 7 15 12 12 16 14 14 14 13 13 11 11 10 9 7 6 6 4 3 3 3 3 3 3 4 5 5 6 6 6 7 7 8 9 9 9 9
17 10 11 14 12 11 9 4 5 6 8 6 6 10 12 15 14 14 14 13 12 10 10 8 6 7 6 6 7 5 5 4 4 4 4 5 5 6 6 5 5 7 7 8 10 11 12 11 11
8 4 11 11 10 13 7 3 5 2 13 8 3 8 15 17 16 15 14 12 11 10 9 7 5 4 3 6 6 5 5 5 5 5 6 7 8 8 8 7 7 9 10 11 13 13 14 13 13
5 6 8 6 8 8 8 8 2 2 9 2 3 9 18 18 16 14 13 12 11 10 9 7 4 4 3 3 6 6 5 6 8 10 10 10 7 8 10 12 10 11 12 12 13 14 15 15 14
11 3 11 6 5 9 8 5 7 8 9 9 8 8 16 17 16 14 13 12 11 11 9 6 5 3 4 3 3 2 2 1 2 3 5 5 6 7 9 12 15 14 13 14 15 16 15 13 8
4 9 8 5 1 9 9 4 4 5 7 9 13 12 16 16 15 14 12 11 12 11 10 8 5 3 4 2 4 2 3 3 4 6 5 6 8 7 8 9 11 12 15 10 13 14 12 11 12
5 8 5 7 5 1 6 8 4 5 12 7 6 12 15 16 15 13 13 13 12 11 9 7 6 5 2 1 2 2 2 2 2 4 7 6 6 8 8 9 10 11 11 12 12 12 13 14 13
10 9 10 9 7 2 3 5 2 7 8 7 7 10 13 14 13 13 12 11 10 9 9 8 8 8 5 3 2 3 2 2 3 3 4 5 5 7 8 10 10 12 12 12 13 14 14 14 15
8 10 8 7 6 4 7 6 8 7 7 9 10 10 12 12 12 11 11 12 11 10 9 9 9 8 6 4 4 3 3 2 1 1 1 4 6 6 8 10 11 12 13 14 15 15 16 15 15
9 9 10 8 9 5 8 9 11 7 5 8 11 12 12 12 10 10 10 11 11 10 10 9 9 10 10 6 4 3 4 4 3 3 4 5 9 9 12 11 13 14 15 18 18 19 18 18 18
11 9 11 8 8 4 10 12 11 7 5 10 10 10 12 13 12 10 10 10 10 9 7 9 10 11 10 7 6 5 5 5 5 5 6 8 10 13 15 13 15 16 19 18 19 20 20 20 21
9 10 1 8 2 2 8 5 13 1 9 12 15 16 12 13 13 11 10 9 8 8 8 9 10 9 9 7 5 7 7 6 6 8 8 10 10 14 18 19 18 19 20 22 22 23 22 23 24
6 3 4 6 7 5 9 10 5 5 7 8 9 11 11 12 15 11 6 4 4 4 3 5 7 7 8 6 6 6 7 7 9 9 10 11 11 12 15 17 21 21 21 23 24 25 25 27 28
5 5 4 4 5 6 4 6 4 4 3 5 4 4 5 8 10 6 3 4 5 5 4 4 4 7 2 4 5 7 7 9 11 11 11 11 12 15 17 18 20 22 20 21 24 25 26 28 27
3 5 1 0 3 6 3 4 5 8 8 9 10 11 11 12 11 10 12 12 11 9 7 5 3 1 1 3 4 7 9 10 11 10 11 13 15 26 28 26 26 23 23 24 24 25 27 28 27
3 7 6 9 7 10 8 8 11 9 13 14 15 15 14 12 11 10 11 10 9 9 8 5 4 3 3 3 5 6 9 11 12 13 18 20 22 21 27 26 26 23 23 23 23 24 25 29 29
9 4 8 10 8 7 12 4 8 12 10 11 11 11 10 9 8 9 8 9 8 8 7 6 5 4 5 7 5 10 9 13 17 18 20 22 25 22 20 21 21 22 22 22 22 20 22 21 28
5 7 8 8 9 10 11 9 10 11 9 9 9 9 8 7 7 8 7 7 7 7 6 5 5 7 8 10 13 12 13 16 19 18 19 19 20 21 22 22 22 23 20 18 17 17 14 14 17
7 8 6 6 5 5 2 7 13 8 8 6 9 8 6 8 6 5 5 4 5 6 6 7 8 9 11 11 12 13 15 15 17 18 20 19 21 22 22 22 21 19 16 14 15 17 15 16 17
8 7 4 3 4 2 5 6 9 8 7 7 7 7 7 8 6 5 4 4 4 6 8 9 11 13 14 14 14 15 16 17 18 20 21 23 24 25 24 21 18 15 16 16 10 7 15 21 19
5 6 3 4 3 4 6 6 7 10 10 8 6 4 5 4 3 3 4 7 9 11 12 13 14 16 17 18 18 17 18 19 20 20 23 25 25 24 21 18 15 16 15 8 10 16 19 17 12
3 4 3 2 1 3 4 6 9 11 9 5 3 3 6 5 5 6 8 10 12 13 14 14 15 19 21 21 19 18 19 19 21 22 24 25 24 23 18 15 16 10 9 13 14 13 17 16 12
6 3 4 1 3 4 2 7 4 12 9 8 4 9 9 7 7 9 13 14 14 16 15 16 19 20 19 18 18 17 19 21 22 22 23 23 21 19 18 17 15 11 11 16 21 18 13 15 15
1 1 3 4 3 4 4 4 8 5 3 5 9 11 12 8 10 13 15 14 15 15 15 19 20 19 18 17 17 19 21 21 19 19 21 19 17 16 15 13 11 14 18 21 23 16 18 15 16
4 4 5 3 4 3 4 7 7 6 2 5 11 10 8 10 13 15 16 14 18 15 20 20 17 14 15 18 20 21 20 19 19 20 17 16 16 15 15 17 19 16 20 16 15 15 14 14 16

GFSSGP_850_spd_024.txt.gz
Wind_Speed
7 4 1 10 6 7 14 7 12 8 10 14 16 18 22 20 11 9 13 17 14 7 12 10 10 9 8 8 7 6 5 4 3 2 2 3 3 4 4 6 7 6 6 7 10 11 12 15 17
7 0 9 10 8 11 5 10 17 16 17 12 12 12 24 19 22 21 20 18 15 17 8 12 12 12 11 10 9 8 6 5 4 3 4 4 5 5 6 7 9 8 9 10 11 12 12 13 12
7 4 11 5 10 15 12 15 15 13 10 13 6 21 19 16 17 19 19 19 17 10 12 16 15 14 13 11 9 7 6 5 5 4 4 4 4 5 5 6 8 9 10 10 10 10 10 10 11
6 5 10 8 13 13 16 17 16 11 6 4 18 13 16 14 18 20 20 18 16 13 17 17 15 13 11 9 7 5 4 4 4 4 3 3 3 3 4 5 7 8 9 10 10 11 11 11 11
9 9 9 10 14 15 14 16 10 7 6 10 12 20 19 19 20 19 18 18 15 16 17 15 13 11 9 8 7 6 5 4 4 4 3 4 4 4 5 6 7 8 8 9 9 10 11 11 11
12 7 9 6 12 10 10 8 2 19 16 8 20 21 17 17 19 18 18 18 12 15 14 13 11 9 8 8 8 7 6 6 5 5 6 6 6 6 6 7 7 7 8 8 9 10 10 10 10
15 8 14 14 10 7 10 1 4 7 9 12 8 16 15 17 16 17 16 15 15 11 12 12 10 9 9 10 8 8 7 8 7 8 7 7 7 9 8 7 6 8 8 9 10 11 11 11 11
24 9 15 9 9 14 7 2 8 9 14 10 9 8 17 19 17 16 15 14 12 12 10 5 7 10 9 9 8 7 7 8 10 10 11 12 12 16 13 10 13 11 11 11 12 13 13 13 13
23 4 7 7 10 10 7 5 4 7 8 8 5 14 23 20 18 17 15 13 11 11 10 9 8 6 4 7 9 7 9 11 11 12 14 10 13 10 14 16 17 16 15 15 15 15 16 15 10
9 9 14 11 9 11 9 8 8 7 9 9 10 23 20 19 17 16 14 13 11 10 8 9 5 4 8 3 7 10 10 8 7 6 9 3 8 5 10 13 16 16 19 17 14 20 17 11 9
4 10 10 8 9 10 8 10 4 8 9 16 16 18 19 18 16 14 13 13 12 11 8 10 9 5 8 2 6 3 3 3 5 1 8 4 10 5 4 8 12 15 15 13 17 16 15 14 21
4 6 10 12 4 5 7 12 3 2 14 9 19 16 19 17 15 13 13 17 12 14 15 10 4 5 5 5 2 4 2 2 2 4 4 4 2 5 5 4 7 6 9 12 12 14 14 18 17
8 8 12 10 7 3 6 5 3 3 10 6 12 14 16 15 13 12 12 14 12 15 13 14 10 5 3 1 2 2 4 2 6 1 6 5 4 7 7 8 8 8 10 12 13 17 17 17 17
10 10 11 10 7 5 5 8 7 11 15 10 8 13 14 14 15 14 11 11 12 12 13 13 14 8 5 3 7 3 2 2 2 3 7 5 6 8 10 11 13 14 11 15 20 20 21 21 19
7 7 6 7 9 8 7 8 12 14 8 12 11 9 14 15 12 14 12 12 12 13 11 15 12 7 7 8 6 2 4 6 4 5 9 10 7 8 11 13 15 14 15 20 24 19 21 22 22
8 10 9 10 8 7 6 11 15 11 12 10 12 14 11 13 12 13 11 9 6 8 9 7 6 4 8 5 7 2 5 7 5 8 8 10 13 13 15 15 15 16 20 24 26 27 24 25 25
10 9 9 9 7 2 8 8 17 13 4 9 9 13 13 11 13 12 14 12 6 4 3 1 2 7 4 6 7 7 9 9 2 9 8 12 12 12 19 19 19 20 23 26 25 25 26 26 26
10 7 4 2 8 5 9 10 7 9 4 11 17 17 17 15 8 15 14 10 3 2 3 2 3 6 10 8 6 6 7 7 8 8 10 15 17 17 18 21 27 28 31 34 30 26 28 32 32
9 6 6 7 8 3 10 9 9 11 6 3 3 2 11 23 17 16 16 12 8 9 9 9 8 8 2 3 5 7 6 7 6 9 12 15 15 22 22 27 23 25 29 26 27 29 31 31 29
5 5 4 3 5 4 8 10 11 9 5 7 10 12 24 20 18 17 15 15 13 11 10 7 4 2 5 1 4 7 8 10 10 10 11 13 19 22 28 28 30 21 24 28 29 24 25 26 25
4 4 8 7 10 9 10 9 13 11 8 14 18 18 17 15 15 14 14 13 11 12 11 9 6 5 6 3 2 6 8 7 10 13 19 29 25 25 27 20 21 24 26 32 30 26 26 29 27
7 6 5 8 9 9 13 4 14 14 11 13 15 15 13 11 12 12 10 10 10 10 10 7 5 4 7 9 7 8 7 10 13 17 18 22 25 22 19 22 24 27 28 31 27 20 23 25 27
5 6 7 8 10 11 12 7 14 16 13 12 14 13 11 9 10 9 9 9 7 6 7 5 4 7 9 10 10 13 14 18 20 16 18 19 18 19 23 25 26 28 31 31 22 22 22 21 22
7 9 11 8 9 4 13 3 5 8 13 12 13 10 9 8 7 7 7 6 7 7 6 6 7 8 10 13 15 15 17 15 17 18 19 17 22 26 27 28 28 28 21 20 21 22 26 24 24
6 8 4 2 4 2 5 3 8 10 9 14 14 11 8 7 6 6 5 5 5 5 7 7 9 11 13 13 14 14 14 15 16 18 20 24 30 27 28 25 22 19 21 24 26 27 19 20 24
5 6 2 4 4 6 7 3 9 12 14 14 11 10 7 5 3 3 3 6 6 7 8 10 11 12 16 16 16 16 18 15 16 23 27 29 21 25 22 17 17 23 24 23 15 8 15 17 20
6 5 4 3 2 2 5 8 11 12 11 10 9 4 7 2 3 5 6 9 10 11 12 12 13 15 16 18 18 17 16 19 24 26 28 21 23 18 20 24 22 21 23 21 17 20 23 24 20
4 1 2 1 2 3 7 6 7 10 9 9 3 8 6 6 6 9 11 13 13 14 13 14 16 15 16 18 16 16 18 18 23 25 18 20 18 20 20 18 18 18 12 15 22 25 27 26 22
1 2 2 3 1 2 3 3 8 7 5 6 8 7 4 4 7 10 13 12 14 17 20 18 19 15 13 14 16 19 21 20 18 14 16 23 25 22 21 22 23 23 24 27 28 19 16 18 19
3 5 4 1 4 1 1 6 4 3 8 9 10 12 8 5 8 12 13 14 17 16 15 16 15 12 14 18 19 20 18 18 17 20 26 25 17 19 18 21 23 25 23 21 19 19 19 20 18

GFSSGP_850_spd_030.txt.gz
Wind_Speed
8 4 2 2 2 3 3 4 7 4 5 15 19 18 11 10 2 7 21 18 20 20 19 16 13 12 11 11 10 9 9 9 8 8 7 6 6 5 5 6 7 7 8 9 9 8 8 8 8
2 0 2 1 3 1 4 3 11 10 22 29 26 21 18 6 19 24 23 20 16 20 18 15 13 12 11 11 10 9 8 8 7 7 6 6 5 5 6 6 7 7 8 7 8 8 9 9 8
4 2 2 3 2 5 5 4 14 15 18 18 8 15 9 14 21 16 22 19 19 19 19 17 15 14 13 10 9 8 8 8 8 7 7 7 6 6 6 7 7 7 6 6 6 6 7 8 8
5 1 2 3 7 7 7 5 23 21 19 19 20 8 12 13 23 22 23 18 18 21 20 19 16 13 10 8 7 7 7 7 7 7 6 6 6 7 7 7 7 8 8 8 8 8 9 10 10
3 1 3 2 5 3 4 8 25 10 12 16 24 6 9 18 25 25 19 12 22 24 21 17 13 10 9 9 9 9 8 8 7 7 7 7 7 7 8 8 8 8 8 8 8 8 9 9 9
3 0 3 1 5 5 7 10 27 25 30 25 25 16 12 28 25 20 14 22 22 21 19 16 13 11 10 9 7 9 10 10 9 9 7 6 6 8 9 9 9 8 8 8 8 9 9 8 7
4 3 4 5 7 11 6 12 14 21 15 6 19 10 20 23 20 19 19 21 20 18 16 14 11 11 10 8 9 11 11 11 10 8 7 8 9 10 9 9 10 9 9 8 8 10 11 9 8
3 4 2 3 3 6 6 17 23 17 7 28 24 7 20 28 25 22 18 19 19 14 11 12 11 12 11 10 10 11 11 10 10 8 8 10 10 11 10 10 11 11 10 11 11 14 14 13 11
5 2 3 7 3 14 9 12 23 23 25 6 7 32 34 30 26 20 21 20 17 14 13 9 8 12 13 14 12 11 10 8 7 7 8 9 9 9 9 10 10 8 10 11 12 14 16 18 17
5 3 5 4 10 6 10 22 13 13 20 18 26 33 33 29 24 22 24 22 20 19 16 8 7 11 11 9 7 7 7 6 7 7 6 6 6 6 6 7 7 7 10 10 12 15 17 20 20
6 5 1 7 11 20 11 11 11 19 4 31 36 38 34 31 25 24 23 19 21 18 16 11 8 11 9 8 4 4 4 2 2 3 4 1 2 4 5 5 6 7 9 12 12 14 16 21 22
5 2 10 5 12 15 12 11 6 12 13 26 32 34 33 31 28 24 27 25 26 21 15 14 10 9 10 5 5 6 5 4 3 2 3 4 2 3 3 3 3 5 6 9 12 14 16 20 22
8 4 11 13 11 13 12 10 5 10 23 28 33 31 32 31 25 22 25 25 27 23 19 17 13 10 7 4 3 3 6 6 6 8 7 8 5 5 6 5 5 5 6 9 11 14 18 22 23
10 13 10 8 6 6 6 5 7 13 31 34 33 30 27 26 23 25 28 29 28 26 22 21 13 12 10 7 5 6 10 9 10 13 11 10 9 9 10 9 9 10 11 13 16 18 20 22 23
17 6 5 2 4 3 7 3 6 21 36 37 36 31 28 25 20 22 25 31 29 31 25 25 16 16 5 7 7 6 8 11 11 11 12 13 14 14 16 15 13 14 15 16 18 21 23 27 29
5 5 3 4 5 2 6 6 5 27 34 35 37 34 31 29 27 23 22 22 33 33 29 28 19 18 16 11 10 9 8 11 10 12 11 14 16 18 19 18 16 18 20 22 25 28 31 34 33
5 4 5 2 12 3 3 5 7 24 31 31 26 9 13 12 6 10 11 16 21 28 32 22 18 10 9 7 7 7 10 7 9 10 7 12 15 15 15 17 19 21 23 26 28 30 31 29 30
5 4 4 6 4 3 4 2 6 15 13 9 21 25 28 28 26 26 27 24 23 24 24 20 16 11 8 10 10 12 8 7 6 3 4 7 9 11 14 17 19 22 25 28 30 30 29 32 34
2 3 9 1 0 3 5 5 4 11 27 26 29 36 35 35 29 28 29 28 23 19 15 12 10 11 11 12 10 7 8 4 3 5 4 7 9 10 14 18 20 22 24 23 24 28 33 35 36
5 8 4 5 6 5 4 6 7 8 13 27 32 32 33 27 22 18 15 13 14 15 15 15 14 11 9 6 4 2 1 3 3 4 9 11 14 18 22 24 24 22 22 23 27 31 33 33 34
6 5 2 3 3 4 10 5 7 7 21 20 26 29 27 25 22 18 15 12 9 11 10 9 10 10 7 4 2 3 5 8 11 16 21 24 26 28 27 24 24 26 30 32 32 29 26 24 23
2 1 2 3 4 1 3 3 1 4 8 13 19 27 26 24 21 17 14 12 9 11 11 11 9 9 12 14 15 16 19 19 21 23 22 22 24 25 27 29 32 32 29 24 22 18 18 20 22
3 1 0 1 3 3 3 6 3 7 9 8 15 26 24 20 17 17 13 9 8 8 9 10 11 11 12 15 17 16 15 15 15 16 17 20 21 24 30 33 33 24 24 19 19 20 23 26 23
2 3 7 4 3 3 4 5 5 5 7 6 10 23 22 17 15 11 8 6 6 6 6 4 3 7 10 12 15 18 20 16 14 17 22 26 26 30 34 31 27 25 25 25 24 23 22 23 23
8 5 3 4 4 4 5 5 1 4 9 14 15 19 18 15 11 8 5 3 5 3 1 3 5 8 11 16 17 16 15 15 14 16 20 24 28 27 23 28 27 27 26 23 23 23 24 25 16
2 5 4 3 2 4 5 3 4 6 24 24 20 17 15 13 10 9 9 9 8 4 3 6 11 14 18 20 21 21 19 18 18 23 28 28 27 26 24 22 25 22 23 21 20 19 22 22 23
3 4 4 6 3 3 1 3 3 3 10 14 12 6 13 11 8 10 10 9 5 2 5 7 10 13 16 18 17 15 15 20 25 28 28 27 25 22 30 28 18 19 18 20 21 21 19 19 16
5 2 4 4 2 0 3 4 4 7 6 8 11 14 10 11 15 12 8 6 4 5 6 10 14 17 17 16 16 18 23 29 30 31 32 29 29 29 27 22 20 19 19 19 19 21 20 18 16
4 3 5 4 3 4 2 5 4 7 7 8 12 14 14 15 11 11 10 6 3 6 12 17 13 9 12 17 22 25 25 31 32 31 33 31 30 26 25 18 17 18 20 19 17 15 16 18 21
2 3 4 4 2 1 4 4 3 8 17 17 11 12 15 13 13 10 5 4 9 14 15 12 10 13 18 17 24 29 30 29 28 35 34 34 33 28 21 17 20 19 21 22 20 18 18 20 19

GFSSGP_850_spd_033.txt.gz
Wind_Speed
2 3 2 3 3 4 4 5 1 3 4 3 7 7 6 8 1 3 28 18 27 24 22 18 14 12 10 9 9 8 8 8 8 7 7 7 7 7 6 5 5 5 6 7 7 6 7 6 5
4 8 3 3 3 2 4 4 6 5 16 25 18 11 12 4 7 20 24 27 25 23 21 17 14 13 11 10 10 9 8 7 7 7 8 7 6 5 5 5 6 7 8 8 9 9 9 9 9
7 7 3 4 2 3 3 1 10 17 19 6 9 10 6 4 18 24 24 26 24 23 19 17 15 13 12 10 8 8 8 8 8 8 7 6 6 6 6 7 8 8 9 8 8 9 10 11 11
6 4 5 3 6 6 3 2 19 14 15 13 13 10 8 7 16 19 24 23 23 22 19 16 15 13 11 9 8 7 8 8 7 8 7 7 6 6 7 8 8 8 8 7 8 8 8 8 8
5 4 4 1 4 4 5 6 16 5 7 24 6 7 3 12 18 22 22 23 22 22 20 17 13 11 9 7 7 8 9 9 8 8 7 6 6 7 8 8 8 7 6 6 6 7 7 7 7
2 3 3 1 5 6 7 15 8 5 12 21 15 9 3 21 22 22 20 23 23 23 20 16 12 9 8 8 9 9 10 9 8 8 7 7 8 9 8 9 9 8 8 8 8 10 10 9 8
3 4 3 4 2 6 6 9 6 14 11 5 20 5 15 25 19 19 23 23 21 19 16 14 11 10 9 9 9 9 10 9 9 9 9 9 9 9 10 9 10 10 10 10 10 12 13 12 11
1 2 2 1 6 1 7 3 6 10 3 22 17 8 12 28 24 24 23 21 20 17 13 11 11 11 10 11 11 10 11 10 9 10 10 9 9 8 9 9 9 9 10 10 10 13 14 15 15
0 4 3 4 8 6 15 7 10 6 19 3 1 20 32 32 29 28 25 23 19 16 13 11 12 14 13 13 13 11 10 9 9 8 8 7 7 6 6 7 7 8 9 9 9 11 13 15 17
4 4 8 9 8 16 12 21 15 7 5 6 20 24 35 32 30 28 26 23 20 16 14 12 11 12 13 12 12 10 9 9 6 6 4 4 3 4 4 5 5 6 5 5 7 9 10 12 16
6 5 5 10 20 21 16 15 7 20 2 22 30 37 36 33 28 23 23 20 16 15 17 14 13 12 11 9 8 7 5 5 3 2 3 1 2 3 3 3 3 4 5 6 8 9 10 13 17
2 4 4 7 19 17 12 14 13 8 13 23 31 37 38 34 28 24 22 21 22 20 17 16 15 13 12 8 5 3 2 2 2 3 5 5 7 6 5 4 4 6 7 8 9 11 13 15 18
5 4 8 10 11 12 13 8 9 8 22 28 34 37 35 33 28 24 20 22 22 22 19 17 17 15 9 7 5 4 4 4 5 5 7 9 9 9 8 8 8 10 12 13 14 16 18 20 22
6 6 8 8 9 7 6 4 2 7 28 33 37 37 35 32 29 27 28 27 27 25 22 20 20 15 9 6 6 4 5 7 8 8 9 10 11 12 12 12 12 13 14 16 18 19 20 22 24
12 6 4 2 2 3 11 4 4 22 31 38 37 34 34 34 31 31 31 31 27 27 24 23 19 16 8 9 8 6 5 5 6 8 9 12 13 12 12 13 13 14 17 18 18 21 24 28 30
4 5 3 3 4 1 3 6 2 24 33 33 32 22 20 19 21 29 29 30 31 30 29 27 24 19 14 6 11 8 7 9 8 9 12 14 15 13 13 14 15 17 19 20 23 27 30 31 30
6 3 2 4 4 2 3 4 1 26 31 14 14 11 13 12 12 16 18 19 29 33 32 33 27 18 9 8 11 9 7 8 9 10 14 17 16 15 15 16 17 18 22 25 28 30 31 33 35
3 2 2 5 3 4 2 3 6 13 15 16 14 15 15 13 10 10 12 11 21 30 34 25 18 13 11 9 10 8 7 7 7 8 9 9 12 13 15 18 20 24 27 28 29 30 32 33 35
3 1 3 1 3 5 5 7 8 10 24 23 23 28 28 27 26 24 21 19 21 22 22 18 9 0 3 6 6 6 6 3 4 5 7 9 12 15 19 22 26 27 27 29 30 32 33 36 38
6 6 2 1 5 7 6 11 9 12 10 18 25 27 32 30 25 23 22 19 15 9 9 9 8 6 4 3 4 4 4 7 10 13 15 19 23 25 27 28 30 30 32 35 34 32 31 28 24
5 4 2 3 5 7 6 6 7 6 16 19 24 26 25 24 23 19 14 11 12 12 11 11 9 7 5 4 5 6 8 14 19 20 20 20 20 22 25 25 26 28 32 27 22 21 19 21 21
3 1 3 3 4 4 3 2 0 1 6 7 16 20 22 23 19 16 16 17 15 13 10 11 10 8 9 11 11 14 15 17 17 18 18 18 20 22 24 25 28 26 22 22 20 20 19 19 20
3 2 2 2 3 4 2 5 3 5 3 4 9 18 21 20 17 18 17 14 11 9 7 5 3 1 5 9 13 13 14 16 15 13 15 17 23 28 30 30 26 27 27 26 22 18 17 17 18
1 4 6 4 3 2 3 5 4 7 7 6 12 20 19 17 16 16 15 12 11 8 4 1 3 7 9 11 13 16 17 15 13 14 18 23 26 28 27 27 29 31 29 27 22 20 18 18 20
6 5 2 3 3 4 5 2 4 5 9 8 13 20 19 17 15 13 10 8 7 5 4 5 6 8 9 12 15 16 16 15 14 17 21 27 27 27 26 29 28 27 24 22 19 15 16 19 20
3 4 4 4 3 3 5 3 4 1 19 21 23 20 16 12 9 8 4 6 3 5 4 4 7 12 14 14 17 16 15 16 19 25 27 29 29 29 28 26 26 22 20 19 18 17 17 18 19
1 3 3 6 3 3 2 2 5 3 7 16 19 18 11 8 10 8 7 8 6 4 6 8 11 12 15 15 16 17 20 23 24 27 29 28 30 30 29 28 28 24 21 20 18 18 17 15 14
4 4 3 4 2 1 3 4 4 8 9 8 12 11 9 11 16 14 11 7 4 5 7 9 13 13 14 13 15 19 23 26 26 25 27 28 29 32 32 30 24 20 17 18 20 19 15 15 14
4 2 6 5 3 4 1 5 4 11 10 8 9 10 16 17 15 11 8 5 2 5 9 12 10 9 12 16 19 23 22 20 22 26 27 29 31 33 23 18 19 16 20 22 21 20 19 18 20
2 2 4 4 2 1 3 5 4 4 12 16 15 20 19 16 13 9 4 3 6 9 9 6 8 12 14 15 19 19 17 20 22 24 24 32 35 28 25 30 27 8 16 19 20 20 20 18 20

GFSSGP_850_spd_036.txt.gz
Wind_Speed
4 4 4 4 3 4 3 5 1 3 3 3 10 9 8 9 2 1 18 26 22 23 22 20 17 16 14 12 11 10 9 9 8 9 8 8 8 8 7 7 8 8 8 8 8 7 7 6 6
5 5 4 3 4 2 5 4 1 3 15 24 16 7 5 4 2 12 18 18 24 23 21 19 17 15 12 10 9 9 8 8 8 8 8 9 8 8 9 9 9 9 9 9 10 10 10 10 9
6 2 1 3 3 3 4 1 9 16 7 6 9 17 6 4 9 23 17 23 23 22 20 17 14 12 11 10 9 9 8 8 8 8 8 8 9 9 9 10 9 10 10 10 10 9 9 10 9
6 2 3 4 6 5 3 5 13 10 9 9 15 6 6 2 15 12 24 25 24 21 18 16 13 12 11 10 10 8 8 8 8 8 9 9 9 9 10 10 9 9 9 8 9 9 10 10 9
4 2 3 2 3 4 3 11 4 11 4 8 12 12 8 10 5 17 21 22 22 20 18 16 14 12 10 9 9 8 8 9 9 10 10 9 9 9 10 9 9 9 8 8 9 9 9 9 10
4 1 4 0 3 4 4 20 6 7 7 11 6 12 4 10 14 19 21 22 20 19 18 16 13 10 9 9 10 10 10 11 10 10 9 9 10 10 11 12 11 12 11 11 13 14 14 13 11
4 4 4 3 1 4 4 12 10 3 9 3 22 5 8 20 21 19 21 20 20 19 17 14 12 10 10 9 11 11 11 12 11 10 11 10 11 11 11 12 12 12 12 13 13 14 15 15 15
2 3 3 2 3 3 5 10 13 25 2 19 17 7 9 28 24 22 23 22 20 17 14 11 10 11 11 12 12 11 11 11 11 11 10 10 10 10 9 10 10 10 11 10 10 11 12 13 14
2 4 3 8 11 5 11 4 6 2 15 5 3 11 26 29 28 28 27 24 21 17 13 11 12 12 13 13 13 13 11 11 12 10 9 7 7 7 6 7 6 7 7 7 6 7 8 10 12
4 3 7 5 9 10 21 22 12 7 5 4 11 15 32 30 32 31 28 25 20 17 14 13 14 14 14 13 14 13 12 12 10 8 7 6 4 5 3 3 3 3 3 2 3 5 6 8 11
5 5 6 9 9 11 9 11 6 17 2 8 26 36 31 32 30 27 25 22 17 16 15 15 15 13 13 12 12 12 10 9 7 5 4 1 2 1 1 1 3 3 3 5 6 7 8 11 14
2 6 7 4 15 11 12 12 6 10 5 18 27 32 34 33 31 27 24 20 19 17 16 15 15 13 12 11 8 7 6 4 3 1 1 3 4 4 5 5 6 7 8 8 9 11 13 15 16
2 2 5 12 17 21 17 7 8 4 12 22 28 31 34 31 27 23 20 18 18 18 17 15 15 13 12 9 8 7 4 4 3 2 4 6 6 6 7 7 8 10 11 12 12 14 15 16 17
6 6 6 11 12 12 8 5 8 8 20 25 30 33 32 29 27 24 24 20 21 18 17 16 13 12 10 8 8 9 10 9 8 7 7 7 6 5 7 8 9 11 13 14 16 17 17 20 23
8 4 5 4 4 4 10 1 2 16 25 29 33 31 29 29 27 25 22 20 19 19 17 18 17 15 13 11 10 9 9 10 10 10 11 11 9 9 9 10 12 14 15 17 18 20 22 25 26
5 5 3 3 2 2 4 5 2 20 30 21 23 22 22 25 24 26 26 25 24 24 25 25 22 18 9 7 6 10 9 9 10 11 11 12 12 11 13 14 15 16 18 20 23 25 27 29 32
6 4 2 2 1 3 3 1 13 16 18 17 18 17 18 21 20 21 25 26 24 26 28 30 25 23 13 10 16 13 8 10 10 8 10 12 13 14 14 13 16 19 21 24 27 29 32 34 35
5 3 2 3 2 6 6 4 7 3 14 13 13 13 14 14 14 14 16 20 21 28 29 28 24 22 13 22 14 5 3 1 4 5 5 6 9 12 15 18 22 25 27 29 31 33 33 32 32
3 4 2 1 3 7 5 5 8 9 14 13 15 16 15 11 7 6 6 8 13 14 17 21 18 5 8 9 6 2 5 8 9 11 13 14 14 16 19 21 25 28 31 33 34 35 33 29 28
5 6 3 2 6 7 5 8 7 10 6 11 20 23 25 24 22 20 18 14 10 8 12 15 15 14 12 8 7 8 10 11 14 16 18 18 18 20 23 25 27 30 31 31 31 29 27 26 25
4 5 2 3 3 6 4 5 5 6 12 16 21 24 25 24 21 14 10 14 18 19 18 16 14 12 11 10 9 9 9 11 13 14 16 16 16 18 22 26 28 29 28 27 27 26 25 24 22
3 0 3 4 3 3 3 3 2 3 3 2 15 19 20 19 14 14 17 18 17 15 13 11 9 7 8 7 5 6 8 11 13 15 15 14 16 21 26 27 24 24 27 27 26 23 20 18 16
1 5 5 4 5 4 3 4 4 6 5 8 9 15 18 15 15 18 17 14 10 9 8 5 4 3 2 4 7 9 12 14 12 11 11 14 19 22 23 21 23 27 28 26 24 22 21 19 19
4 5 8 5 3 2 1 4 4 6 6 5 11 17 18 16 16 17 15 10 8 6 5 7 3 3 5 7 10 13 14 13 11 10 14 19 22 22 25 25 27 28 29 25 22 20 17 17 18
6 5 3 3 3 4 3 2 6 4 5 11 15 20 19 17 17 17 14 14 14 8 7 5 4 6 8 10 11 11 10 11 12 15 18 20 22 25 25 26 28 27 28 25 22 19 17 17 18
3 5 4 4 3 3 3 4 4 4 13 26 24 22 18 16 16 15 14 15 13 8 8 6 5 7 10 12 10 9 11 14 17 19 18 21 23 24 25 27 27 25 22 20 18 17 17 19 20
2 3 4 6 1 3 2 4 4 6 5 16 21 18 19 17 16 16 15 15 12 9 6 3 6 10 10 7 8 12 16 19 18 18 21 21 21 23 26 29 26 24 20 18 16 17 18 18 18
2 5 3 3 2 3 3 4 4 5 7 7 14 23 18 16 16 17 17 15 11 6 3 7 9 6 5 9 12 16 19 17 16 17 19 19 21 28 29 27 26 21 19 19 19 17 20 18 17
2 2 6 4 3 4 1 5 5 11 11 13 15 20 18 19 19 17 14 10 6 4 6 7 7 5 8 10 13 18 18 15 15 18 19 19 22 22 24 25 26 25 29 16 15 17 18 17 16
2 3 4 4 3 1 3 6 2 7 14 16 16 19 21 20 16 12 8 4 3 4 5 5 4 6 9 12 15 15 13 16 18 20 21 21 27 27 24 24 26 29 29 17 16 11 18 18 18

GFSSGP_850_spd_039.txt.gz
Wind_Speed
5 7 5 2 3 2 1 1 1 6 2 4 7 5 7 10 3 0 8 20 24 23 22 21 18 17 16 15 14 14 13 11 10 9 9 8 8 8 8 7 7 8 8 8 7 6 6 7 7
5 7 5 1 2 3 2 2 3 4 12 17 15 11 6 4 6 8 18 16 24 24 23 20 18 16 15 14 13 12 11 10 10 10 9 9 9 10 10 10 9 10 10 10 10 9 10 9 9
5 8 2 2 2 5 2 5 16 18 15 10 4 6 5 3 5 20 18 20 23 23 21 19 17 15 13 12 11 10 10 10 9 9 10 10 10 11 10 10 11 10 10 10 9 10 10 10 10
5 4 1 3 4 3 4 14 13 14 4 5 16 6 7 8 14 14 19 23 23 22 21 19 15 14 13 12 10 10 10 10 10 10 10 10 11 11 11 11 10 10 10 10 10 9 9 9 9
5 2 1 2 1 3 4 17 9 8 12 11 3 8 6 13 15 19 23 25 23 22 19 17 15 14 12 10 10 10 11 12 12 12 11 11 11 11 11 10 10 10 10 10 11 12 11 11 11
0 2 1 2 2 2 7 8 11 8 6 11 2 7 6 12 13 20 21 22 20 19 18 17 15 12 10 10 11 12 13 13 13 12 11 12 12 12 12 12 12 12 12 12 13 14 14 14 14
1 2 2 3 5 10 10 12 15 8 3 4 7 4 7 13 19 21 20 21 20 18 18 16 13 12 12 11 13 13 14 14 13 13 13 12 12 13 12 13 12 11 11 10 11 12 12 12 13
3 2 4 1 5 9 9 9 15 14 3 7 9 5 7 21 22 22 22 20 20 19 16 14 13 13 13 13 13 14 14 13 12 13 12 12 11 10 11 10 8 8 8 8 7 7 8 9 10
3 2 4 6 8 2 7 8 1 5 7 3 4 7 17 26 24 25 25 24 21 17 15 13 12 12 13 13 14 13 13 13 12 12 10 9 8 7 7 7 6 6 5 4 3 3 5 7 9
4 3 5 7 12 13 24 22 16 9 12 4 7 11 27 25 25 28 28 25 21 18 15 13 13 13 13 13 13 12 12 12 10 8 7 6 5 4 3 3 3 2 1 1 4 5 6 8 10
4 5 6 4 15 18 11 7 6 12 10 7 15 27 28 27 28 26 25 23 19 16 16 15 14 14 13 12 12 10 11 9 7 6 4 3 1 1 0 2 2 2 2 4 6 7 9 11 12
2 5 2 5 8 8 8 14 6 8 4 5 19 34 29 30 30 27 25 22 19 17 15 14 14 14 12 11 9 7 6 6 5 3 2 2 2 3 3 4 5 5 5 7 9 11 12 13 14
5 3 7 17 15 10 17 7 6 5 6 13 27 30 29 30 28 25 22 19 17 16 14 13 11 12 11 9 7 6 5 6 6 7 6 5 5 5 6 5 6 8 9 11 12 13 14 15 17
5 6 9 12 16 15 7 5 8 4 16 23 30 27 28 27 25 23 22 21 18 15 14 13 14 12 10 8 6 8 10 12 14 13 11 10 9 8 8 8 9 11 12 14 14 15 17 19 22
7 8 6 7 8 4 15 3 4 7 21 25 23 25 26 25 23 21 20 19 16 17 17 17 16 14 12 10 5 3 10 12 14 17 17 14 11 9 10 11 12 13 13 13 16 18 20 23 25
4 4 5 2 4 3 2 3 8 9 20 20 21 22 21 19 19 19 20 19 18 19 21 20 17 14 12 10 10 16 7 15 15 17 13 11 8 7 8 9 10 11 13 17 21 23 26 29 31
7 3 3 4 5 4 2 3 9 4 11 12 13 18 19 20 18 18 19 18 17 16 19 21 21 20 14 9 9 16 11 11 8 5 6 6 7 7 8 9 13 16 19 23 25 27 28 29 28
3 4 1 4 2 10 7 3 6 4 9 10 11 12 14 14 17 15 15 17 16 19 22 22 21 21 17 6 7 5 1 1 3 5 6 8 9 10 12 15 17 20 24 26 27 27 26 25 25
4 3 4 3 4 6 5 4 7 4 7 9 9 11 11 9 7 6 5 7 10 11 10 13 16 11 3 9 11 10 5 4 1 5 8 10 10 10 13 15 19 24 26 26 25 25 26 24 27
4 6 3 3 3 4 4 8 7 5 2 5 11 12 12 13 11 9 7 8 7 7 8 8 11 13 15 12 10 6 3 3 7 11 11 13 14 13 14 19 23 23 20 21 23 24 24 23 23
5 6 3 4 4 6 3 2 2 5 6 6 8 13 17 19 20 17 16 19 23 23 22 20 20 19 16 11 6 2 0 3 7 10 12 12 10 12 18 21 21 19 22 24 24 24 22 19 18
4 2 4 6 2 2 2 3 1 2 4 7 12 15 20 21 17 19 24 25 24 22 19 17 15 13 10 6 3 4 5 7 9 10 10 8 11 16 18 18 17 19 21 23 23 22 20 19 12
4 3 4 3 4 2 1 2 1 3 6 11 13 15 16 15 16 23 23 21 19 18 16 12 11 9 6 5 4 7 8 8 8 8 7 11 14 17 17 19 19 21 22 22 23 22 21 17 13
8 5 5 3 2 1 1 3 3 6 8 13 14 14 16 15 20 21 20 18 17 15 11 10 8 10 7 4 5 6 7 6 6 7 11 14 16 18 20 20 21 22 24 25 23 22 21 16 15
4 4 2 1 1 3 2 2 5 4 6 19 20 18 19 19 22 22 20 18 16 14 6 12 11 7 4 4 5 5 5 6 9 12 14 14 17 18 19 21 24 27 26 23 21 18 17 17 17
2 3 4 4 3 1 0 4 2 4 7 18 23 22 22 21 22 21 18 16 15 11 8 10 8 5 3 4 3 4 6 9 10 12 13 15 17 18 21 24 26 25 24 24 23 23 20 17 16
4 2 2 6 2 1 2 3 5 2 4 13 20 20 22 22 22 19 17 16 15 11 10 8 6 4 2 2 3 5 8 10 12 13 14 16 18 21 23 25 23 22 23 26 25 25 27 18 15
1 7 3 2 3 3 2 4 4 4 8 11 17 22 21 21 19 17 17 16 14 11 9 6 3 1 2 3 5 8 11 15 17 16 18 20 21 22 23 26 26 24 24 25 22 28 18 14 14
2 2 5 4 1 2 1 4 3 8 11 16 21 21 22 19 17 15 15 14 12 8 4 1 2 1 3 6 9 11 14 15 16 18 19 20 23 26 26 27 24 23 24 21 25 21 18 12 16
1 3 4 3 4 1 1 5 1 5 9 11 16 18 18 17 16 16 15 12 10 6 4 2 3 7 7 9 11 11 16 19 19 16 20 23 26 24 28 28 23 21 22 21 27 23 15 14 15

GFSSGP_850_spd_042.txt.gz
Wind_Speed
7 6 4 4 7 7 7 4 2 8 4 5 10 3 7 16 4 2 15 16 21 21 22 21 19 18 17 16 14 13 12 12 11 9 8 7 6 6 5 5 6 6 7 7 8 8 9 9 9
6 4 4 5 7 9 6 2 5 10 18 12 15 8 5 6 5 11 17 19 25 22 20 20 19 17 15 13 13 12 12 10 9 9 8 8 8 8 8 8 9 9 10 9 9 9 8 9 9
5 6 8 4 8 11 4 2 15 21 12 13 8 8 7 4 4 10 13 22 23 19 18 20 19 16 15 15 14 12 10 10 10 10 10 10 10 10 10 10 10 10 9 8 8 7 7 8 8
3 5 6 8 11 1 4 11 22 19 17 10 12 5 5 10 16 8 15 19 18 18 16 20 18 17 16 14 13 11 11 11 11 10 11 10 10 10 10 10 10 9 9 9 8 8 9 9 10
6 5 8 10 5 2 6 15 18 14 15 6 2 8 9 14 14 12 19 21 18 18 16 19 17 16 14 12 12 11 11 12 11 11 10 11 11 10 9 9 9 9 10 11 11 11 11 11 12
10 6 7 10 6 5 13 10 14 14 14 15 5 8 6 17 17 20 23 22 22 21 18 17 16 14 12 12 11 12 12 12 11 11 10 11 10 9 9 9 10 11 11 11 11 12 12 12 12
12 7 5 2 4 8 11 11 12 10 9 13 5 8 5 16 18 20 22 22 20 19 18 14 14 14 12 11 12 13 12 12 11 11 11 10 11 10 10 9 9 10 9 9 9 9 9 9 10
6 6 6 4 9 12 11 12 17 9 5 7 5 5 7 20 22 22 22 20 19 18 14 14 13 11 12 13 13 13 13 12 12 12 11 10 9 9 8 6 5 6 6 6 4 4 4 5 7
3 6 9 8 12 7 11 10 0 4 2 4 3 1 6 25 27 22 21 18 19 18 17 14 12 12 11 11 13 13 13 13 12 11 9 8 7 6 5 4 3 3 3 1 1 3 4 6 8
8 8 3 6 16 15 5 16 13 9 7 4 6 8 21 24 22 22 21 21 19 17 13 12 12 13 14 11 13 13 13 11 9 7 7 4 4 3 3 3 3 4 3 4 5 6 7 6 6
8 7 5 3 19 16 24 13 10 10 9 11 11 19 23 21 21 20 20 19 17 15 13 13 14 14 14 13 11 9 8 8 6 5 5 4 3 3 3 3 3 5 5 3 5 6 6 12 10
8 5 4 9 17 16 15 11 8 7 7 3 9 23 26 22 23 23 21 18 14 13 12 13 13 14 14 12 9 10 7 7 5 5 4 4 4 6 6 4 6 6 6 8 8 7 13 14 16
12 4 6 13 22 16 12 13 8 5 6 12 20 23 21 21 20 18 15 13 12 13 13 13 13 12 11 10 9 7 6 4 6 7 9 8 7 8 8 9 8 9 9 7 8 7 9 12 13
6 5 8 8 12 7 12 7 8 3 9 14 21 18 19 20 19 15 12 12 11 12 12 13 13 13 12 10 8 5 7 10 11 13 14 11 12 10 9 10 11 10 9 9 8 13 14 14 16
14 10 6 9 14 8 12 10 4 1 10 16 18 16 17 17 15 12 11 10 10 10 12 14 14 14 13 10 6 2 8 8 6 10 11 12 9 8 7 9 8 9 10 10 13 17 14 16 17
7 14 9 9 15 5 6 11 4 7 12 15 16 15 16 15 12 11 10 9 11 12 13 16 17 14 13 12 12 13 10 13 12 10 7 4 3 4 6 7 9 9 12 14 14 14 16 16 17
9 9 11 8 2 8 7 9 4 8 14 15 15 16 17 13 11 9 9 9 13 14 15 16 18 19 19 14 15 9 8 6 2 3 4 3 4 3 5 7 9 12 13 13 14 15 15 17 17
7 8 9 10 5 10 8 7 5 7 15 15 15 14 14 13 10 8 11 12 11 15 17 17 18 20 22 17 18 5 5 5 1 2 2 4 6 7 7 9 13 15 13 12 17 18 16 16 18
4 6 12 8 4 7 6 6 5 7 12 13 14 13 13 10 7 7 9 11 15 16 15 14 10 11 7 12 8 11 6 5 2 3 5 6 6 7 8 9 12 14 11 15 16 16 17 18 17
5 7 7 5 4 5 9 6 4 6 9 12 13 12 12 10 9 8 7 9 11 14 14 10 9 11 15 14 12 9 10 6 4 5 5 6 7 8 10 12 9 14 15 15 17 17 18 18 17
4 3 10 5 7 2 9 8 8 4 7 8 10 10 10 11 12 12 13 12 15 16 17 17 18 20 17 14 12 10 8 5 4 7 8 9 8 9 14 19 22 20 16 15 16 15 15 18 18
5 2 5 11 10 7 8 7 10 9 8 10 11 12 14 15 14 15 17 18 20 20 20 20 19 16 15 14 10 8 5 4 7 7 6 5 11 14 18 19 19 17 14 15 16 17 17 17 21
4 4 4 3 4 5 9 7 8 9 10 12 14 16 17 16 16 20 20 20 20 22 19 18 16 13 14 12 9 6 5 5 8 6 6 8 10 15 15 14 15 14 17 18 19 18 18 19 18
10 8 6 2 3 8 4 6 9 7 7 13 17 19 19 16 19 20 19 18 18 20 18 15 13 15 12 8 7 6 6 3 3 4 6 9 11 12 13 14 15 18 19 20 20 19 18 18 17
6 6 3 3 4 6 3 6 11 2 3 10 19 22 20 18 22 21 19 17 16 14 13 13 10 9 8 7 6 5 3 2 3 6 9 11 14 15 17 16 18 21 22 21 20 19 19 18 16
2 3 3 4 3 1 3 5 2 2 2 7 20 23 21 20 21 21 18 16 15 13 11 10 10 8 8 5 5 4 2 4 6 8 11 13 14 15 15 16 19 21 21 21 20 19 18 18 19
5 4 3 2 1 3 3 4 8 2 3 10 19 22 23 23 22 20 18 16 14 13 10 11 10 8 6 6 7 7 8 9 9 13 14 11 12 13 15 18 20 21 21 21 20 19 18 19 18
4 9 3 3 3 4 3 5 2 4 7 10 18 23 24 22 20 19 18 16 14 12 11 13 9 9 7 7 7 8 11 12 13 14 9 9 12 16 18 20 20 21 20 20 19 17 19 19 16
4 4 1 0 2 2 3 2 3 1 5 11 18 22 24 22 20 19 16 14 13 12 11 11 11 8 6 8 9 12 8 11 12 7 9 11 15 17 18 20 21 20 18 17 18 17 19 21 14
2 5 8 4 4 1 2 3 4 2 2 9 15 20 22 21 19 18 16 16 15 13 12 12 11 5 7 9 7 5 10 11 7 8 10 14 16 17 19 20 19 17 17 19 18 19 16 11 13

GFSSGP_850_spd_045.txt.gz
Wind_Speed
8 6 5 9 8 8 17 21 3 9 7 3 9 4 15 15 10 6 18 14 21 21 25 24 22 20 18 16 14 12 11 10 8 8 6 5 3 3 3 4 4 5 6 6 7 7 8 9 9
5 7 8 15 10 14 14 18 6 19 17 13 12 8 10 10 11 13 15 19 21 22 23 22 21 19 17 15 13 11 10 9 8 7 6 5 5 5 5 6 6 7 7 7 7 8 9 10 11
5 8 13 10 14 16 11 10 18 14 13 8 8 13 8 6 7 7 15 21 20 19 19 20 21 18 16 14 12 10 10 8 7 6 5 6 7 7 7 8 8 7 6 6 6 7 8 9 11
5 9 14 10 19 17 8 14 16 16 9 8 10 9 6 3 5 8 20 20 20 20 21 20 19 16 14 12 11 10 9 8 7 7 7 8 9 9 9 8 7 6 6 6 7 8 9 11 13
9 14 11 14 17 9 4 15 11 15 11 14 9 5 5 5 8 11 19 18 21 20 15 20 17 15 13 12 11 10 9 8 8 8 8 9 9 9 8 8 7 7 8 9 9 9 11 13 14
14 16 13 15 18 6 5 16 18 7 11 10 12 21 12 11 15 11 13 17 17 17 19 19 18 16 15 12 11 10 9 9 9 8 9 9 9 8 7 7 7 9 8 8 8 8 10 11 12
16 12 15 18 2 5 9 5 13 18 8 10 8 7 4 13 14 14 14 19 18 17 18 17 16 15 14 13 11 10 10 9 9 8 9 8 8 7 7 7 7 7 6 6 6 6 7 8 10
19 12 20 10 12 13 11 14 8 9 8 7 4 7 6 16 18 20 22 23 21 17 17 16 13 12 12 13 12 11 11 10 9 9 8 8 7 7 7 5 3 3 3 2 3 5 7 7 9
13 11 15 11 16 9 13 19 16 9 9 2 2 3 6 23 22 22 19 18 17 17 18 15 14 12 11 10 13 12 11 9 9 8 9 10 5 6 4 3 1 1 3 4 7 8 8 10 12
12 12 11 8 15 7 18 6 13 8 7 7 7 7 16 23 21 20 18 17 16 16 14 14 13 13 14 11 12 9 10 8 6 4 6 5 4 6 4 6 6 6 6 7 9 9 10 9 7
15 15 6 27 28 17 6 11 11 11 19 18 7 14 19 19 18 18 18 18 17 15 13 13 13 14 13 12 11 9 8 7 6 5 4 5 2 1 4 6 7 6 9 6 9 9 7 10 11
12 12 8 4 12 4 2 13 8 10 5 8 17 20 20 20 20 20 19 18 17 14 14 14 13 14 11 11 10 9 7 6 4 6 3 3 4 6 3 5 5 7 6 9 8 8 10 10 11
11 9 3 9 9 11 11 14 32 12 8 10 21 22 21 20 21 20 18 16 15 15 15 14 14 13 13 12 10 9 6 6 8 5 5 5 4 5 7 9 4 6 7 8 8 8 9 12 14
9 6 5 7 9 15 12 17 15 9 10 17 21 20 20 22 21 19 18 17 16 16 16 15 14 14 13 12 11 7 7 1 2 7 8 10 11 10 4 4 3 3 4 5 7 11 13 14 16
9 16 4 9 15 10 17 8 12 11 14 18 17 17 20 20 19 17 17 16 16 15 16 16 16 15 14 13 11 8 4 3 1 5 5 6 5 5 7 6 4 6 7 12 15 16 14 16 17
7 10 14 14 15 17 14 13 8 10 15 18 18 19 20 19 17 15 15 15 15 16 16 16 16 17 17 16 14 12 14 12 11 12 5 1 2 4 4 5 6 8 10 10 11 12 14 16 17
11 9 13 9 16 9 15 14 11 12 15 18 18 19 19 18 17 15 14 15 16 16 17 16 16 16 15 13 16 20 17 15 12 5 1 2 1 1 4 6 7 7 8 8 10 13 14 17 18
13 16 15 14 13 12 11 13 11 17 16 18 18 19 19 17 16 13 13 14 15 16 17 16 17 19 12 16 16 14 10 14 10 6 3 3 3 6 3 5 6 7 8 9 12 14 15 17 19
11 10 10 14 9 13 11 10 12 16 17 17 19 19 18 17 14 11 13 13 14 17 19 20 20 9 9 11 9 11 13 10 6 3 4 4 1 2 4 3 6 10 10 13 14 15 17 18 19
7 4 7 8 9 7 7 11 11 15 19 21 19 18 18 17 14 14 13 13 16 19 20 20 13 12 9 8 9 11 11 8 6 6 2 2 5 6 3 9 7 9 12 14 15 18 19 20 19
3 8 4 9 10 13 9 14 14 12 13 12 18 19 18 18 17 14 14 14 16 17 17 16 14 13 14 14 13 11 10 10 7 4 3 4 6 8 9 7 9 12 13 15 17 17 19 23 23
8 1 2 4 12 13 17 12 16 17 15 14 17 17 17 18 16 16 16 16 16 17 16 16 18 18 17 15 12 12 7 7 6 4 7 6 5 4 6 9 11 12 14 16 17 19 21 22 24
9 3 4 6 11 9 18 8 19 16 15 15 18 19 19 17 18 18 19 20 20 20 20 18 18 16 16 13 11 10 7 6 5 4 6 7 9 9 10 11 12 14 16 18 21 21 22 23 23
4 4 6 8 10 9 14 10 3 12 12 17 15 18 18 19 19 20 21 21 22 20 19 17 16 15 14 11 10 9 7 6 5 5 7 9 10 12 12 13 14 17 19 20 22 23 23 24 23
7 7 8 5 4 8 5 5 13 7 3 6 16 19 20 19 21 23 23 22 21 19 17 16 15 13 12 11 9 8 7 5 5 7 8 11 12 13 14 15 18 19 21 22 22 23 23 25 22
8 10 5 6 7 7 6 7 3 8 3 2 15 20 21 21 22 23 22 21 20 18 16 15 14 13 12 11 10 8 6 4 6 7 10 11 12 13 15 17 17 19 20 21 22 22 23 24 21
6 7 5 3 0 5 10 6 9 5 5 7 15 20 22 22 23 24 22 20 19 17 16 14 15 14 14 13 11 8 5 5 8 9 9 10 11 12 15 17 19 19 20 21 21 22 21 21 20
8 3 4 4 3 6 4 4 6 7 6 8 14 20 22 22 24 24 22 20 18 17 16 15 16 16 15 12 9 6 7 9 8 8 8 9 10 12 15 16 17 19 21 20 20 21 19 20 17
7 8 6 4 2 4 3 2 7 4 5 8 12 18 21 23 24 23 21 19 18 17 16 16 16 17 14 10 7 9 10 8 7 8 9 10 11 13 15 17 19 20 20 20 19 20 21 20 19
9 8 9 6 6 3 3 5 4 5 3 7 10 16 20 23 23 22 21 19 18 18 17 17 16 16 11 7 10 12 6 7 9 10 10 10 13 15 16 18 19 19 19 19 21 24 19 16 13

GFSSGP_850_spd_048.txt.gz
Wind_Speed
6 5 5 10 7 7 15 19 23 6 13 15 18 19 21 24 8 11 13 23 24 24 26 24 22 22 21 19 17 14 12 10 9 7 6 6 6 6 7 9 9 10 10 10 10 11 12 12 13
6 10 11 12 8 12 14 8 17 16 9 12 15 15 17 16 16 16 20 22 23 25 27 24 22 22 21 18 15 12 11 10 8 6 5 5 5 6 7 8 9 9 10 10 11 12 13 14 14
5 4 12 7 12 15 17 18 13 12 10 11 8 13 7 4 9 6 19 24 25 21 26 24 22 21 19 16 14 12 11 9 7 6 5 5 6 7 7 8 8 9 10 11 12 14 15 16 17
4 10 12 9 18 21 6 10 6 14 13 10 15 11 9 9 5 7 17 21 23 22 22 23 20 20 17 16 13 11 10 9 7 7 6 6 6 7 7 7 8 9 11 12 12 14 15 17 18
12 12 12 15 17 21 16 19 14 9 11 11 9 8 10 10 11 12 17 21 23 23 21 20 18 18 15 14 13 12 10 8 7 7 7 7 7 7 7 7 8 10 11 12 12 13 14 15 15
17 17 13 15 20 20 11 27 32 22 12 16 13 8 5 9 12 18 17 14 19 26 20 19 18 17 15 14 12 11 10 9 8 8 7 8 8 8 8 8 9 9 10 11 11 11 12 12 13
15 12 17 19 17 13 7 16 15 10 9 11 10 7 9 13 13 16 14 16 20 21 19 19 18 17 14 12 12 11 10 10 9 9 9 8 8 9 9 7 7 7 8 8 8 8 9 10 12
19 12 21 19 17 9 16 9 14 22 9 3 9 2 12 21 20 20 18 21 22 22 19 16 18 16 14 12 12 11 11 10 10 11 10 9 9 9 7 6 5 5 6 6 7 8 9 11 12
19 11 14 16 11 5 17 5 9 11 11 14 7 12 23 22 26 22 20 19 23 23 20 15 14 14 13 13 13 11 11 11 12 12 13 10 11 9 6 9 7 5 5 7 9 11 11 9 11
13 12 15 8 9 4 3 5 20 4 6 10 15 20 23 19 24 22 31 18 26 23 17 20 15 13 12 13 13 13 13 12 11 12 12 8 5 3 5 7 10 8 8 7 10 12 8 5 4
18 15 12 12 22 21 14 25 32 5 7 9 16 19 20 20 21 24 26 27 28 23 19 20 20 18 14 13 12 13 13 10 8 8 7 5 4 3 4 4 7 7 9 7 8 10 7 14 14
15 17 15 15 15 11 12 8 21 12 13 20 12 26 23 20 20 22 27 28 26 21 19 19 23 20 18 18 15 11 9 8 5 7 9 7 8 6 6 3 3 5 2 7 5 5 9 7 11
14 8 13 4 18 3 20 18 4 18 13 18 23 21 22 18 20 14 24 23 22 20 16 17 23 19 20 16 18 16 18 11 8 5 4 5 6 4 5 6 3 5 7 5 8 10 12 15 15
3 4 8 11 6 3 22 10 5 4 22 21 21 20 18 17 29 27 22 21 20 20 19 18 19 23 19 19 17 17 17 14 11 6 5 5 6 8 3 4 7 7 13 12 13 14 15 16 16
12 12 8 2 4 2 30 7 16 10 19 20 20 21 19 19 18 19 19 19 21 19 21 21 21 21 22 22 23 18 12 5 4 2 4 5 6 8 10 9 10 10 12 13 14 15 16 18 18
4 7 3 2 10 12 11 14 13 19 17 18 17 20 20 19 18 18 18 20 20 21 21 21 22 21 22 18 15 12 7 7 9 2 4 1 2 3 6 6 7 9 11 10 15 17 19 18 17
3 8 15 9 16 6 10 12 15 16 18 20 20 21 22 22 20 19 17 18 18 22 22 22 22 24 18 13 12 12 11 16 12 10 4 1 1 2 6 7 7 6 7 12 14 19 18 18 18
13 14 12 9 11 13 16 7 14 17 19 19 20 21 20 17 16 19 16 16 20 21 24 19 24 21 16 14 14 14 13 17 21 12 5 2 2 2 4 9 10 8 4 10 16 15 17 16 17
6 7 13 13 10 12 11 14 13 17 16 21 21 20 21 22 17 17 16 17 18 20 22 22 21 18 15 12 12 11 12 10 12 11 7 1 1 4 3 6 5 10 9 11 12 15 18 17 20
13 6 9 11 10 10 11 10 13 14 17 19 20 22 22 22 20 16 17 18 14 22 24 23 20 14 11 7 7 8 12 10 6 5 5 8 6 3 5 7 5 9 13 12 14 18 19 21 16
11 8 9 11 7 9 7 11 15 14 16 19 21 24 23 23 22 18 18 17 18 23 24 18 17 14 15 14 12 12 12 14 14 10 6 8 4 5 4 7 11 14 16 14 15 16 17 23 27
5 9 10 15 11 9 7 6 2 11 14 17 23 22 26 26 22 21 18 20 23 23 21 16 18 14 16 16 16 17 17 11 9 7 8 9 9 9 8 10 13 15 14 15 17 19 24 23 22
4 15 17 11 9 4 4 7 17 11 16 14 13 17 20 22 21 22 22 23 20 19 20 19 20 19 19 18 16 15 10 16 15 12 11 8 9 12 11 12 13 12 13 15 20 20 23 26 26
14 13 12 9 9 6 15 12 9 13 16 9 17 19 16 16 16 16 18 14 20 19 18 24 21 21 19 18 15 14 15 11 9 10 9 7 8 7 9 9 14 16 18 19 22 25 25 25 25
7 8 3 5 6 5 9 7 2 19 14 20 18 18 19 18 18 19 21 23 24 24 23 23 22 20 18 16 15 15 13 13 11 10 7 9 12 14 14 16 18 21 21 23 23 24 25 25 25
17 1 2 3 3 6 13 4 5 12 8 12 18 17 18 18 20 23 24 25 25 24 23 22 21 19 18 17 15 15 13 9 10 9 13 15 14 14 16 18 18 18 21 22 23 24 24 24 25
11 4 3 6 3 2 5 11 7 7 8 6 15 18 20 20 22 24 25 26 25 23 21 20 19 19 20 17 17 16 15 14 14 13 14 13 11 11 11 17 20 20 20 21 23 23 22 21 21
6 6 3 2 2 4 8 11 10 7 8 6 12 17 21 20 22 24 25 24 24 23 20 19 17 23 20 19 18 15 12 12 9 8 10 10 13 12 14 15 17 18 20 21 21 21 22 25 24
5 7 6 8 4 1 4 4 6 7 8 7 8 17 21 22 23 24 25 26 22 21 21 23 19 19 20 20 17 18 17 8 9 9 9 11 11 13 13 16 17 19 19 20 20 23 26 28 26
10 11 8 3 6 3 0 5 4 6 6 7 8 15 20 23 23 25 25 25 24 20 20 18 18 19 19 18 20 14 16 5 5 9 12 12 12 13 14 16 18 19 18 18 21 22 25 23 23

GFSSGP_850_spd_051.txt.gz
Wind_Speed
5 1 3 4 2 3 5 8 3 2 5 11 21 21 14 13 4 5 26 22 22 29 26 23 26 26 24 22 21 19 16 15 15 12 10 11 12 13 13 15 15 15 15 15 16 17 17 18 18
5 4 9 5 2 2 6 4 5 4 6 10 19 11 14 6 13 18 20 18 22 34 32 29 28 28 24 20 19 17 16 15 13 11 11 12 12 13 14 14 14 13 14 16 18 19 21 21 21
4 6 4 4 3 7 4 1 5 5 7 10 7 13 5 3 13 10 24 25 31 35 34 30 28 27 25 19 17 16 14 12 12 12 12 12 13 13 13 13 12 13 16 18 20 22 22 23 24
2 4 6 1 10 16 14 7 17 16 17 12 14 6 6 3 7 16 26 27 31 36 36 32 28 26 23 19 16 15 13 12 11 12 12 13 13 13 13 12 13 14 16 18 20 20 20 21 21
7 7 2 4 11 9 15 10 21 7 13 15 9 4 6 8 11 19 24 26 38 35 35 31 27 25 21 18 17 15 13 12 12 12 13 13 13 13 12 13 14 14 16 16 17 17 17 18 18
6 3 2 6 12 9 8 20 11 15 18 12 12 10 4 7 9 13 15 17 33 27 30 27 22 20 20 18 16 14 13 13 12 13 13 13 12 12 12 13 13 13 13 13 13 13 13 13 13
9 2 7 11 16 6 8 10 5 5 10 6 9 5 12 14 15 15 15 20 28 26 23 22 18 19 18 17 15 14 14 13 13 14 14 13 13 13 12 12 11 11 10 10 9 10 10 10 13
18 4 9 10 5 3 3 5 7 8 4 4 1 7 7 17 19 18 13 18 22 30 27 19 19 19 17 16 14 14 14 14 15 15 15 14 14 13 12 10 9 8 7 7 8 10 8 8 8
18 2 7 5 1 5 10 6 8 9 13 6 7 8 14 20 20 22 24 28 26 23 24 24 21 18 17 15 16 15 15 15 16 17 16 14 13 13 12 10 8 7 7 7 9 10 5 5 5
5 1 8 3 7 6 4 9 5 4 3 6 14 17 19 25 28 30 29 29 27 28 21 20 18 17 17 17 17 16 16 18 18 16 14 10 9 8 7 5 8 9 8 6 8 5 4 4 7
16 6 4 3 4 14 14 11 12 13 4 7 19 24 28 30 30 33 39 22 28 22 20 19 18 19 17 17 19 19 19 20 19 14 13 7 6 4 1 3 10 6 5 5 5 4 3 9 12
5 15 5 12 13 17 10 18 11 11 6 3 16 18 23 33 29 31 25 31 28 27 23 20 18 18 18 19 18 16 14 13 15 11 14 12 12 9 5 5 4 6 5 8 6 6 8 10 10
6 8 2 19 15 21 21 10 10 17 23 10 18 19 20 26 28 32 28 29 29 29 26 26 22 22 16 18 19 19 19 17 17 14 12 10 10 9 7 6 9 11 10 10 10 11 12 14 15
14 18 13 19 18 14 14 9 4 1 15 23 23 23 24 30 33 31 29 34 30 24 24 28 24 22 23 24 21 24 20 15 12 9 11 12 10 9 7 8 11 11 10 10 10 12 14 15 15
11 7 5 4 16 4 10 7 4 10 17 28 28 26 27 29 34 37 38 32 26 22 25 28 28 28 23 25 23 18 17 13 13 11 10 5 7 7 8 8 9 8 10 12 13 14 13 14 17
3 5 4 4 15 6 10 8 9 9 20 23 24 29 31 37 36 37 28 26 24 19 22 27 30 26 24 21 22 21 16 15 13 10 5 3 6 6 5 5 5 6 10 13 14 16 18 19 19
3 4 4 1 27 9 7 6 14 15 21 22 25 31 37 33 31 26 27 29 25 18 23 27 26 25 22 19 18 20 19 11 10 5 2 6 6 5 4 3 3 6 8 11 14 18 19 20 22
3 3 5 7 12 20 13 7 8 28 27 24 24 26 28 30 30 27 27 27 21 22 24 25 25 24 23 24 23 18 13 11 12 10 6 6 4 1 2 4 6 7 9 10 15 15 17 22 21
8 13 10 7 9 10 15 10 11 20 24 25 30 28 28 27 28 27 27 27 31 28 31 25 25 26 24 23 19 18 15 14 13 10 9 7 5 1 3 5 8 8 9 11 13 16 21 21 21
9 12 1 8 5 7 6 12 12 10 18 28 29 30 31 27 27 28 24 28 32 33 32 26 23 21 20 18 16 14 13 11 10 11 10 7 5 3 4 4 8 12 14 16 18 19 20 20 22
7 4 2 3 4 2 3 2 2 7 15 28 34 33 31 32 32 30 27 21 30 35 31 24 22 16 17 16 9 12 15 16 16 14 8 7 7 5 8 15 15 15 17 17 18 19 21 23 26
8 13 2 0 3 2 4 2 1 4 9 8 22 29 34 33 30 29 28 25 21 28 26 19 16 14 20 17 18 18 21 18 10 4 7 8 7 8 12 14 16 17 16 17 18 20 24 24 24
7 11 6 5 2 4 2 4 6 5 5 5 13 31 37 38 38 30 30 27 24 23 18 17 15 21 18 23 19 18 12 11 14 15 14 10 6 10 12 12 10 11 14 16 19 24 24 25 27
3 2 4 5 3 2 10 5 4 7 17 4 9 10 28 35 37 33 31 29 27 26 25 21 24 21 21 23 19 17 15 18 18 15 15 10 4 6 11 13 12 12 15 19 24 27 26 25 25
6 4 3 5 6 4 4 5 8 8 9 17 20 28 11 24 29 33 32 28 21 18 25 26 23 23 28 24 19 18 18 20 19 15 13 13 11 14 12 16 17 19 23 27 26 25 24 25 24
5 3 4 4 1 5 5 4 5 3 13 28 32 26 17 25 25 25 24 23 20 23 20 23 29 29 27 26 22 21 19 19 17 16 15 14 16 15 21 20 24 27 27 24 23 23 24 23 22
1 4 6 5 2 3 4 3 4 6 6 12 18 22 23 22 21 22 23 23 26 27 27 27 24 25 24 22 22 24 23 23 19 19 18 19 16 16 24 23 23 22 23 22 22 23 22 22 25
5 4 2 3 2 3 4 3 3 6 5 6 10 22 23 22 22 23 27 27 28 28 28 26 21 21 22 24 22 23 24 21 18 16 15 16 14 17 19 22 21 20 21 21 21 21 20 23 24
2 3 2 4 5 5 1 4 2 8 8 9 13 29 29 26 26 26 29 29 30 28 28 24 25 19 26 27 26 27 25 22 19 15 13 9 14 20 17 20 21 21 22 21 22 22 24 27 27
6 6 6 5 5 3 5 5 2 7 9 15 13 29 32 31 29 28 28 30 30 31 31 27 26 24 28 28 26 20 17 14 16 4 9 15 18 16 19 20 21 22 22 23 22 23 26 26 24

GFSSGP_850_spd_054.txt.gz
Wind_Speed
3 3 2 2 3 4 4 6 5 8 1 6 9 14 11 7 3 3 17 19 34 33 32 33 32 31 26 25 24 22 19 17 15 14 15 16 16 18 19 20 20 20 20 21 22 22 22 22 20
2 3 2 1 4 2 5 5 3 5 10 10 12 12 8 5 4 12 25 27 32 33 33 35 33 30 28 25 23 21 18 16 14 14 16 17 18 19 19 19 19 20 22 24 25 26 25 24 21
3 5 2 3 3 5 4 3 3 1 5 4 5 11 6 2 10 21 16 30 31 32 32 34 33 32 28 25 21 20 18 15 14 15 18 18 18 19 18 19 19 21 24 25 26 26 26 23 21
2 4 3 3 6 5 3 13 7 6 6 4 13 7 8 3 5 18 21 28 31 31 33 31 35 33 29 24 21 18 16 15 15 16 18 19 19 18 17 19 20 22 23 23 24 23 23 22 18
1 1 0 4 3 1 2 10 14 5 2 6 1 3 5 8 11 20 25 28 32 30 32 31 30 28 25 23 19 16 14 15 16 17 18 18 18 17 18 19 20 20 20 20 20 19 18 17 16
1 1 3 1 3 1 2 7 5 6 12 8 9 7 4 7 12 13 20 27 31 27 27 25 24 23 20 19 16 16 15 16 17 18 18 18 18 18 17 17 18 17 16 16 15 13 13 13 12
5 3 4 3 3 5 2 6 2 5 12 3 6 4 7 10 9 8 15 31 33 30 29 25 21 21 17 15 15 15 17 17 18 18 18 18 18 17 16 15 14 13 12 12 10 8 9 8 8
3 4 2 3 2 5 1 3 1 7 6 13 6 6 7 18 17 21 28 34 37 31 28 28 29 18 18 17 15 16 17 17 18 18 19 19 19 17 14 13 12 11 10 9 7 7 7 5 5
5 3 3 6 7 2 4 4 3 10 6 4 3 6 16 25 21 22 25 23 23 30 30 21 20 19 18 17 17 17 17 18 19 19 19 19 17 15 14 12 11 10 11 10 8 6 5 4 2
4 3 7 4 3 5 6 5 3 0 2 7 17 21 29 26 26 28 30 27 27 26 24 28 21 19 21 19 19 19 19 20 20 19 18 17 14 12 11 12 12 12 10 7 5 2 1 3 5
4 7 6 1 9 16 11 5 5 6 4 10 22 28 29 30 29 27 26 19 33 30 28 27 23 19 18 20 20 20 21 22 20 17 15 14 12 10 10 11 10 9 7 5 5 3 4 5 7
4 17 12 19 16 10 6 5 2 3 6 19 25 19 27 30 29 31 17 18 28 24 23 19 21 19 19 20 20 21 22 20 18 16 13 11 11 10 10 10 7 9 7 5 5 5 6 6 9
3 6 9 24 21 14 9 6 3 2 11 15 20 24 33 36 39 20 15 22 28 25 24 20 20 21 22 22 21 21 20 18 17 14 12 10 7 7 7 6 6 6 6 6 7 8 11 12 13
7 17 19 15 13 13 7 3 3 4 13 14 17 25 37 41 30 26 25 32 28 25 26 24 21 23 23 23 21 20 18 16 15 13 12 11 11 10 8 7 8 9 9 10 11 12 13 13 14
3 12 8 4 4 5 8 2 3 6 23 24 22 32 39 35 36 25 34 33 31 29 27 25 27 25 25 22 19 17 16 15 15 14 12 11 10 9 10 9 9 9 10 11 12 12 11 13 11
3 4 4 5 11 5 16 4 5 8 22 22 24 30 34 34 38 30 33 31 32 34 30 30 29 27 22 20 20 21 20 17 15 12 10 8 9 9 9 8 8 9 9 10 10 12 13 13 15
4 3 4 2 5 3 3 4 6 16 17 22 25 34 38 39 35 37 37 36 34 30 32 35 32 31 26 26 24 20 18 16 12 11 9 8 9 9 8 7 7 7 7 8 11 13 15 18 18
2 3 2 5 6 2 2 6 5 15 23 24 28 34 37 40 41 40 39 36 32 31 35 34 35 31 28 25 22 21 22 17 12 10 7 8 10 10 8 7 6 6 7 10 12 14 15 17 19
8 12 6 6 11 7 12 6 7 16 23 24 29 36 39 42 39 41 41 36 32 31 29 30 30 29 26 26 24 24 22 17 14 12 11 13 11 9 7 5 5 8 9 10 12 14 16 19 22
8 9 7 9 4 15 5 11 5 10 18 30 33 36 37 36 36 41 41 39 35 31 29 26 26 24 25 25 24 22 19 16 13 13 15 13 10 7 5 6 9 10 10 12 15 16 18 20 22
5 5 6 7 4 6 5 2 5 3 10 19 25 40 43 44 43 43 42 40 37 35 30 25 25 24 25 25 24 21 18 15 18 18 16 13 11 8 6 7 10 13 15 16 16 18 20 22 24
12 9 12 5 0 1 2 3 2 8 12 11 24 27 36 40 43 41 44 42 40 36 31 26 25 23 22 26 25 22 22 24 21 16 14 13 12 9 8 11 11 14 17 19 20 20 21 24 25
11 3 2 7 3 3 3 3 6 4 7 9 22 33 42 44 47 43 43 39 40 36 33 30 27 24 21 26 25 18 18 17 15 17 17 15 11 8 7 10 13 15 17 16 17 19 23 27 26
4 4 6 6 4 2 4 5 5 6 11 15 16 35 36 40 42 41 40 35 31 28 27 30 25 21 22 28 23 19 17 18 20 22 21 17 14 11 13 13 15 15 16 16 19 23 26 27 25
3 5 2 3 3 5 6 4 9 4 7 8 10 16 30 37 43 40 38 34 32 32 34 27 22 22 26 24 23 21 18 19 20 22 23 21 20 19 17 15 11 14 17 19 23 24 25 24 25
4 3 5 3 3 4 4 4 6 7 12 13 18 18 13 31 40 41 38 33 32 27 28 23 23 27 24 25 23 23 24 22 21 20 22 22 18 12 8 6 16 18 24 27 25 24 23 25 25
3 2 6 5 1 3 3 4 6 6 7 9 7 11 15 24 37 39 37 34 26 24 24 26 26 25 24 25 26 27 21 21 19 20 18 17 8 7 11 14 18 22 23 25 25 26 26 26 25
6 5 2 3 2 3 4 4 5 2 2 1 4 13 17 25 29 30 30 27 24 24 27 25 22 24 28 31 26 25 23 22 23 25 25 20 16 15 18 17 17 22 23 24 26 26 26 25 24
1 2 1 4 5 4 1 5 5 8 8 10 11 18 24 28 28 27 26 25 25 26 25 23 26 26 30 28 28 28 25 26 24 19 12 11 8 15 15 22 20 23 25 27 27 25 25 24 25
4 5 5 5 4 1 4 5 4 9 10 14 18 23 31 30 28 27 27 28 30 30 29 28 32 33 33 33 34 33 29 25 24 22 14 15 11 9 17 18 20 25 28 26 25 25 25 26 28

GFSSGP_850_spd_057.txt.gz
Wind_Speed
2 1 2 0 3 5 4 6 3 8 2 4 7 2 3 7 2 3 13 30 24 30 30 35 31 28 28 26 27 23 18 17 16 17 19 19 22 23 23 22 23 24 25 25 24 24 23 23 22
1 2 2 3 4 1 5 5 5 4 5 10 8 2 5 4 4 4 26 26 29 29 32 33 31 29 27 26 25 23 19 16 16 18 20 21 23 23 24 25 25 27 27 27 25 24 23 23 22
2 2 1 3 3 3 4 3 6 5 5 0 2 8 5 4 6 19 10 26 32 29 32 33 32 29 26 24 24 21 18 15 16 19 20 21 22 23 24 26 26 28 27 27 25 22 21 22 21
3 3 2 3 4 5 4 6 7 2 4 9 5 5 5 4 3 13 18 27 29 28 30 30 29 29 28 21 21 20 16 15 16 19 21 21 22 23 25 26 26 26 26 26 24 20 17 17 18
4 2 3 2 4 3 3 5 2 3 4 6 3 3 4 7 3 16 26 27 26 28 30 29 27 27 28 22 19 19 16 15 17 20 21 20 22 24 24 24 24 23 23 21 19 18 14 14 13
3 3 3 3 4 2 3 4 2 2 10 4 12 6 3 9 11 17 29 24 24 28 29 28 27 22 22 20 17 16 14 16 18 20 20 20 22 23 23 22 21 19 18 16 14 13 11 11 12
6 4 4 2 4 2 3 1 3 5 4 5 9 6 5 12 7 14 20 23 23 24 29 30 25 21 21 16 11 11 15 17 18 19 20 21 22 21 21 20 18 16 13 12 10 10 9 10 10
5 4 1 4 3 4 1 2 1 3 4 4 2 5 6 18 9 9 13 26 24 29 30 28 25 23 27 14 13 14 16 17 18 19 20 21 21 20 18 17 16 13 10 9 8 8 7 5 4
6 4 3 5 2 3 4 3 3 3 2 3 3 8 19 22 16 21 26 29 31 28 26 27 35 26 17 15 15 16 17 18 19 20 21 20 19 18 16 15 13 11 9 7 6 5 5 3 5
4 4 7 6 3 5 7 5 3 4 5 7 18 22 25 25 26 27 29 25 29 30 32 26 30 21 18 19 18 19 21 20 20 22 21 19 19 16 14 14 12 10 7 2 2 1 2 4 6
4 5 6 5 7 10 8 2 1 4 2 9 25 29 28 24 23 24 25 25 34 32 22 25 30 21 21 20 19 19 20 21 22 21 20 17 16 14 13 12 10 8 4 2 3 2 3 5 7
3 11 11 7 11 10 6 3 3 1 2 16 21 26 27 26 23 22 21 21 30 26 27 36 22 17 17 18 19 20 22 22 21 19 18 15 14 10 9 10 7 6 6 7 6 3 5 6 9
3 6 7 12 13 5 6 6 4 8 16 25 25 22 29 26 27 23 21 28 33 34 31 27 19 20 19 19 21 23 24 22 20 18 16 12 11 8 7 7 8 8 9 9 6 5 7 9 10
4 15 8 12 8 4 2 2 3 9 21 23 26 25 28 24 30 23 22 30 30 26 26 23 20 22 21 23 22 24 22 20 16 14 11 9 7 7 6 10 7 9 11 8 7 8 9 10 10
5 6 5 2 5 2 2 1 3 6 23 25 25 27 30 29 28 24 20 29 33 26 25 24 23 23 23 24 23 23 21 19 15 13 9 9 8 8 10 10 9 11 10 8 8 9 9 10 10
4 4 3 5 2 3 7 4 4 22 27 23 26 27 31 37 28 24 27 28 29 27 27 24 23 24 24 24 23 21 21 16 15 12 12 12 11 13 13 11 10 10 9 8 9 9 11 12 13
2 4 2 3 9 2 4 2 7 23 22 21 25 26 32 36 29 22 33 31 28 26 27 27 26 24 24 23 22 23 21 17 16 15 13 12 13 13 11 12 10 8 8 8 9 12 13 14 15
2 4 1 5 1 3 5 7 4 23 21 20 25 28 30 34 32 28 32 33 29 27 27 26 26 26 27 24 25 23 22 21 18 15 13 12 13 13 12 10 8 6 5 8 11 12 12 13 16
3 4 7 8 12 9 9 5 5 17 19 15 22 27 33 33 31 31 30 30 29 32 34 32 30 29 28 27 28 26 25 23 19 14 14 14 14 13 11 9 5 5 8 10 11 11 11 15 20
2 2 7 9 6 8 5 9 5 8 13 28 29 30 35 35 34 36 34 34 34 34 33 33 32 31 31 31 29 28 24 21 16 15 13 13 14 12 10 7 7 8 9 10 11 12 14 17 21
3 4 5 7 6 3 3 4 5 5 9 22 28 38 38 40 39 39 41 39 37 39 35 32 33 34 35 31 29 26 24 20 19 19 17 16 15 13 11 9 9 9 9 11 13 16 17 18 20
5 6 4 2 2 3 3 4 4 7 11 12 22 30 37 43 43 42 44 42 44 45 38 32 33 35 34 30 29 29 28 25 25 21 18 17 16 13 11 10 10 9 11 13 14 15 16 19 22
6 3 2 2 3 1 3 3 5 5 8 14 22 28 40 46 47 47 46 43 44 44 41 36 35 34 31 28 29 30 28 24 19 19 19 18 15 14 13 12 11 10 10 10 14 15 17 21 23
3 4 5 3 2 2 3 3 5 5 15 15 21 30 40 46 44 46 46 45 45 43 42 39 32 31 30 29 27 30 25 19 19 20 21 18 16 16 17 15 13 9 8 11 14 19 22 24 23
5 5 3 4 4 5 4 2 8 5 7 8 15 31 39 45 46 46 46 46 46 44 39 40 35 32 29 27 27 27 21 17 18 18 20 21 22 23 22 19 14 11 10 16 22 23 26 24 23
2 6 5 4 2 4 3 4 6 5 9 5 17 30 37 39 44 45 46 45 44 40 40 38 29 32 28 28 26 24 22 19 19 21 22 26 27 27 23 17 16 13 18 18 18 22 22 23 22
1 2 3 6 3 3 3 6 9 7 3 4 8 17 20 32 39 44 42 43 39 37 35 24 22 24 25 25 25 25 23 25 28 27 25 28 29 27 18 14 12 15 16 17 20 20 21 21 21
4 4 3 2 2 3 4 4 5 6 7 0 5 14 19 24 31 38 40 37 37 32 28 24 24 23 25 26 25 26 27 30 29 29 33 32 27 16 20 17 14 13 14 18 21 23 22 21 21
2 3 3 4 4 4 1 5 6 7 7 7 4 10 16 20 24 26 29 34 34 30 27 24 24 25 28 27 28 29 31 33 32 32 31 30 27 26 16 22 13 9 15 20 23 24 22 22 22
4 7 5 4 4 1 4 6 4 9 8 9 13 9 11 17 18 20 24 28 30 29 28 28 28 30 30 32 32 33 33 34 32 30 28 21 17 17 15 6 8 14 19 21 23 22 21 21 23

GFSSGP_850_spd_060.txt.gz
Wind_Speed
1 4 3 3 4 4 3 6 3 7 3 4 1 5 10 8 2 3 7 24 30 31 31 32 29 27 25 24 24 23 20 18 16 15 18 20 22 24 23 23 23 24 24 23 23 23 24 24 22
3 5 3 3 4 3 5 4 4 2 4 5 3 7 2 7 7 2 18 19 30 31 32 34 31 29 27 26 25 22 20 17 16 18 21 23 24 24 25 27 26 26 26 25 24 23 22 21 20
4 6 2 4 3 3 4 5 4 4 7 3 4 7 4 3 6 11 11 23 30 30 32 33 31 30 29 27 24 21 19 18 18 21 24 24 25 27 28 29 28 27 26 24 23 21 19 18 18
4 3 5 4 2 5 6 6 3 3 3 5 6 6 5 2 2 9 16 22 26 27 30 30 29 27 27 25 22 20 17 19 20 23 24 25 27 29 30 29 28 26 24 22 20 19 18 17 16
5 2 4 2 4 4 4 6 5 3 3 2 6 5 4 5 2 10 17 22 22 25 29 28 28 27 27 24 21 19 17 18 21 23 23 25 28 30 30 28 27 24 22 20 18 17 16 15 14
1 3 4 0 4 5 4 6 1 1 2 2 4 4 4 8 9 16 21 24 24 26 28 29 28 28 25 21 17 17 16 18 21 21 22 25 28 29 28 27 25 24 20 16 15 14 14 14 12
4 4 2 1 4 5 3 4 1 1 0 0 4 4 5 12 7 19 20 22 23 22 26 31 31 31 25 29 15 15 15 16 18 20 22 25 26 27 25 22 20 18 17 14 12 12 11 10 9
3 4 2 3 2 6 2 1 1 3 2 3 2 5 5 12 11 18 19 19 20 20 27 26 27 32 33 22 14 11 8 16 19 21 24 25 25 24 21 18 16 14 14 13 10 7 6 6 6
2 4 2 4 3 4 3 1 1 1 4 6 4 10 15 15 13 18 18 16 23 27 28 29 31 34 34 30 15 14 16 18 20 22 23 23 23 21 18 16 14 12 10 9 8 7 5 5 6
4 3 7 5 4 4 3 3 3 1 4 7 11 12 20 15 15 21 21 28 30 26 23 31 37 38 33 21 14 16 19 21 22 23 23 21 20 18 16 14 11 9 7 5 4 3 3 5 8
5 6 6 8 12 7 5 0 2 3 2 8 15 21 20 20 20 23 29 28 23 20 22 34 31 33 21 18 19 20 22 23 23 22 22 20 18 16 14 12 10 7 4 3 1 2 3 5 8
3 9 6 1 9 7 6 4 2 4 4 7 11 21 24 19 19 27 26 26 34 26 29 32 38 30 20 17 19 20 21 23 24 23 21 18 15 14 12 11 10 5 4 3 3 3 4 7 10
2 4 2 6 10 6 8 2 4 2 5 17 17 19 20 18 19 20 29 40 32 43 43 36 26 19 18 17 18 21 23 23 22 21 19 16 13 10 10 10 9 6 6 6 6 4 8 11 10
2 5 3 5 4 3 5 3 2 5 16 19 16 16 15 15 20 17 21 33 30 35 37 30 21 18 18 20 21 22 24 23 20 17 15 13 11 9 9 10 9 6 8 8 6 6 7 8 9
4 4 4 2 1 2 2 2 3 16 19 20 13 16 19 19 21 22 21 24 28 26 30 25 18 17 16 19 20 22 23 21 18 16 13 11 11 11 9 9 8 9 10 9 7 7 7 8 9
3 4 4 1 2 2 1 5 2 19 22 16 17 17 22 25 24 22 24 23 26 24 25 21 19 19 19 21 22 24 21 19 16 15 12 10 9 9 9 11 10 10 9 9 8 7 8 8 7
5 1 2 4 6 2 2 3 4 22 22 17 18 21 26 25 27 21 21 23 28 25 25 23 21 20 22 22 22 21 20 19 17 14 12 10 11 13 12 12 11 11 10 7 6 7 8 7 9
2 2 2 4 4 3 2 7 5 20 21 22 20 21 25 28 33 24 21 24 29 25 23 23 22 21 21 23 22 22 21 21 17 15 12 13 14 13 13 14 12 10 8 6 7 7 7 7 10
5 4 2 4 6 3 8 7 8 18 14 18 23 23 27 30 31 27 22 26 27 28 26 26 24 24 25 25 25 25 24 22 19 17 15 14 13 15 15 13 11 9 7 5 5 5 6 10 15
2 2 4 6 2 5 5 7 4 12 18 25 29 29 29 27 28 32 30 29 33 30 27 26 25 25 27 26 26 24 22 22 19 18 17 16 16 16 14 12 10 8 6 4 4 5 9 13 16
3 4 3 5 3 2 1 5 4 7 15 22 27 31 31 32 30 31 33 33 34 32 30 28 27 26 28 27 27 25 25 24 23 22 21 19 18 16 14 13 10 8 7 6 5 8 11 14 16
5 5 3 4 0 1 0 3 5 5 8 9 23 30 34 34 33 33 34 36 37 34 31 30 31 31 32 32 31 30 30 30 28 24 19 19 20 18 16 14 10 10 10 7 7 12 13 16 19
8 4 5 3 1 3 2 3 7 3 6 12 17 29 38 38 38 38 39 40 39 36 33 32 33 33 35 34 33 33 33 29 22 18 20 21 21 19 16 15 14 14 12 7 7 10 15 20 22
0 3 4 4 3 1 2 4 5 5 8 6 7 26 37 39 41 41 40 39 39 38 35 35 37 36 36 35 37 36 35 26 24 22 22 24 23 20 18 18 17 16 12 11 8 16 20 20 19
3 5 3 4 3 5 2 1 9 1 5 9 12 30 41 41 42 43 43 42 40 40 35 36 36 39 38 36 39 39 30 27 25 21 22 24 23 23 23 24 25 24 18 17 10 12 16 19 20
1 5 4 2 2 4 5 4 5 4 8 9 14 24 36 38 42 43 45 45 44 40 38 39 38 34 38 40 38 31 27 23 19 19 20 23 24 25 26 26 24 18 21 19 15 20 16 19 19
2 2 3 6 2 2 4 7 9 4 4 6 5 7 20 31 40 44 44 44 44 42 40 40 40 36 34 34 28 28 28 24 23 22 24 24 26 30 31 31 29 18 27 17 17 12 19 19 18
1 6 3 3 1 4 4 5 5 8 6 6 8 7 5 14 24 33 40 42 42 40 38 35 37 30 25 29 30 29 23 24 25 27 29 29 30 32 31 24 24 20 19 16 10 13 17 17 16
3 1 4 4 4 4 1 5 7 7 5 3 4 6 8 11 16 22 29 33 36 36 34 31 30 28 25 22 24 24 26 28 30 30 31 31 30 31 24 23 21 19 13 7 11 15 16 17 16
5 8 6 4 4 1 3 6 5 9 6 5 7 6 5 7 10 15 18 22 28 29 27 29 28 24 23 24 25 28 30 32 32 33 32 28 27 22 24 19 15 12 7 11 15 16 17 17 17

GFSSGP_850_spd_066.txt.gz
Wind_Speed
4 3 2 3 7 6 13 1 4 7 6 7 4 10 9 12 6 2 5 19 23 28 30 33 33 32 33 33 32 30 29 26 23 21 18 17 19 21 21 21 22 24 24 24 24 21 20 20 20
3 2 2 4 7 9 6 3 5 2 4 3 3 5 8 7 2 1 8 17 25 28 29 31 34 34 34 34 34 31 29 25 23 21 20 21 23 23 22 22 23 23 23 23 22 21 19 19 18
2 4 7 4 5 10 6 3 8 9 5 8 4 5 13 3 3 3 7 22 32 31 31 32 36 36 35 35 33 31 28 25 23 23 24 25 24 24 24 25 24 24 24 22 21 19 18 18 17
2 3 4 8 9 6 7 9 8 4 6 4 3 5 5 2 2 6 11 20 35 30 33 36 36 35 35 34 32 29 26 25 25 26 27 26 26 27 27 27 25 24 23 22 20 18 17 16 14
3 4 6 6 5 3 7 7 5 5 2 1 2 5 3 2 3 6 17 19 29 33 31 37 36 36 36 34 32 29 27 27 28 28 28 28 29 29 28 27 26 23 21 20 19 18 16 14 12
6 4 7 5 1 1 4 4 5 3 3 2 1 4 3 4 4 6 13 17 27 19 29 33 33 35 37 35 31 28 28 30 31 30 30 29 29 29 28 26 24 22 20 19 18 17 14 11 10
8 5 5 6 5 4 3 1 3 3 3 1 1 1 1 6 10 9 12 14 20 23 25 29 27 30 30 30 28 29 30 30 30 31 30 29 29 27 26 24 22 20 19 17 16 14 12 11 9
3 4 4 4 3 5 3 2 1 4 1 1 1 2 5 13 10 13 12 14 20 29 33 34 30 36 37 33 22 24 27 28 29 30 31 30 28 25 23 21 19 17 17 16 14 13 11 8 8
4 6 4 3 4 2 1 4 2 2 2 3 3 3 1 14 14 12 12 13 20 27 30 35 31 31 36 39 37 24 25 26 27 28 30 29 27 23 22 19 17 15 14 13 12 10 8 6 6
8 6 3 3 4 8 4 7 3 4 3 4 2 2 6 13 12 14 16 16 17 23 30 35 35 33 39 43 42 27 22 25 25 29 29 26 25 18 19 17 14 13 12 11 10 8 6 6 6
4 10 5 8 10 11 8 7 3 5 5 4 3 8 11 13 13 16 14 16 24 28 31 34 34 42 42 41 41 33 32 26 26 29 27 25 24 21 18 17 15 14 12 11 9 6 4 3 6
8 8 11 10 8 7 7 2 3 5 5 6 2 10 11 10 12 12 15 18 26 33 35 37 37 39 40 39 37 30 23 24 28 29 28 26 24 21 17 16 15 14 12 10 7 4 1 3 7
8 6 5 4 2 3 2 2 4 3 5 8 10 10 9 9 11 12 14 20 27 28 29 32 39 35 36 42 36 24 25 26 27 26 26 25 21 19 17 16 16 14 11 9 7 4 2 5 10
1 2 1 4 5 3 5 2 4 6 7 10 11 8 7 7 9 13 19 27 21 27 36 35 35 35 30 23 22 24 24 24 26 26 24 21 19 18 16 15 15 13 11 10 9 3 4 5 7
3 6 5 4 3 1 5 10 4 5 8 10 10 9 6 6 8 16 19 20 22 24 27 37 35 27 19 17 18 19 17 22 24 24 23 20 19 16 17 16 15 14 14 10 7 6 8 7 7
6 5 7 8 5 1 4 6 5 7 12 11 10 10 9 11 15 19 16 18 22 28 30 25 18 19 18 15 20 19 20 23 24 23 22 21 18 18 17 16 16 16 12 11 9 7 7 5 1
7 5 3 4 7 1 5 9 6 7 10 12 11 13 14 15 15 18 18 23 27 28 24 20 15 15 15 14 14 16 19 22 22 24 22 20 19 18 17 16 15 14 13 12 10 9 5 3 2
7 8 6 8 5 7 10 10 3 8 11 12 12 15 16 19 20 18 20 22 25 24 20 18 16 14 14 15 16 18 20 19 20 22 21 19 19 17 17 16 15 16 15 14 12 9 7 5 3
7 5 5 6 2 7 6 10 2 9 12 13 13 16 18 19 18 20 21 25 27 24 23 21 19 16 15 17 17 18 19 19 20 23 22 20 21 20 19 18 18 18 16 15 13 10 7 4 7
8 7 7 3 1 8 7 7 4 10 12 13 16 17 19 20 21 22 23 24 25 26 26 23 21 18 17 17 18 17 19 18 19 23 23 24 24 19 18 20 19 19 18 17 14 11 8 5 8
10 9 5 7 9 4 7 7 6 7 11 12 14 15 17 20 23 25 26 26 25 27 27 25 22 20 20 18 17 16 16 16 19 25 26 25 21 20 20 20 20 21 19 18 16 14 12 8 8
9 4 10 8 6 2 2 2 4 7 10 13 17 19 20 20 21 24 28 29 28 27 26 27 23 22 22 23 19 20 19 18 18 23 23 23 22 22 22 22 24 22 22 20 18 17 13 13 6
4 1 5 6 8 5 6 7 7 5 8 13 18 22 23 24 25 27 29 29 28 25 26 26 26 24 23 24 25 23 22 19 19 22 23 24 24 25 25 26 26 25 24 22 20 20 19 14 15
7 5 3 3 4 6 2 5 2 1 4 2 3 19 25 26 27 28 26 25 27 27 27 27 27 26 26 28 29 28 24 22 26 27 26 26 26 29 28 27 27 26 26 26 25 24 19 13 18
9 7 5 5 5 3 4 5 7 5 2 7 8 7 12 26 28 28 27 27 28 29 29 30 29 29 28 30 28 27 25 24 27 28 30 28 27 32 31 29 29 31 30 28 27 24 17 17 17
14 10 4 6 5 4 3 5 2 1 5 7 7 9 9 15 26 29 29 29 29 30 30 32 32 31 31 29 28 26 22 16 28 32 34 30 29 30 29 30 32 33 32 31 27 20 20 19 16
6 8 1 1 2 2 4 5 11 3 4 1 3 3 2 7 16 22 26 27 28 28 31 35 33 28 28 30 27 24 26 26 32 31 33 29 30 29 32 32 34 32 33 27 24 20 20 15 14
6 10 5 4 4 6 5 5 5 1 5 1 2 6 4 1 5 11 17 23 24 24 24 26 28 26 24 27 30 30 31 24 26 29 30 30 29 29 29 32 34 35 22 27 24 20 14 14 13
6 8 4 2 3 4 3 4 2 4 2 2 1 2 3 2 1 5 8 12 15 18 19 20 23 22 21 21 25 27 28 28 24 27 26 31 29 29 23 28 28 22 24 23 16 12 13 12 12
9 12 14 7 8 4 4 8 9 10 5 6 6 7 5 3 2 3 5 7 10 13 14 15 15 17 17 17 17 20 20 23 21 17 19 26 30 30 32 25 20 21 18 16 10 16 9 13 14

GFSSGP_850_spd_069.txt.gz
Wind_Speed
6 5 5 10 8 8 15 17 5 8 9 36 7 16 24 24 3 2 11 11 17 26 28 30 28 30 33 34 33 30 27 24 23 21 19 16 17 20 22 23 24 24 23 23 22 22 21 21 21
2 6 8 15 9 13 9 11 1 3 8 26 22 12 23 22 26 6 6 4 19 25 28 28 29 31 34 35 34 31 28 25 23 20 18 18 21 22 23 25 24 24 24 22 22 21 21 20 20
4 7 14 11 13 13 5 4 5 10 10 6 13 12 12 10 4 5 9 10 20 28 26 29 31 31 34 35 34 31 28 25 23 20 20 23 24 24 25 25 25 24 23 22 20 20 19 18 18
4 9 12 9 17 9 6 12 10 10 15 10 13 6 5 2 7 7 9 12 22 28 31 31 34 33 35 36 33 30 28 25 22 23 24 25 26 25 26 26 25 24 23 21 19 19 17 16 16
7 13 11 14 12 2 6 8 6 7 14 8 7 14 10 7 13 7 11 15 23 26 32 32 36 34 36 37 34 30 27 25 25 27 27 26 27 27 27 27 26 24 21 19 19 17 15 14 13
15 7 13 10 3 4 2 8 10 2 8 6 18 12 13 8 5 7 11 13 18 28 24 28 32 34 34 34 33 30 27 26 28 28 27 28 28 28 27 25 24 22 20 18 17 15 13 11 12
14 10 15 10 9 6 6 3 8 10 3 9 14 12 7 4 4 6 9 15 22 19 22 27 29 28 32 30 29 30 29 29 29 29 29 30 29 27 25 23 21 19 18 17 15 12 11 9 10
12 7 17 7 6 2 2 6 2 7 11 7 6 8 1 8 8 7 7 12 20 15 24 34 29 27 32 27 27 27 30 30 29 28 30 29 28 26 24 21 20 18 17 15 13 10 8 8 10
10 12 10 5 5 5 3 9 10 3 10 4 6 8 7 3 6 6 6 6 19 17 24 34 33 40 35 36 24 25 24 25 26 28 29 29 27 24 23 21 18 16 15 14 12 9 7 7 8
11 13 6 7 10 8 9 12 12 4 8 11 4 2 1 4 3 6 9 18 23 23 25 32 29 39 42 39 35 25 26 25 27 28 28 24 24 18 22 19 16 14 14 12 10 8 8 10 9
12 11 14 6 4 10 10 9 5 13 14 13 13 5 3 4 5 9 15 17 20 25 29 31 27 32 35 40 40 34 32 30 28 29 22 22 20 19 20 18 16 15 13 12 11 8 7 5 2
10 14 8 13 8 10 10 4 12 6 12 8 6 4 5 4 3 5 10 21 18 26 29 31 34 36 39 41 38 34 32 31 27 26 18 21 18 16 18 17 16 16 11 11 8 7 4 1 3
11 9 8 6 8 9 5 9 6 5 4 5 7 6 4 3 3 6 7 22 26 27 30 31 34 41 42 40 43 42 31 27 23 25 20 17 16 14 14 13 13 12 11 11 9 7 3 3 3
4 9 7 6 5 7 9 8 11 10 7 6 6 6 3 3 4 5 7 20 30 34 34 33 37 34 36 36 34 33 34 29 26 27 24 18 17 17 13 14 13 14 12 10 9 7 3 4 1
14 15 10 17 8 1 9 11 12 13 10 10 8 8 7 5 6 9 17 26 24 27 34 30 29 27 32 34 38 30 19 18 19 18 20 20 14 15 13 14 14 13 12 12 11 9 7 4 3
15 20 14 11 20 3 11 5 31 11 11 11 10 9 12 16 17 19 15 14 26 33 31 29 34 36 26 23 22 16 19 19 19 18 16 16 18 17 16 17 18 16 14 12 12 8 7 6 4
16 12 15 10 6 6 4 3 7 8 8 9 10 13 11 16 15 14 20 20 20 25 36 37 32 21 18 19 17 18 19 18 17 18 20 20 20 19 17 17 14 17 13 14 12 9 8 7 6
4 12 3 10 7 10 8 10 3 7 9 11 10 12 13 16 17 17 19 24 29 31 29 22 19 18 18 17 18 17 16 16 15 16 16 19 19 20 17 15 16 16 15 13 12 11 9 8 7
11 10 11 7 5 6 2 15 7 11 8 10 13 15 15 17 18 20 22 23 25 27 24 21 18 17 16 15 16 16 17 18 17 19 20 20 20 20 19 15 18 17 14 14 16 14 13 8 8
10 12 11 7 1 7 12 5 8 12 15 15 16 18 18 19 22 22 25 28 27 27 22 21 19 17 15 15 16 16 17 18 18 20 20 18 20 21 21 18 19 18 15 16 17 15 11 9 9
11 12 10 8 9 10 10 6 9 11 12 14 17 18 21 23 23 25 26 28 28 27 25 23 20 18 18 16 16 16 17 16 18 19 19 23 22 20 21 22 20 19 17 17 18 17 14 11 9
13 10 7 11 13 2 15 3 18 15 14 14 17 20 22 24 24 25 26 28 29 28 26 25 23 21 20 21 19 19 18 19 18 20 20 21 21 23 22 23 22 22 21 19 19 17 15 14 14
13 1 8 11 11 14 5 8 9 12 13 17 17 21 22 23 25 27 29 30 29 28 28 26 25 24 23 23 22 20 20 19 16 19 18 20 23 22 25 23 22 25 25 23 21 18 16 19 11
6 7 10 10 12 9 12 6 12 9 5 6 14 22 22 24 25 26 28 28 29 29 29 27 28 27 25 24 25 24 22 21 19 21 20 20 22 23 26 26 30 28 26 22 20 19 20 20 14
10 12 7 6 6 9 5 5 12 1 5 2 4 6 15 23 26 28 28 29 29 30 30 28 28 29 28 27 26 27 26 23 24 24 24 26 28 26 28 29 32 30 27 21 19 23 25 18 17
16 15 6 7 7 8 9 6 1 5 2 4 4 7 8 14 26 31 30 30 30 30 30 29 29 29 29 29 29 27 26 24 24 25 25 26 25 26 27 28 33 31 23 23 22 27 19 18 18
14 16 12 7 3 4 7 8 9 4 4 2 1 3 4 7 16 26 30 30 29 29 31 34 30 28 28 29 27 26 25 25 26 26 27 26 26 29 25 27 29 28 24 26 34 24 20 23 22
12 12 9 8 9 9 13 9 6 7 3 5 3 4 4 1 6 14 22 27 28 27 28 29 28 28 27 27 27 24 24 26 28 27 23 24 23 24 27 28 24 23 30 31 21 19 24 25 18
12 11 9 10 12 7 8 6 8 2 4 4 3 1 2 3 4 7 13 19 24 25 25 26 26 26 26 25 24 23 21 23 23 24 22 21 20 20 23 21 23 31 31 24 21 21 20 14 17
18 19 18 9 13 9 9 11 11 6 11 4 8 6 5 3 2 5 7 11 15 19 21 22 22 23 23 22 22 21 21 24 21 23 22 18 19 21 25 23 26 18 16 20 24 16 16 19 17

GFSSGP_850_spd_072.txt.gz
Wind_Speed
8 7 6 12 7 8 17 17 14 11 10 3 10 2 16 14 8 4 17 17 44 41 29 29 32 35 35 34 33 30 27 25 23 21 18 16 17 20 23 25 25 24 25 24 24 25 25 24 24
6 7 11 16 10 14 9 5 13 11 4 5 13 16 15 6 6 2 3 8 16 18 27 29 27 34 35 35 33 30 27 25 23 21 18 18 21 23 25 26 25 24 25 24 24 24 24 23 23
5 6 13 11 13 15 8 7 9 16 14 19 9 10 10 6 7 5 3 6 15 21 23 28 27 29 33 34 32 30 26 25 23 21 20 21 24 25 26 26 25 23 24 24 24 23 22 22 23
5 14 13 11 16 16 6 8 12 20 12 15 12 15 5 10 3 5 4 6 19 24 25 29 30 32 33 34 32 29 26 25 23 21 23 25 26 27 26 26 25 23 24 24 23 21 19 19 21
12 15 12 16 16 14 5 10 11 16 8 9 20 8 12 5 9 2 6 14 18 26 22 26 30 32 34 34 32 29 27 25 22 23 26 27 27 27 27 26 25 23 22 22 20 19 17 17 17
16 21 14 12 6 12 8 11 11 14 18 17 15 8 8 15 9 4 6 12 15 27 13 23 25 28 33 34 33 31 28 25 24 26 28 28 29 28 28 27 24 23 21 20 18 16 15 16 15
14 12 16 17 14 4 8 20 19 10 11 6 4 7 6 20 3 0 5 13 8 23 11 22 9 22 36 36 32 29 26 25 27 28 28 28 28 27 26 25 23 22 20 18 17 15 14 14 13
17 12 20 14 18 6 4 5 8 16 17 5 11 4 12 12 2 5 4 8 18 21 16 26 23 22 27 30 29 28 27 27 28 29 29 30 29 28 26 24 22 21 19 17 15 13 12 11 12
14 11 10 13 15 7 1 10 8 14 18 21 5 12 15 9 5 2 2 6 13 16 16 20 28 22 26 25 25 23 25 25 25 28 29 29 29 26 25 21 20 19 17 16 13 10 9 10 11
10 10 4 16 10 10 11 10 5 3 19 23 33 16 16 12 7 10 8 7 11 12 16 23 26 31 33 32 29 25 23 24 25 27 27 26 26 24 23 20 19 17 16 14 11 9 12 11 9
16 12 14 15 14 12 12 11 2 16 4 11 8 11 13 8 8 5 10 13 19 25 24 24 28 30 37 33 39 40 38 25 26 27 25 26 22 22 21 21 19 17 14 13 11 10 8 9 6
12 13 14 15 16 16 11 14 7 18 10 8 13 15 14 9 5 5 8 12 13 20 29 35 35 36 39 39 34 34 36 31 31 26 21 19 17 19 20 19 17 15 14 13 11 8 6 4 2
9 12 12 11 10 15 17 10 16 11 3 8 9 12 14 11 8 8 8 13 13 23 26 29 33 36 39 37 37 35 32 35 31 26 22 18 17 17 18 16 17 16 11 12 10 9 6 2 2
16 11 16 8 24 19 12 16 6 23 8 7 6 11 12 11 4 5 8 20 23 22 28 31 36 36 39 40 37 40 39 35 30 31 25 17 15 11 12 12 13 12 13 11 12 8 4 1 3
16 14 8 8 8 20 23 15 8 19 18 12 10 13 13 10 5 7 13 19 23 28 31 29 27 32 35 38 38 36 39 32 35 28 21 18 13 16 15 14 13 17 14 13 10 8 6 6 4
16 17 12 17 15 21 24 8 4 17 31 26 16 18 18 17 14 15 19 22 22 24 27 25 28 29 32 34 34 33 35 29 24 26 27 23 19 17 17 18 20 18 16 17 14 12 10 9 7
14 15 15 8 16 19 12 8 15 19 33 23 20 20 20 23 15 16 19 22 28 26 25 27 27 29 30 31 36 34 30 25 17 17 18 19 23 20 23 21 18 18 19 16 13 12 12 12 9
5 12 9 8 11 9 14 7 3 24 39 12 23 25 22 22 21 20 18 20 25 24 33 39 36 31 29 32 28 25 21 20 21 23 26 24 25 25 23 18 16 18 18 16 17 15 14 13 10
12 14 16 5 17 6 10 6 12 8 8 11 15 15 19 19 24 24 24 19 26 38 41 32 28 23 23 26 25 23 27 28 27 32 30 26 24 23 21 17 17 19 19 18 16 18 17 17 18
12 11 15 9 9 2 10 6 9 10 8 14 16 15 19 19 21 24 29 30 36 38 29 22 17 20 23 23 22 24 23 22 21 21 26 24 24 24 21 20 21 20 21 18 20 21 21 17 15
10 13 14 11 6 12 13 13 7 14 17 17 20 20 22 24 27 29 32 34 33 30 29 27 28 20 19 19 23 23 21 21 22 26 27 25 24 22 21 20 23 22 22 23 25 22 20 16 19
13 9 14 9 10 7 8 9 15 12 12 12 20 26 25 25 32 32 33 36 37 31 26 28 29 29 20 23 27 26 26 27 26 26 26 23 26 24 22 22 24 25 22 24 27 22 23 21 20
13 8 9 11 12 14 9 10 4 7 18 16 13 26 30 30 30 37 37 37 40 35 33 29 30 27 28 24 24 27 24 23 24 25 26 24 23 25 25 26 27 30 26 27 30 26 24 23 24
14 13 10 12 12 10 14 8 6 4 11 15 19 23 29 36 32 32 35 35 37 36 36 34 31 30 28 32 27 24 25 25 24 24 26 28 26 26 24 24 30 28 27 29 31 25 24 28 26
11 10 7 6 7 7 3 9 5 16 14 2 2 24 26 31 35 37 37 38 38 39 39 37 36 35 32 31 31 32 28 27 26 25 30 27 27 26 25 27 33 30 29 32 31 27 27 31 29
14 14 5 6 4 4 4 6 3 11 11 6 5 5 12 19 29 34 33 40 40 40 41 41 39 39 36 36 33 31 31 30 27 29 29 29 28 29 27 25 28 31 31 32 32 27 31 35 28
14 15 17 7 10 5 7 13 10 8 5 4 3 1 9 14 15 24 33 35 40 41 42 42 39 38 38 38 39 35 33 32 33 30 34 31 27 28 27 22 21 29 30 30 28 30 31 30 22
17 11 13 8 5 10 8 10 8 9 7 7 6 7 7 1 7 14 24 33 36 37 40 40 37 37 35 34 36 37 37 33 30 33 31 29 28 27 23 24 26 26 29 30 28 32 31 25 25
12 12 10 13 10 8 5 3 10 4 2 8 5 9 4 6 5 5 9 15 32 34 35 39 38 35 30 32 35 35 33 30 31 33 33 29 26 20 23 26 25 24 28 31 31 24 20 23 23
17 16 16 8 10 7 6 9 3 5 3 5 3 6 7 7 5 6 7 10 13 19 20 30 32 30 28 29 33 34 33 30 31 31 28 27 26 20 18 18 19 23 22 22 23 25 24 22 17

GFSSGP_850_spd_075.txt.gz
Wind_Speed
5 4 5 7 3 2 7 10 11 11 4 6 10 12 6 5 2 4 5 3 19 21 18 18 27 31 32 34 33 32 30 27 25 22 20 21 25 27 28 28 28 30 29 29 29 28 29 31 30
3 3 8 6 2 3 8 10 6 9 9 18 16 20 15 2 7 6 2 6 7 23 36 23 29 32 32 33 32 32 29 27 25 22 20 23 27 29 29 28 29 30 30 30 29 28 28 29 29
2 4 3 3 4 9 6 4 4 9 34 21 13 17 9 10 15 15 13 8 7 14 26 42 26 34 35 35 33 32 30 28 25 21 22 25 28 31 28 28 29 30 29 28 27 27 27 29 28
1 3 7 2 13 16 13 4 1 4 14 22 12 5 16 14 20 13 15 11 9 10 14 35 46 44 39 39 36 33 31 29 26 23 26 29 30 31 29 29 29 29 28 27 25 25 26 27 26
5 6 2 6 13 19 4 3 4 6 5 4 11 4 17 16 13 12 14 7 9 15 15 16 42 43 42 40 38 35 33 30 26 26 29 30 31 31 29 29 28 27 26 25 23 23 23 24 24
5 4 5 11 16 14 3 10 11 11 8 5 4 6 7 15 16 10 12 7 12 14 18 21 32 28 40 42 38 35 32 30 28 30 32 32 32 31 29 29 28 26 24 23 21 21 20 20 22
9 2 7 11 14 3 2 6 3 3 13 5 15 2 5 12 7 13 10 9 6 13 7 2 22 29 30 45 42 38 33 30 29 31 32 32 31 30 28 27 26 24 22 21 19 19 18 18 21
20 3 9 8 7 7 5 4 5 4 9 25 16 11 25 2 2 10 11 6 9 9 14 21 29 22 23 44 43 38 34 30 32 32 32 31 30 29 28 25 23 21 20 19 18 17 17 17 20
21 3 7 9 8 6 4 3 4 5 5 9 5 4 10 6 5 5 5 6 15 14 21 22 23 18 1 25 30 31 30 30 31 31 32 32 32 30 27 24 22 20 18 17 15 15 15 15 15
5 3 10 11 7 4 10 10 7 3 6 6 3 2 7 4 6 5 3 2 10 13 12 20 22 24 29 27 22 24 26 29 30 31 31 32 31 29 26 22 20 19 17 15 14 14 12 12 10
17 8 9 13 17 14 11 10 5 12 2 5 6 10 7 9 7 7 7 5 10 17 18 18 25 26 23 29 33 32 28 28 28 29 30 30 29 27 22 21 20 18 17 14 12 11 7 8 8
5 21 9 12 11 17 11 22 7 31 9 12 11 12 10 8 6 6 10 8 8 17 24 26 24 24 29 37 37 38 38 32 28 27 26 27 27 24 22 21 19 17 15 13 12 7 6 5 3
8 6 9 5 9 12 21 11 3 11 11 18 9 10 7 3 6 8 12 13 21 22 23 32 39 43 41 36 38 41 42 32 30 28 26 24 23 22 20 18 17 16 14 13 10 7 6 5 4
21 15 8 4 10 11 5 8 6 3 10 23 6 12 6 3 5 9 10 12 15 17 26 29 31 35 39 39 42 44 39 34 31 30 23 19 18 18 18 17 16 15 13 15 10 8 7 4 3
20 8 9 4 6 5 6 8 3 3 7 18 5 9 6 8 5 9 16 16 20 24 28 28 30 35 37 39 41 44 40 36 34 31 24 18 16 14 17 15 15 16 14 13 11 10 8 4 3
9 7 6 10 6 9 7 10 2 4 21 18 8 14 15 13 8 10 14 16 22 19 25 28 31 31 37 41 42 47 47 43 39 32 29 23 16 15 16 14 14 15 18 16 14 12 9 8 6
6 10 12 15 11 4 6 3 6 7 17 11 22 15 21 20 15 15 17 17 19 22 28 29 30 34 36 37 38 43 45 36 32 38 33 26 19 20 20 18 18 22 22 20 17 15 14 13 10
9 6 5 6 6 9 10 7 8 13 17 23 23 26 27 22 20 18 19 20 24 26 26 26 27 26 27 28 28 33 39 35 35 39 25 22 24 23 24 23 22 25 23 21 20 19 16 14 11
17 14 8 5 1 4 9 6 10 15 13 15 21 27 30 27 23 16 18 24 24 20 25 28 31 29 28 31 32 35 37 33 28 23 23 24 25 29 24 23 24 24 25 24 22 19 18 19 17
20 6 7 7 7 5 5 6 7 10 15 20 27 29 31 31 28 24 21 27 28 35 36 35 33 33 35 37 36 33 28 27 26 24 26 27 27 25 28 28 27 26 24 23 23 23 23 22 23
6 5 7 7 6 4 3 5 4 5 13 26 30 33 37 38 35 31 28 31 37 39 34 29 27 28 29 31 29 26 24 23 27 30 31 32 32 28 28 26 27 26 24 25 26 26 25 25 25
5 9 9 6 5 2 3 4 4 6 8 11 22 30 34 36 37 35 32 32 38 35 30 27 26 27 25 26 28 30 31 35 33 34 34 33 29 28 29 28 26 28 28 27 29 29 25 24 27
8 7 1 3 6 5 2 2 7 8 11 10 19 31 37 40 40 41 38 34 38 32 30 29 30 28 26 28 27 30 31 29 28 29 31 32 30 27 29 30 27 29 29 26 28 30 30 27 27
5 4 6 2 1 4 8 4 6 6 13 13 20 33 41 40 42 42 38 38 38 34 31 31 32 32 29 29 30 31 37 33 33 31 35 34 33 30 29 30 29 28 30 30 33 30 33 34 32
6 3 2 4 1 6 3 5 10 9 7 5 18 33 38 41 45 44 44 44 40 38 36 35 35 39 37 35 32 36 38 37 33 36 38 37 35 34 32 28 29 27 28 34 33 32 36 34 33
7 8 5 6 2 3 8 3 6 8 5 12 14 34 36 40 44 45 49 49 47 40 40 42 41 40 43 40 39 38 38 38 36 34 35 35 35 33 25 22 24 23 25 30 34 35 38 33 27
4 6 10 5 2 3 5 7 5 6 6 8 5 7 33 42 46 45 46 50 48 44 42 42 44 44 42 42 42 41 41 41 37 37 37 35 32 29 27 24 20 19 23 32 35 35 30 26 29
10 4 4 2 7 5 5 2 3 6 2 6 6 12 11 11 25 42 43 48 49 48 43 43 44 45 44 43 45 43 41 39 40 36 36 38 33 30 29 20 22 20 23 27 33 29 31 30 29
5 9 3 2 5 6 2 5 5 6 7 8 7 17 15 11 7 10 12 48 47 50 48 46 46 50 47 42 43 44 44 42 37 38 36 35 30 30 27 22 18 21 22 21 22 29 28 28 26
17 9 9 5 5 4 5 5 6 7 3 8 12 16 18 21 16 7 7 2 37 44 47 47 46 45 37 39 41 43 42 43 36 30 36 25 31 23 22 18 19 19 19 20 23 25 25 22 20

GFSSGP_850_spd_078.txt.gz
Wind_Speed
2 3 3 3 3 4 4 7 5 6 4 4 8 3 3 8 3 3 1 5 20 30 29 35 34 24 27 30 34 36 33 31 29 27 25 27 29 30 30 32 32 32 30 29 30 29 28 26 23
0 2 2 1 4 2 5 3 4 2 5 4 2 5 4 4 7 2 3 7 22 27 24 30 29 28 24 30 32 33 33 31 30 27 28 31 33 32 34 34 32 32 31 29 29 28 27 24 19
1 2 1 3 3 5 4 4 6 7 2 4 2 3 4 1 5 1 5 3 11 23 19 29 35 27 34 32 34 33 32 31 28 28 32 33 34 34 35 35 34 32 30 29 29 29 28 22 17
1 1 2 3 7 10 6 16 8 5 4 5 4 4 5 1 11 10 9 7 9 15 30 32 35 38 46 43 37 35 34 32 30 32 35 35 35 36 36 36 35 33 31 29 30 28 25 17 15
2 0 3 3 7 8 13 17 12 5 1 6 10 4 3 10 16 12 12 7 9 11 32 35 34 26 36 40 41 39 36 33 31 35 36 35 36 37 36 36 33 31 30 29 29 29 24 17 16
2 1 2 3 7 8 8 12 8 5 3 3 2 1 6 15 10 1 7 7 4 4 26 33 25 24 39 52 46 42 38 34 34 37 38 38 36 36 36 35 32 30 28 27 26 26 24 19 15
5 4 4 5 12 11 5 3 5 6 7 3 8 4 9 8 11 6 7 1 3 8 17 30 17 17 8 59 50 48 42 36 37 38 38 38 38 36 35 33 31 28 26 25 23 22 23 21 15
3 4 3 5 8 11 7 1 6 11 2 13 6 4 7 16 15 10 3 5 7 14 15 13 10 27 20 49 50 44 43 38 40 41 39 37 37 36 34 31 29 27 25 23 21 20 22 19 14
9 2 5 8 4 6 3 2 3 7 16 5 5 9 9 7 8 7 14 3 9 6 13 18 15 16 3 47 40 38 37 39 39 40 38 36 36 35 32 30 27 25 24 21 20 19 18 18 13
4 3 8 7 5 8 4 5 5 7 8 2 3 3 3 7 8 5 6 5 8 9 13 13 21 14 28 10 27 29 31 36 37 37 37 36 36 34 31 29 26 24 21 19 17 17 17 15 10
5 6 15 24 12 6 2 9 4 10 3 3 3 3 1 7 5 4 6 6 12 10 14 13 16 16 24 35 39 30 25 29 33 33 35 36 35 33 31 29 26 24 20 17 15 14 12 12 9
3 17 20 14 11 2 3 4 8 4 5 8 11 4 2 7 8 7 8 9 14 16 16 17 21 27 39 43 41 37 35 28 32 32 33 33 33 31 29 27 25 20 18 16 13 10 9 8 7
6 8 19 16 10 8 4 11 12 7 10 14 2 6 3 8 8 6 8 11 16 21 20 19 25 32 31 32 34 39 38 37 35 32 33 32 31 30 29 25 23 20 17 14 12 10 6 4 5
13 13 20 12 14 7 0 10 9 9 17 9 6 5 4 6 8 10 11 12 19 24 23 20 27 30 32 33 40 46 42 39 36 34 33 31 30 28 26 23 21 18 16 14 10 8 7 5 7
13 8 10 9 6 2 3 1 4 23 12 11 6 7 7 4 7 10 14 13 19 19 24 28 32 32 30 37 45 45 40 38 38 34 29 28 26 24 22 19 17 17 16 14 11 10 10 9 6
6 5 4 11 2 4 7 10 6 23 19 12 10 12 14 10 9 10 12 12 18 18 21 30 35 38 41 41 46 45 42 41 37 34 29 25 21 22 18 18 18 17 17 14 14 11 11 11 7
3 6 6 11 8 5 5 7 6 20 15 11 11 10 10 14 16 12 13 10 15 19 19 26 33 36 40 44 48 41 35 38 37 34 29 29 22 19 20 19 16 16 18 17 13 13 13 13 10
7 4 5 8 6 5 4 6 10 20 22 19 18 15 14 12 14 17 15 13 16 21 24 22 24 30 35 41 44 45 41 40 38 38 38 26 22 19 21 18 17 18 19 18 17 17 15 15 14
5 11 14 16 13 6 7 6 9 17 14 18 20 20 20 16 15 13 15 18 21 19 22 25 26 29 32 39 44 44 42 41 31 40 35 21 21 19 21 21 21 22 22 21 20 20 20 21 19
9 13 19 18 5 5 5 5 5 16 17 30 30 30 26 19 18 16 17 18 22 23 22 26 29 31 34 37 39 42 44 42 35 36 40 34 24 23 24 25 24 24 23 23 25 25 23 23 23
15 13 18 8 5 1 1 5 3 8 7 16 28 30 29 28 25 21 21 21 23 25 28 28 29 31 33 34 34 38 41 36 35 39 40 36 29 25 25 27 28 26 26 27 28 26 25 26 27
11 15 10 5 3 2 1 5 5 5 8 15 22 28 34 34 29 26 26 28 30 33 35 32 31 31 33 35 37 41 42 40 37 35 35 31 28 30 30 28 29 29 30 31 29 27 26 28 30
13 18 6 4 3 2 3 1 7 4 6 10 18 32 36 43 39 36 33 32 32 34 33 31 31 33 35 37 37 36 36 36 32 33 33 33 32 32 31 31 29 32 32 33 31 29 28 31 30
17 5 4 4 2 2 5 6 6 4 10 18 22 36 39 43 43 38 34 35 36 34 33 33 33 34 36 38 36 35 35 34 33 35 37 39 38 38 36 32 31 34 34 34 30 30 30 33 32
7 5 2 3 3 6 3 3 11 7 7 16 23 36 42 46 44 41 41 41 42 43 40 39 39 37 36 37 37 37 35 35 32 33 34 36 39 41 38 35 29 34 33 32 28 29 31 36 37
8 9 6 5 4 4 4 5 5 10 12 20 27 41 41 40 46 45 45 44 43 45 44 42 42 39 39 39 39 38 38 39 38 36 37 40 40 39 37 34 34 31 33 29 28 31 34 36 39
7 5 9 6 1 1 4 6 7 2 4 3 12 27 35 39 45 48 46 46 45 45 47 46 44 44 43 41 40 41 41 42 41 41 42 42 43 41 38 37 37 32 32 31 30 31 33 37 31
10 7 4 1 7 4 5 4 5 4 5 4 7 21 31 42 42 40 43 45 46 44 46 46 47 47 44 42 42 43 43 44 45 46 46 46 42 40 43 43 38 32 32 26 22 25 29 33 27
2 4 3 6 6 6 2 5 7 9 7 8 9 21 26 31 38 43 46 47 48 48 48 48 49 50 49 46 45 46 48 46 44 50 46 43 43 41 36 24 36 35 28 20 21 22 21 24 26
11 13 10 5 5 3 4 8 5 9 7 9 12 23 24 25 26 27 30 37 43 48 49 49 49 48 48 50 47 47 51 48 46 45 43 38 39 32 22 33 40 31 21 21 22 21 22 23 22

GFSSGP_850_spd_081.txt.gz
Wind_Speed
2 1 2 2 4 5 3 5 3 6 3 2 4 4 3 6 2 2 2 6 10 18 30 30 31 32 33 30 25 22 27 30 29 23 26 25 27 28 30 32 32 31 29 27 27 25 23 24 24
3 1 1 4 4 3 5 5 5 5 5 14 4 4 3 1 3 3 2 5 10 22 34 33 34 36 35 35 32 24 26 28 28 27 25 27 29 32 35 35 33 30 28 28 27 24 22 23 24
2 3 2 4 3 3 4 6 6 5 3 4 4 2 3 4 3 5 6 5 8 18 27 35 38 40 41 29 34 30 29 30 29 27 27 29 33 37 36 34 32 32 31 30 26 23 24 23 22
3 2 5 4 4 8 7 12 10 2 4 6 6 4 3 4 4 8 9 10 17 20 20 29 38 37 30 21 39 32 32 32 28 22 28 32 36 37 36 36 35 33 32 30 25 23 21 21 21
2 3 4 2 6 5 6 13 13 4 2 7 8 4 1 4 11 11 13 11 19 24 27 26 37 38 26 30 43 45 38 34 32 28 32 36 38 38 38 36 33 33 32 29 23 20 19 19 19
3 3 4 2 5 6 8 10 4 5 7 5 4 1 2 3 6 7 4 8 14 17 16 27 36 35 34 38 44 44 44 38 32 29 35 37 39 40 39 35 33 33 32 28 23 18 18 20 19
6 4 3 3 6 6 5 0 5 7 6 5 4 2 2 6 8 5 6 2 5 7 9 16 26 26 35 36 37 44 41 40 37 38 37 38 40 40 39 36 33 32 31 27 23 19 17 19 16
4 4 1 4 1 7 8 2 5 7 5 5 4 5 3 9 3 6 6 3 5 8 16 8 18 17 30 28 31 41 44 43 36 37 39 40 40 40 38 35 32 31 29 26 22 17 16 15 14
6 3 3 5 3 6 23 5 6 3 4 9 7 7 4 1 3 5 5 4 14 18 14 15 17 13 27 36 48 35 51 40 41 40 39 41 40 39 37 34 32 30 28 26 23 19 15 14 11
4 3 6 6 5 9 20 6 9 6 9 8 12 11 8 2 3 2 1 3 7 16 16 18 15 11 14 15 49 59 45 46 42 42 41 41 40 38 36 33 31 28 25 23 22 19 15 11 10
6 5 5 15 19 23 13 4 7 7 4 13 10 12 12 8 6 2 0 4 11 15 20 22 18 19 8 32 51 49 46 41 42 42 41 40 39 38 36 34 31 28 22 21 20 17 13 11 9
1 9 6 13 20 6 4 6 4 10 9 12 11 6 5 8 4 1 3 5 11 14 18 20 23 23 22 27 20 31 41 43 44 41 40 39 38 38 36 33 29 25 22 20 18 15 13 11 10
6 5 9 19 21 15 11 9 7 9 12 10 5 4 5 5 2 1 3 6 14 19 19 20 24 24 26 29 39 42 38 34 34 36 36 36 36 35 33 30 26 23 20 17 14 13 10 8 8
3 7 13 19 26 10 6 5 1 15 14 10 6 6 5 5 2 1 4 7 10 20 22 24 23 26 33 42 47 48 49 42 37 35 38 35 32 32 31 28 25 23 19 15 12 10 8 6 6
5 7 8 9 9 5 7 1 10 16 16 14 10 9 7 3 1 1 4 7 7 17 28 21 30 35 42 45 45 45 47 47 48 43 37 36 33 31 30 26 24 21 18 15 14 12 9 7 8
5 1 3 3 5 6 4 12 8 11 16 14 11 11 7 3 2 5 6 7 6 16 24 24 30 39 40 39 41 46 45 43 43 43 39 35 33 30 27 23 23 20 17 15 14 11 9 10 9
2 4 5 9 3 3 3 9 5 15 14 10 15 13 9 6 4 6 8 7 9 15 19 25 31 36 36 40 44 44 43 43 37 35 33 32 29 27 23 21 22 19 17 17 14 12 11 12 11
5 3 3 5 4 2 5 16 5 14 15 14 17 13 12 7 4 7 8 8 10 12 13 18 28 36 40 45 45 38 37 37 33 33 31 30 28 24 20 20 19 19 18 17 15 13 14 13 11
3 2 4 14 13 3 11 16 9 13 16 14 20 18 15 9 5 8 9 11 15 16 14 18 24 30 35 40 39 33 38 36 35 33 30 26 24 25 27 21 20 19 18 17 16 15 16 16 16
5 5 12 11 9 4 9 11 7 9 12 21 22 25 25 16 12 11 12 16 17 21 20 18 19 27 32 39 41 38 42 40 37 31 32 31 31 31 22 21 21 20 19 18 18 19 20 20 20
8 7 10 7 11 5 4 7 5 6 5 15 19 23 24 26 22 21 22 21 21 21 23 20 20 21 29 40 41 43 40 39 37 38 37 37 31 25 22 21 21 21 22 21 22 24 25 24 25
11 10 10 10 6 4 1 5 6 6 11 8 20 25 27 28 25 20 27 25 25 24 25 24 24 26 28 34 40 44 43 42 44 42 39 39 35 30 25 25 24 25 26 25 27 28 30 28 29
10 7 9 9 11 2 2 2 6 2 6 11 14 26 32 33 30 27 24 20 20 24 26 26 27 30 30 32 35 37 40 45 45 39 34 45 41 39 36 31 28 27 27 29 33 33 33 33 31
8 2 1 2 2 3 4 5 6 5 8 7 13 25 31 34 33 29 23 22 23 26 27 26 26 29 33 36 39 39 42 45 46 40 39 40 43 40 38 35 31 30 31 34 34 33 33 35 33
5 3 2 3 1 7 5 4 10 7 7 9 15 27 36 34 34 34 32 31 31 33 32 31 32 33 36 37 38 39 38 38 38 37 36 38 40 40 38 35 35 35 35 36 36 36 33 33 33
7 9 5 6 4 5 0 5 6 7 11 20 27 35 32 33 35 36 36 35 36 37 37 37 38 38 38 38 38 37 37 38 39 38 37 38 38 38 36 36 37 38 40 40 37 36 34 30 29
5 5 11 5 1 3 4 6 9 6 4 6 17 19 29 36 38 38 38 38 37 39 41 41 40 38 39 39 38 39 40 42 43 41 41 40 38 38 37 35 35 39 41 40 38 38 34 28 30
11 6 2 2 7 5 4 4 5 7 6 5 6 18 29 34 36 37 39 41 40 39 40 42 42 41 40 41 41 41 42 43 44 43 42 41 41 41 40 40 42 44 43 42 36 38 32 31 30
4 6 3 5 5 6 2 6 8 10 9 7 9 24 31 33 34 38 43 42 41 40 41 42 43 45 44 44 44 46 46 44 42 44 45 44 42 42 34 34 39 44 37 36 32 38 35 28 28
10 12 10 5 4 3 4 9 4 8 7 8 16 25 29 29 31 33 38 40 40 40 44 45 44 45 46 42 40 49 49 48 47 45 45 43 46 45 37 30 38 33 38 39 35 34 26 28 27

GFSSGP_850_spd_084.txt.gz
Wind_Speed
5 3 1 0 4 5 3 5 2 4 1 1 4 2 4 2 2 3 4 8 4 25 28 33 33 33 36 35 32 30 31 32 33 34 32 26 24 24 28 29 28 27 24 23 23 23 25 26 25
5 3 1 2 4 3 5 4 5 6 3 8 4 4 3 5 6 4 5 5 7 15 25 35 35 34 34 35 34 31 32 34 33 33 28 24 23 26 30 29 28 27 25 24 26 25 26 24 25
4 3 1 4 3 3 4 5 7 5 12 6 2 4 3 4 5 4 7 8 7 14 25 30 31 33 36 38 36 35 37 36 35 29 22 24 26 29 31 30 30 27 26 27 25 25 25 24 24
3 2 4 4 3 5 6 7 9 6 5 11 3 5 5 9 4 7 7 11 11 14 21 29 31 31 34 37 38 38 37 36 31 28 25 25 29 32 33 32 30 28 27 27 27 26 25 23 23
3 2 4 1 4 4 4 11 14 5 4 5 5 4 5 9 11 11 9 14 16 16 21 26 26 33 35 35 33 37 35 33 32 26 23 28 32 35 34 31 30 28 26 27 26 25 24 22 21
3 2 3 2 5 5 5 10 7 5 2 1 4 4 5 7 8 9 7 8 14 16 19 22 25 29 35 36 34 33 33 32 31 31 26 33 34 36 34 32 30 28 27 25 24 23 23 22 20
5 3 4 2 4 6 4 7 3 5 4 7 5 3 4 8 10 10 7 11 7 17 14 12 23 33 38 31 29 34 36 34 34 31 32 36 37 37 35 32 31 29 26 24 24 24 23 20 19
4 4 2 3 2 7 6 5 9 7 10 7 7 6 5 6 4 5 3 4 9 11 10 7 12 25 39 41 31 35 33 36 35 34 38 38 40 37 33 32 31 27 24 22 22 23 20 17 16
4 3 3 4 4 6 16 2 5 6 8 8 9 12 6 7 3 3 4 3 10 15 16 15 15 24 30 29 29 29 36 37 38 40 41 41 41 37 34 34 31 27 24 21 21 21 19 18 15
4 3 8 6 5 6 20 5 10 4 4 10 14 15 12 7 5 7 5 6 10 11 16 17 17 14 21 28 38 46 46 42 38 40 45 44 42 38 35 33 30 27 23 20 19 18 17 14 12
6 6 4 8 17 13 6 6 6 6 5 21 8 12 11 8 7 7 8 9 13 16 11 18 18 15 13 25 46 41 51 43 39 41 44 45 43 40 36 33 31 28 23 20 17 15 15 13 11
2 10 8 11 10 8 3 4 4 12 14 3 6 5 9 8 7 8 9 10 10 16 20 21 17 13 8 7 46 48 55 46 39 41 43 46 46 41 37 33 29 26 23 21 18 16 14 12 12
5 6 8 13 22 18 13 13 8 16 21 8 5 7 7 8 7 8 8 8 12 13 15 22 21 15 11 16 39 56 54 51 42 38 42 44 43 40 37 32 28 26 23 20 17 15 12 11 11
5 7 15 18 24 14 5 1 1 17 13 12 7 5 7 9 6 6 7 7 10 17 15 19 22 21 14 16 44 51 47 43 39 39 41 41 40 38 35 31 28 25 22 19 16 13 11 10 9
5 5 8 8 6 5 6 5 9 18 10 13 8 5 6 7 6 6 7 4 4 18 14 18 20 22 19 21 30 35 43 45 39 37 36 35 36 36 31 29 26 23 20 19 17 12 10 9 9
2 4 4 4 3 2 6 8 7 9 13 14 11 7 7 7 6 7 6 5 4 13 21 18 19 22 27 32 43 43 45 41 37 36 36 34 36 31 28 28 24 22 21 18 14 10 10 9 7
4 3 4 8 4 2 2 8 1 1 8 12 10 10 9 7 7 7 6 6 3 9 22 23 22 28 31 39 40 44 44 39 40 40 38 36 29 32 32 28 23 23 20 16 13 10 8 7 7
6 4 4 7 3 4 5 12 11 11 13 19 11 11 11 11 9 6 7 7 7 7 13 19 26 29 32 36 38 35 44 38 38 40 36 38 30 28 28 27 26 23 19 17 14 12 10 8 8
4 3 3 8 5 4 9 7 15 7 12 15 17 13 13 12 9 10 9 9 10 10 10 13 20 33 38 37 35 38 40 36 37 40 35 35 37 34 30 27 25 20 19 17 15 15 12 11 12
4 4 7 10 6 6 11 14 12 4 6 18 20 20 16 15 13 12 11 12 14 12 13 13 15 27 35 36 38 38 40 36 33 36 34 31 32 31 29 27 22 22 19 18 18 17 16 15 16
6 10 5 8 7 5 4 7 6 2 5 6 18 25 18 19 19 16 14 13 15 15 16 15 17 23 29 33 37 36 36 35 33 35 35 34 31 29 26 22 22 21 18 19 19 20 20 20 19
9 9 9 6 3 4 4 6 5 6 7 6 14 24 25 23 21 17 15 14 14 16 19 19 18 22 26 33 42 38 41 44 38 40 38 34 31 29 27 24 24 21 20 22 22 23 24 24 24
9 7 8 5 5 2 3 2 7 2 7 9 11 27 30 27 25 23 18 15 16 21 22 21 22 21 27 35 39 40 41 43 44 41 38 34 34 35 32 31 26 22 26 25 25 27 29 29 29
3 3 5 2 2 3 7 6 6 3 6 5 4 20 29 31 28 25 20 19 19 20 21 22 24 26 27 31 38 43 45 45 42 45 43 43 40 39 38 36 32 31 31 31 29 30 30 32 31
6 5 2 2 1 5 5 3 10 5 7 7 9 18 28 30 32 32 30 27 26 27 27 26 29 30 32 33 36 40 40 44 43 43 46 44 45 42 43 44 40 38 38 35 33 33 33 35 36
9 10 5 6 4 4 4 6 6 8 8 17 19 20 19 28 30 34 34 32 30 30 32 31 30 30 31 32 35 33 36 39 40 42 45 50 47 46 43 47 44 42 39 37 36 36 37 39 37
5 8 8 4 1 2 4 6 8 7 8 5 8 12 18 27 32 32 34 35 33 33 34 34 32 31 31 31 31 33 35 37 39 41 45 48 46 38 39 42 42 41 38 37 38 40 41 41 39
9 6 3 1 5 5 4 4 5 6 8 6 4 13 19 20 25 29 31 34 36 34 33 34 34 32 32 32 33 34 35 35 36 37 38 40 40 39 40 40 38 37 37 37 38 38 36 30 30
3 9 3 5 5 6 2 5 8 10 9 9 8 18 18 19 21 24 28 30 33 36 36 35 36 37 37 37 36 35 36 37 38 40 41 41 41 42 42 41 39 37 35 41 38 39 34 29 38
4 7 12 10 4 3 4 10 4 9 7 6 12 17 17 17 18 18 22 24 27 30 34 39 39 40 40 38 37 36 37 40 41 42 41 41 42 41 44 45 43 36 28 42 41 33 37 35 33

GFSSGP_850_spd_087.txt.gz
Wind_Speed
7 6 3 2 1 1 1 3 2 4 3 4 5 4 3 6 6 4 3 6 6 15 30 34 34 27 33 34 34 37 36 36 35 34 33 26 28 25 27 25 25 23 21 20 19 20 22 23 22
8 6 3 3 2 1 0 2 7 8 5 6 6 4 3 6 12 7 7 8 7 9 24 34 31 38 37 37 38 38 39 37 39 37 32 27 28 27 27 27 25 23 21 21 22 23 22 22 21
7 5 2 3 2 1 2 4 8 5 8 7 3 5 3 5 7 5 8 9 8 13 25 28 33 35 36 37 38 39 41 40 41 37 30 28 26 27 28 28 26 23 23 24 26 24 22 22 22
5 3 4 1 3 2 3 6 7 8 3 7 4 5 7 12 6 8 7 11 15 13 18 27 31 34 40 37 38 40 41 42 41 36 32 29 26 32 30 29 26 24 21 24 25 24 24 22 23
5 2 2 1 3 3 5 6 3 4 5 6 8 4 6 10 14 13 11 13 16 14 18 19 24 20 29 42 41 42 43 44 40 36 32 30 31 31 30 29 26 25 24 24 27 25 23 24 24
2 2 2 3 4 4 6 8 3 4 5 2 4 4 8 13 10 12 13 11 13 16 18 22 21 25 30 32 43 43 44 43 40 35 33 34 34 31 32 30 28 25 26 27 27 25 23 23 23
4 3 3 3 3 5 4 4 3 5 6 8 7 4 6 8 9 10 9 11 12 16 17 16 14 28 28 28 31 37 41 41 38 38 37 35 34 34 33 30 27 26 27 26 25 24 22 21 20
5 2 4 4 3 5 4 4 9 6 6 7 7 6 5 4 7 6 6 6 10 10 13 12 13 17 24 32 28 32 35 41 40 37 37 37 37 37 33 28 27 27 24 25 24 23 21 19 19
5 2 4 5 6 4 2 5 4 6 6 9 9 15 11 9 8 7 7 5 10 12 14 15 10 13 25 34 31 29 35 36 38 39 41 41 39 37 32 30 28 26 25 25 25 23 21 19 17
4 3 8 6 6 5 12 6 6 3 6 9 15 21 17 13 10 8 6 8 9 10 15 15 13 11 18 23 41 30 42 37 40 38 43 44 40 36 34 32 29 26 24 25 24 21 20 18 17
5 6 5 6 12 11 6 9 4 5 9 14 12 14 16 14 10 7 7 9 10 9 15 18 19 15 14 18 32 36 38 43 39 39 42 43 40 38 36 34 30 26 25 26 24 21 18 14 16
5 11 9 5 7 4 5 7 6 12 15 12 8 11 10 11 9 7 9 10 12 14 17 18 17 19 16 20 26 40 51 42 42 41 43 44 42 39 38 35 31 27 26 25 23 20 17 15 14
6 6 8 16 11 13 11 14 12 20 17 16 14 9 10 9 9 9 10 10 11 15 17 21 20 18 19 21 15 37 45 53 44 44 43 43 42 41 37 34 30 27 25 23 23 19 17 15 14
3 8 12 11 13 11 9 8 2 6 6 11 11 11 10 9 9 8 6 7 8 11 14 15 20 18 13 13 15 42 55 51 47 42 40 44 43 40 37 33 30 27 24 22 19 15 16 15 14
4 7 9 9 6 4 8 5 7 7 7 10 10 10 8 7 8 8 4 5 6 10 15 15 14 17 8 8 28 42 55 49 48 43 44 43 39 36 33 33 30 26 23 20 17 16 15 14 14
2 1 6 1 3 2 1 7 3 2 11 13 11 11 8 8 8 7 5 5 4 6 13 10 11 12 10 14 37 49 47 45 45 41 41 39 35 33 33 31 28 26 24 20 17 15 15 13 11
1 7 6 7 1 3 3 8 5 6 8 12 14 12 10 10 9 6 5 6 4 8 13 13 10 13 17 23 30 37 40 41 44 37 38 36 35 33 31 30 28 25 23 20 15 15 12 12 12
8 5 5 8 3 1 6 14 15 7 12 11 13 12 12 12 9 5 6 6 5 6 11 16 9 14 21 27 28 32 41 43 40 38 35 39 36 34 28 26 26 26 22 19 17 15 14 12 11
6 5 6 5 5 4 9 10 16 12 11 10 14 14 14 14 10 7 7 7 8 9 11 14 14 15 21 28 32 34 34 35 34 40 43 32 35 34 30 29 25 26 22 19 17 16 17 16 15
7 8 12 12 2 6 8 16 16 5 8 8 15 17 16 15 14 11 11 12 13 13 12 16 16 21 25 29 33 34 38 30 33 36 47 37 28 27 28 27 29 25 23 22 21 20 20 18 17
16 17 13 13 9 3 6 6 5 2 5 8 9 16 17 20 17 14 16 16 17 17 17 16 17 22 28 30 34 33 39 28 31 34 35 45 41 30 30 29 29 27 25 25 22 23 22 21 19
14 11 13 11 5 6 5 8 8 13 10 8 12 17 19 22 21 17 17 16 18 18 17 17 18 20 28 33 34 31 46 40 37 41 41 34 37 42 40 34 30 27 30 25 25 22 21 22 24
12 7 13 11 8 5 6 6 2 2 12 12 11 16 19 25 24 22 18 15 17 21 23 20 19 21 25 28 30 34 41 38 38 37 42 41 39 34 36 34 31 31 27 26 24 24 24 25 27
3 4 2 2 2 7 10 7 6 4 5 4 2 9 18 24 26 23 19 17 17 20 21 24 23 24 26 30 32 38 40 39 37 36 39 42 45 37 35 33 34 29 28 26 25 24 26 28 29
9 6 4 4 4 8 6 7 14 7 9 9 11 7 12 22 29 28 28 24 23 22 23 24 25 28 30 31 34 39 41 39 40 42 41 44 42 40 37 37 33 33 33 32 31 30 31 34 36
14 13 4 6 6 7 4 7 6 8 9 9 12 8 9 17 29 32 30 28 26 25 24 24 25 27 29 31 35 40 42 42 44 44 44 43 45 43 39 38 38 38 39 39 37 37 38 38 37
6 8 14 2 1 1 4 5 7 8 9 4 6 7 15 17 26 33 32 32 29 28 27 26 25 27 29 32 35 38 41 42 44 44 45 43 48 46 44 43 43 42 41 45 44 41 41 38 39
7 8 5 6 7 11 5 5 7 3 5 6 6 8 11 15 20 27 33 33 33 30 28 28 27 27 28 30 33 35 36 40 41 43 45 47 45 47 49 47 45 45 43 39 40 41 41 38 39
5 10 2 3 4 8 5 6 8 13 11 6 7 5 10 15 19 22 28 32 34 34 33 31 31 32 32 32 32 31 32 34 35 37 37 37 38 41 41 41 44 43 40 40 39 42 41 45 37
5 3 11 10 8 3 5 12 2 11 6 6 8 8 6 12 14 16 20 26 30 33 35 35 35 35 35 33 34 33 32 33 34 34 33 34 34 34 35 37 40 40 43 44 44 36 37 37 38

GFSSGP_850_spd_090.txt.gz
Wind_Speed
6 5 3 2 6 6 2 4 3 6 4 2 4 7 9 13 7 9 6 10 10 7 15 26 31 30 28 27 35 36 37 37 35 35 34 30 28 26 19 22 23 23 23 20 18 19 21 20 19
7 6 2 4 7 7 5 0 6 4 4 5 9 10 10 12 6 7 8 13 12 9 10 18 32 29 28 28 33 38 40 39 38 37 35 31 30 26 22 25 23 21 19 18 18 20 19 20 19
8 7 7 4 4 7 3 2 4 4 6 8 4 6 5 6 4 3 8 10 13 10 11 17 29 31 33 28 36 40 42 40 39 38 35 32 31 26 25 27 24 20 18 18 19 19 20 20 19
4 4 5 8 8 3 4 2 6 6 2 6 8 7 7 9 4 9 10 10 14 14 12 22 28 31 33 32 37 40 42 40 40 38 34 33 31 29 27 26 25 21 19 21 21 20 20 20 20
5 5 7 10 9 2 4 4 6 7 4 4 6 9 7 8 11 15 14 16 15 15 15 18 21 22 23 22 33 41 39 40 42 39 35 34 31 29 27 28 25 23 22 24 23 22 21 21 21
7 5 8 9 9 6 5 5 8 7 7 4 7 13 15 12 10 11 13 16 15 15 16 15 17 20 26 34 42 46 42 46 44 39 35 34 30 31 29 29 27 25 23 26 24 22 23 22 22
9 7 12 10 9 9 5 2 7 10 12 11 7 10 10 7 9 12 13 13 13 13 15 16 17 17 22 38 37 44 45 48 45 40 37 34 33 30 32 30 28 25 27 26 24 24 23 23 22
7 6 11 10 9 14 4 5 7 10 12 3 5 7 12 7 9 10 10 11 11 11 12 14 16 17 19 23 27 37 39 43 46 41 38 35 35 35 34 31 28 27 30 27 25 23 21 21 21
7 8 11 11 12 10 3 6 5 8 12 9 10 13 11 9 11 9 7 6 7 10 10 14 12 10 18 17 23 24 37 40 42 41 38 36 37 35 32 30 30 30 28 26 24 23 22 21 20
12 10 14 6 10 7 10 9 11 9 16 15 15 15 12 9 8 7 6 6 3 5 9 12 10 6 12 19 24 25 20 37 39 39 38 37 37 36 29 32 31 30 28 26 24 22 22 20 20
13 16 13 11 12 12 17 14 8 14 18 19 20 13 13 11 10 8 7 7 5 3 8 13 15 9 12 16 21 23 24 27 31 34 37 40 39 38 35 35 32 30 28 28 24 22 19 16 16
11 17 20 16 13 14 16 17 16 18 23 23 17 9 8 10 8 7 7 7 8 6 9 13 17 16 16 18 26 31 36 43 40 37 39 41 38 34 39 32 29 33 30 28 24 22 15 16 15
16 15 17 16 19 20 19 22 22 26 25 18 12 8 7 7 6 8 7 7 9 9 13 12 15 14 18 17 17 23 34 33 50 45 43 42 37 34 37 32 28 28 26 25 22 18 16 16 16
4 11 15 17 18 20 19 23 12 24 7 9 10 9 8 7 7 7 6 7 6 9 8 8 13 18 18 17 19 23 29 35 53 51 46 41 35 35 34 34 28 26 25 23 21 18 17 15 14
12 15 15 18 20 19 18 19 17 8 5 8 10 11 10 7 7 8 5 5 6 8 9 8 8 17 17 20 24 28 33 43 52 53 46 45 41 41 38 35 28 25 24 24 21 18 16 15 13
10 12 12 4 5 7 8 14 8 3 6 10 11 12 11 8 6 6 4 5 6 7 11 8 7 9 12 14 21 20 33 54 51 49 46 43 42 41 38 34 31 31 28 26 22 21 16 15 13
14 14 12 10 8 7 12 15 6 5 7 11 12 13 11 8 7 5 5 5 7 7 7 7 5 5 6 5 26 34 51 50 51 47 43 41 38 35 33 31 29 28 28 25 22 19 16 14 13
16 15 12 14 5 8 13 17 15 8 9 12 12 12 12 10 8 6 6 5 6 6 9 9 7 7 8 13 34 36 48 44 47 42 41 39 37 33 32 30 28 26 22 21 20 18 16 12 11
12 13 14 10 0 5 14 19 16 16 8 11 12 13 13 12 9 8 7 7 7 8 11 13 9 14 14 20 27 25 31 42 42 41 44 42 35 30 28 27 24 20 16 21 17 17 15 14 14
18 17 18 13 7 7 13 17 17 15 11 8 10 13 15 14 13 11 9 9 10 11 12 13 12 11 17 22 27 32 35 42 40 40 40 41 36 33 30 24 23 21 22 17 21 18 17 16 17
18 20 17 15 7 14 15 19 20 13 9 9 11 13 15 18 17 15 13 12 15 15 15 16 15 14 18 23 27 29 37 42 41 43 42 36 39 35 33 32 29 31 28 25 22 21 21 15 17
20 18 16 18 12 10 3 9 12 8 15 14 16 15 17 19 18 17 16 16 16 17 17 17 18 18 20 22 28 32 35 37 44 45 46 41 44 37 34 32 32 28 25 26 26 27 23 19 16
16 13 11 15 16 14 15 9 9 2 10 12 6 18 18 21 21 20 18 16 17 18 19 19 19 21 24 24 29 33 34 24 33 43 49 44 37 33 29 30 29 26 28 30 26 27 25 22 21
2 11 5 7 9 12 16 13 8 8 7 6 2 4 16 22 22 19 18 17 17 19 19 19 21 23 24 29 29 33 35 32 29 35 47 49 40 39 38 33 31 30 33 31 28 29 25 25 26
16 9 5 7 7 8 7 11 15 5 5 9 11 7 13 21 24 24 22 21 20 21 22 20 21 24 26 27 31 33 32 35 27 34 40 38 44 47 46 43 46 40 35 31 29 28 27 27 27
18 17 7 9 8 7 12 8 10 7 7 7 5 7 11 20 25 27 25 22 21 21 22 23 23 23 28 29 29 28 27 31 28 33 32 40 43 39 41 39 39 38 32 35 32 30 28 25 26
11 16 18 13 11 7 9 9 10 12 12 10 9 6 12 19 26 27 27 25 23 23 23 24 24 24 26 29 29 29 29 30 27 27 31 31 35 36 38 37 41 39 37 35 32 28 31 29 29
18 4 8 10 7 11 9 12 7 5 10 2 8 8 10 18 22 25 26 28 26 25 23 23 24 25 25 26 28 28 30 32 30 30 30 32 33 33 31 34 43 39 36 35 31 32 30 36 35
9 12 10 7 12 10 10 8 6 14 14 11 4 3 8 16 18 21 24 24 26 25 26 26 26 26 27 26 27 28 29 32 33 32 32 32 32 34 36 38 40 45 41 36 34 34 41 39 40
7 9 16 12 13 10 12 13 2 4 10 5 3 1 2 10 14 17 20 23 25 27 26 29 28 29 28 27 28 29 29 29 32 35 33 32 35 34 34 33 34 36 37 37 42 48 47 45 54

GFSSGP_850_spd_093.txt.gz
Wind_Speed
6 4 2 8 7 8 15 2 4 8 6 2 5 6 12 13 10 8 3 9 9 6 3 15 19 26 24 25 23 24 25 28 29 29 29 28 25 24 23 22 21 21 20 17 16 16 17 20 18
4 6 5 11 8 12 4 6 6 4 3 2 8 9 12 11 7 7 4 8 9 6 7 10 17 29 27 22 25 24 25 30 31 31 30 29 26 25 25 24 25 21 18 16 15 16 19 19 18
8 8 13 7 12 12 9 8 6 3 2 8 6 5 10 9 8 7 5 6 7 7 5 9 19 23 27 23 24 18 32 34 35 34 32 30 27 26 26 26 23 19 16 16 17 18 19 19 20
6 8 11 9 16 11 5 4 3 9 8 6 9 9 8 7 6 4 5 8 9 7 7 13 20 22 27 28 31 27 34 35 39 38 34 32 29 28 29 25 23 17 16 16 18 18 19 20 20
9 12 11 16 15 11 2 6 5 9 9 5 10 12 11 10 6 5 6 10 12 12 9 16 18 21 23 29 32 20 34 40 41 40 37 33 30 28 27 24 21 21 19 19 19 20 20 19 20
13 11 12 13 12 3 4 7 9 10 11 11 8 14 15 3 5 7 7 8 13 16 13 15 15 21 24 30 32 42 51 45 39 42 39 35 31 29 28 25 23 21 21 21 20 20 20 20 21
17 12 14 17 14 13 7 3 9 12 12 15 6 10 15 12 5 8 5 6 14 14 18 16 16 17 19 22 26 25 39 29 31 43 41 37 31 30 28 26 24 23 23 23 22 22 22 22 22
21 12 19 17 11 14 8 7 13 11 14 8 11 10 13 7 3 5 5 5 13 11 14 16 15 15 18 19 24 28 32 51 51 44 43 38 34 30 29 28 23 25 25 24 24 23 23 23 23
14 13 14 15 12 9 6 7 15 9 16 18 16 14 15 8 6 6 7 6 8 12 9 12 12 14 14 18 17 22 29 54 46 46 44 39 36 33 30 27 24 27 27 26 25 24 23 22 23
17 13 19 11 11 12 11 11 13 15 16 17 16 10 11 9 9 10 10 8 6 12 15 11 10 9 10 13 13 14 22 44 30 49 44 38 36 35 29 27 27 30 28 27 25 22 22 22 24
20 19 21 14 10 13 14 18 18 16 15 17 14 16 15 10 11 11 10 7 8 8 14 11 8 7 6 8 12 13 21 32 43 44 43 36 38 35 31 31 32 31 28 27 25 24 20 16 16
21 25 22 21 16 16 15 21 21 20 21 20 19 8 9 11 12 11 10 8 7 8 13 13 13 13 10 10 8 13 22 15 35 46 43 37 37 39 31 37 36 34 28 29 26 23 15 15 14
21 19 25 22 19 21 21 22 22 25 25 21 11 9 9 11 11 10 9 7 6 8 11 15 11 10 11 12 14 15 15 24 35 43 41 37 37 35 34 32 29 28 24 24 23 18 16 15 13
20 19 19 25 23 22 19 21 23 27 23 11 10 11 9 10 10 10 9 7 8 7 8 14 10 8 10 12 14 14 18 20 29 35 34 34 36 36 31 30 28 27 24 22 20 18 17 15 14
23 20 21 22 24 23 21 23 25 26 12 12 11 11 9 10 10 11 9 7 5 8 9 7 6 7 10 13 14 16 17 30 34 36 40 39 35 33 27 30 28 27 25 23 20 19 17 14 13
15 18 20 19 18 17 16 19 19 11 12 14 11 13 10 11 10 11 9 6 5 5 7 9 4 6 10 16 18 22 21 22 33 43 45 41 39 38 32 26 26 25 25 23 20 19 16 15 14
16 18 20 21 13 11 14 15 8 13 10 11 12 13 12 11 10 9 7 7 5 6 6 7 4 4 7 11 14 21 26 33 39 51 51 45 38 37 29 26 26 29 25 23 21 22 18 16 14
19 20 21 19 15 10 17 20 18 21 15 12 14 12 12 11 11 11 9 7 6 6 7 7 5 4 4 7 7 10 19 29 54 51 52 44 41 39 31 31 34 33 30 28 24 20 18 15 14
21 23 18 15 10 6 15 18 18 18 22 16 14 14 13 12 11 11 11 9 9 9 11 8 8 9 6 11 23 29 38 48 50 51 47 44 41 42 34 30 32 31 28 25 23 21 18 14 15
23 22 22 20 18 8 15 21 19 19 17 20 15 12 13 13 14 14 12 12 12 13 14 13 9 12 15 19 26 38 37 37 47 46 47 43 36 32 32 29 30 28 25 22 18 17 13 14 15
22 22 19 22 18 9 15 22 22 22 23 25 13 17 14 16 18 17 16 13 15 15 15 16 13 13 17 21 22 26 27 33 40 42 46 41 39 34 32 28 25 22 22 18 18 19 17 17 15
22 19 19 21 17 14 17 15 15 16 11 11 18 20 18 16 18 19 18 16 16 16 16 18 17 16 18 20 20 23 28 38 42 46 45 42 41 40 35 28 22 23 23 23 21 21 21 15 13
20 14 15 20 15 17 21 12 14 21 14 9 13 13 17 18 20 20 19 18 17 18 18 16 20 19 21 22 25 27 31 41 45 45 46 46 43 47 34 34 26 30 28 26 23 25 25 20 19
8 13 14 11 15 15 17 16 12 15 14 10 4 6 16 18 20 19 19 19 19 19 19 18 19 23 22 20 24 25 32 40 42 46 47 44 42 41 39 34 32 28 27 29 28 27 26 24 21
15 10 6 4 10 13 14 14 17 9 3 4 7 5 12 17 21 22 22 21 22 22 22 21 21 21 25 26 27 25 31 36 39 48 46 43 37 38 42 37 31 30 30 26 27 27 28 26 25
19 18 7 11 9 11 18 9 14 15 8 8 6 6 12 18 22 24 24 23 23 25 24 22 23 22 24 28 30 27 36 34 31 41 48 47 45 42 40 38 33 26 24 26 26 26 27 26 26
15 16 18 18 15 8 5 9 10 11 8 6 9 10 10 17 23 26 25 24 24 24 26 26 24 23 26 26 30 29 31 35 33 27 31 45 52 47 43 40 38 36 30 30 28 32 31 31 30
25 10 12 11 15 12 13 15 10 2 10 9 4 10 12 14 21 26 27 25 24 23 23 23 23 24 24 25 26 27 30 29 29 29 28 31 36 41 34 45 42 42 42 37 40 35 31 32 33
13 17 13 12 13 10 9 5 2 5 8 11 9 4 8 12 21 26 26 25 24 23 23 24 24 24 24 26 26 27 32 30 33 32 27 32 30 31 35 32 36 34 33 33 33 36 39 36 37
11 14 19 11 14 12 13 11 13 6 5 10 15 4 5 6 17 23 25 26 26 26 26 25 25 26 26 25 26 28 27 29 34 31 31 29 32 32 32 35 31 32 33 35 38 39 40 39 39

GFSSGP_850_spd_096.txt.gz
Wind_Speed
8 5 1 10 6 8 16 9 12 7 5 7 9 6 12 16 9 5 8 5 10 6 7 11 9 13 18 18 20 19 19 20 21 21 21 21 21 20 19 17 17 18 20 20 19 18 20 21 19
5 5 10 11 8 11 9 9 6 5 10 9 7 9 11 11 8 8 7 6 13 4 4 10 10 10 19 20 22 20 20 21 24 23 23 22 21 20 18 19 19 18 19 18 17 17 18 18 18
7 7 12 7 12 13 15 8 5 9 3 3 6 10 4 11 8 6 5 9 7 3 2 9 12 10 16 21 22 21 20 21 26 26 26 24 24 22 20 20 20 20 17 15 16 18 19 18 19
4 9 12 9 16 16 19 8 8 7 14 5 6 8 8 3 7 4 11 8 7 1 4 12 11 12 12 22 23 23 23 29 27 29 29 28 27 25 22 22 20 19 18 16 17 20 22 22 25
10 11 12 17 21 21 10 2 5 6 11 8 8 7 11 18 6 9 5 9 10 8 6 13 15 13 14 19 24 27 28 25 21 21 32 31 30 22 24 23 21 20 19 16 19 20 23 25 33
13 17 14 15 18 14 6 4 2 7 13 13 10 13 11 8 6 7 9 7 10 8 8 12 16 15 16 20 27 32 27 23 19 28 33 37 33 22 26 25 23 20 19 17 18 22 24 27 33
15 11 17 22 20 19 11 6 6 6 15 12 9 11 10 7 7 10 3 4 10 8 10 11 14 14 17 23 24 27 30 27 28 39 37 40 35 32 27 26 22 18 19 21 22 23 25 28 31
20 13 21 20 17 18 7 1 6 9 12 15 13 7 7 1 5 4 3 5 11 8 8 10 10 12 15 20 22 26 23 29 30 41 32 42 38 33 30 27 22 23 22 23 23 24 26 28 30
22 13 15 21 22 12 10 5 8 11 12 15 16 16 15 7 4 2 6 7 9 10 11 8 9 9 14 19 21 23 24 26 34 30 40 41 40 33 30 26 24 25 25 25 25 25 26 27 28
17 13 21 21 19 10 13 18 8 10 14 17 16 5 2 9 7 8 9 9 10 10 12 10 8 7 14 15 17 21 21 25 26 36 29 42 41 37 31 28 28 27 26 26 25 25 27 27 30
24 19 19 25 30 24 15 15 16 16 15 15 14 13 10 6 9 9 9 9 9 11 14 13 7 10 13 10 11 14 18 21 24 31 36 41 42 37 33 32 30 29 28 28 27 27 27 30 31
23 27 26 26 28 25 21 20 17 20 20 18 19 16 6 9 9 10 9 9 8 11 10 9 9 12 11 9 9 9 12 16 27 28 40 48 43 39 34 35 34 32 31 30 28 27 24 28 25
22 23 27 27 28 28 26 21 20 24 22 21 20 10 8 10 11 10 9 6 11 7 8 11 12 10 14 10 9 5 9 18 9 38 34 44 43 39 36 36 38 35 32 30 29 24 20 20 19
25 26 23 28 25 24 25 21 23 27 24 22 23 9 12 12 11 11 10 7 12 7 9 10 12 10 12 8 10 12 14 10 11 38 50 45 43 39 38 38 39 35 31 31 26 23 22 18 18
25 23 22 21 25 23 27 23 23 31 29 25 13 14 13 14 13 11 10 6 7 10 12 8 11 9 9 9 11 13 12 18 30 39 43 46 42 39 37 38 38 28 27 26 23 20 21 19 18
19 18 18 17 22 27 27 21 21 27 13 13 16 17 14 14 11 9 9 7 7 8 10 9 7 7 11 13 14 14 14 17 25 36 39 38 41 35 36 34 35 29 28 24 24 22 22 20 17
17 19 22 23 22 20 13 17 17 12 10 14 15 15 18 16 13 10 8 7 8 8 9 10 8 8 10 13 16 17 19 22 25 32 35 37 36 36 33 32 32 31 30 27 27 23 23 21 17
19 21 19 21 21 21 18 15 16 22 18 19 18 18 17 18 15 16 10 11 9 10 9 10 11 10 9 9 14 20 24 28 31 36 42 40 40 38 33 31 33 33 34 28 26 25 23 21 17
21 22 22 22 20 19 13 12 14 15 21 15 17 16 18 14 13 17 13 11 10 10 12 13 12 9 6 3 5 10 23 32 35 32 38 46 46 41 35 31 29 31 36 30 30 28 23 20 19
25 25 26 22 23 21 19 15 14 15 18 20 21 21 15 15 22 17 15 12 11 13 15 13 13 11 11 11 10 13 24 32 36 47 52 50 48 45 38 36 33 30 32 31 29 29 28 27 22
24 24 20 23 21 24 22 17 15 19 23 26 28 20 13 19 27 22 18 16 14 17 17 16 15 15 16 16 23 20 32 43 49 48 52 49 49 41 35 30 31 34 30 30 28 24 18 15 15
24 19 20 16 17 15 19 16 18 15 17 16 23 22 11 15 29 27 22 18 17 18 18 18 18 18 18 18 24 29 41 44 46 48 51 43 43 41 34 29 32 30 27 24 23 19 16 15 13
20 20 17 17 18 18 23 14 12 15 14 18 14 20 24 24 30 28 24 21 17 17 19 20 21 21 20 20 20 25 30 34 40 51 51 50 44 45 41 33 35 32 28 27 25 22 20 15 17
16 16 13 13 11 16 19 20 14 14 18 13 8 8 4 21 28 27 23 22 19 21 20 22 22 23 23 22 19 24 27 33 40 44 47 49 48 42 37 35 31 33 27 27 26 24 21 23 22
16 10 8 9 7 11 16 16 14 12 16 5 10 12 6 19 27 28 28 26 24 23 23 21 23 25 26 25 25 26 28 29 38 43 47 49 46 45 41 37 36 36 28 27 29 28 28 28 29
19 17 8 12 10 9 9 10 14 13 17 10 4 1 20 18 26 28 30 28 27 24 25 24 21 24 27 27 28 26 24 32 37 41 47 46 49 48 45 44 41 43 30 28 28 27 29 31 30
18 18 18 18 7 2 7 14 17 5 10 6 3 7 14 20 24 27 29 29 29 27 24 25 24 23 26 30 29 28 27 34 38 41 46 47 47 48 46 45 48 42 40 32 33 31 32 32 29
16 11 13 10 14 14 8 4 8 10 5 6 7 8 14 18 25 27 29 29 29 28 25 25 26 22 23 31 31 31 30 32 35 32 44 47 47 45 42 41 42 44 36 33 33 34 34 32 32
14 15 15 12 12 10 8 3 4 10 12 10 11 6 3 4 26 28 28 31 28 27 26 27 27 28 25 27 32 34 32 35 34 33 29 39 46 47 44 39 38 40 42 40 38 38 36 37 41
6 17 18 11 12 8 10 7 7 1 9 8 10 15 4 6 13 24 27 31 30 29 29 30 32 31 30 29 29 32 33 35 36 34 34 31 34 35 40 45 36 40 45 45 38 38 40 37 38

GFSSGP_850_spd_099.txt.gz
Wind_Speed
4 2 2 5 3 3 5 8 4 4 4 16 17 9 3 4 5 4 13 4 3 4 7 8 5 3 9 15 18 19 20 18 19 19 19 20 20 19 18 17 16 18 20 21 21 21 22 21 19
6 6 4 5 3 2 7 5 6 9 12 11 8 3 1 4 16 16 8 5 3 6 9 9 8 5 7 15 19 19 19 19 19 19 20 22 22 21 18 16 17 19 20 21 22 22 23 22 21
6 5 3 3 3 6 5 7 6 6 8 9 4 3 6 2 18 15 8 5 3 5 9 9 8 6 6 14 19 22 22 22 22 22 22 24 24 22 19 18 18 20 20 20 21 24 23 22 22
7 4 5 1 12 18 14 6 8 7 9 13 8 2 2 3 7 6 9 5 6 6 8 9 9 8 10 12 19 23 22 21 22 23 24 26 23 21 20 18 20 21 19 17 19 24 24 25 28
4 5 3 4 12 14 20 7 13 6 4 6 8 6 7 3 10 11 11 9 5 8 10 11 11 10 11 13 19 21 23 25 23 22 23 26 27 24 23 20 21 20 19 19 22 24 27 32 31
4 4 0 5 11 11 11 11 13 9 5 5 7 5 2 13 12 11 10 9 9 9 12 12 12 12 13 16 20 27 30 27 30 31 27 24 21 27 22 21 20 20 19 22 25 28 31 34 33
8 2 6 8 12 18 13 14 7 7 3 7 7 1 8 15 13 12 11 10 10 8 9 11 13 13 15 19 22 26 31 31 27 28 24 14 19 23 23 22 22 20 21 26 29 32 36 37 31
19 3 8 7 11 16 14 1 13 11 6 2 6 4 7 19 17 13 9 6 8 6 6 7 13 16 17 18 23 23 26 30 30 27 26 31 31 26 24 26 23 20 21 26 29 34 37 35 30
17 3 12 11 14 17 15 5 5 6 5 10 15 21 19 18 14 9 6 5 8 10 9 12 12 13 13 14 21 25 28 28 24 24 28 27 27 37 34 30 24 23 24 27 30 30 36 35 32
10 4 14 12 17 12 17 11 11 3 6 6 12 3 13 18 14 9 8 6 10 12 13 14 13 12 13 14 17 23 26 27 25 25 29 28 30 45 38 31 26 26 27 27 30 33 36 35 33
12 14 14 20 27 27 13 15 20 9 6 12 6 7 8 14 13 11 11 9 12 12 13 14 15 11 13 13 15 18 22 25 27 28 36 29 31 45 41 34 31 30 29 30 32 36 37 35 33
13 21 22 25 33 27 12 19 11 15 14 18 19 14 7 7 13 14 13 13 14 11 13 14 15 11 13 12 13 15 19 22 21 27 28 36 44 46 43 38 37 34 33 33 34 35 37 37 30
15 15 25 31 31 29 32 12 15 24 26 22 22 18 12 8 9 13 15 14 14 14 10 11 12 12 16 13 12 12 14 16 15 22 28 33 50 51 46 42 39 36 35 34 34 36 38 33 30
19 20 22 20 21 22 15 11 16 28 27 25 25 24 17 10 11 17 17 18 13 16 16 13 11 14 14 13 10 10 8 6 22 18 39 30 50 50 46 43 41 38 36 34 33 34 36 27 24
18 12 14 14 13 11 23 14 16 32 34 33 31 28 16 10 13 20 16 13 11 17 17 16 14 13 12 14 10 13 13 9 21 16 31 38 50 48 46 43 41 39 37 34 30 26 30 23 20
7 7 7 5 7 15 15 21 23 32 34 28 35 21 14 12 14 20 16 12 14 15 15 16 11 12 13 13 12 15 10 12 24 27 44 37 55 48 44 44 42 39 37 33 29 25 24 23 22
4 10 15 14 11 11 9 18 19 34 17 10 15 17 21 22 23 24 19 14 15 17 14 9 11 13 13 15 15 15 14 17 20 30 40 50 45 43 44 45 41 38 38 32 30 26 26 23 25
7 11 13 17 13 13 16 20 18 18 18 19 20 25 25 30 31 26 20 17 15 14 11 10 11 11 15 16 17 17 16 18 21 35 41 41 44 40 39 43 38 34 36 32 31 28 26 24 19
11 13 17 13 12 11 11 14 13 10 8 9 24 26 29 29 33 28 22 20 16 12 11 13 14 14 13 14 17 22 23 21 26 32 39 41 36 37 38 41 37 34 35 32 31 27 27 26 20
19 20 20 19 14 15 15 17 16 11 6 13 16 20 29 29 37 32 27 21 14 12 15 17 15 13 11 12 13 18 27 28 28 35 36 41 40 38 38 41 37 37 37 34 33 32 32 29 26
18 17 12 17 14 13 13 19 13 11 8 22 31 30 15 39 42 36 30 22 15 16 18 19 16 13 11 8 11 15 22 30 35 39 46 47 45 42 35 39 36 38 36 37 34 34 33 30 27
17 12 16 17 9 8 0 17 16 16 19 15 25 31 26 35 39 37 31 23 18 17 21 19 18 15 11 7 8 12 23 31 38 39 40 48 50 39 40 38 37 36 34 35 35 32 32 32 32
15 11 13 13 10 7 4 11 5 12 21 19 9 22 31 46 41 38 32 23 19 18 24 23 19 17 17 12 11 12 27 31 33 40 46 52 54 46 38 37 38 36 37 34 30 33 32 29 24
6 4 8 9 2 9 10 12 4 10 16 15 16 23 31 46 41 37 29 24 21 18 25 26 23 21 20 18 18 16 23 32 38 45 47 53 54 54 48 46 45 33 34 35 31 32 29 24 20
9 7 1 2 2 6 8 11 12 15 19 23 18 15 21 41 40 37 33 29 24 22 26 27 27 25 23 24 22 21 23 31 36 42 47 55 53 49 46 42 42 47 36 36 32 31 29 25 24
6 7 6 8 5 3 9 7 6 10 17 29 23 16 24 38 40 38 35 31 24 23 27 29 30 28 27 27 26 26 26 30 36 37 50 53 44 38 45 50 47 35 35 40 37 30 28 26 27
6 9 9 10 4 3 4 6 10 15 21 11 6 7 27 34 38 39 36 30 24 24 28 29 29 30 32 31 28 29 27 27 31 33 41 43 45 47 51 47 40 36 37 36 31 31 31 30 34
11 4 8 6 13 7 5 5 3 16 13 5 15 6 26 36 38 37 36 32 24 23 24 27 27 30 33 33 32 32 31 28 29 36 42 43 45 48 48 42 42 40 39 44 35 29 29 30 30
5 11 2 3 9 5 2 4 6 4 7 10 14 15 22 23 40 39 39 35 27 25 26 27 29 27 28 37 33 33 33 30 30 36 39 39 40 46 45 44 45 44 43 43 44 43 36 33 34
8 7 9 8 5 3 7 7 7 9 7 10 13 29 28 26 19 38 38 38 34 28 27 26 29 28 27 28 36 34 35 32 34 33 36 36 38 39 39 40 42 41 38 39 43 43 37 34 35

GFSSGP_850_spd_102.txt.gz
Wind_Speed
3 4 2 2 3 4 3 6 4 7 1 6 8 8 6 5 3 4 15 10 7 6 6 4 3 3 9 17 20 21 21 16 20 20 19 20 20 20 19 18 17 16 18 21 22 22 22 19 18
6 5 1 1 4 2 5 5 6 7 10 13 11 8 4 2 9 10 14 13 8 2 5 5 3 1 6 15 20 20 21 23 22 20 20 21 22 21 19 18 18 18 21 22 23 23 22 21 20
6 5 2 3 4 5 5 2 4 6 14 7 5 4 6 10 13 10 10 10 4 1 5 6 5 5 5 11 20 22 23 23 23 23 22 23 23 21 20 18 19 21 21 22 23 24 24 23 23
4 3 3 2 9 7 5 7 11 5 8 11 11 3 6 14 15 14 14 11 6 3 7 8 8 7 8 10 18 23 23 24 22 25 26 24 23 20 18 17 19 21 23 24 25 27 27 24 24
6 2 1 4 7 7 5 16 17 7 6 8 12 5 5 13 15 18 15 11 7 8 9 11 11 10 10 12 16 22 23 23 25 25 25 24 19 13 15 16 20 22 23 24 26 28 28 27 26
3 1 1 5 7 7 7 28 14 7 4 3 6 6 2 11 13 12 14 14 11 11 11 14 14 13 12 14 16 20 23 27 26 26 27 31 16 14 15 14 19 21 20 23 30 28 30 31 27
6 4 5 4 9 8 5 10 6 5 6 5 7 5 12 21 18 18 17 15 11 11 9 13 15 15 15 16 18 23 27 30 31 29 28 16 22 24 17 19 20 18 18 26 30 31 35 31 27
6 4 3 5 6 8 6 14 8 7 8 4 5 5 7 26 25 22 18 13 11 9 7 7 10 14 16 17 21 24 27 31 31 31 33 31 21 20 30 21 21 17 20 29 32 38 34 31 25
6 2 5 7 6 6 16 6 19 14 7 9 9 12 16 22 27 23 19 16 12 11 8 7 9 10 13 18 19 23 25 28 31 28 30 28 22 33 30 24 24 19 22 30 34 38 35 28 23
6 5 9 8 7 10 18 9 19 7 10 7 8 5 6 20 29 26 21 17 14 12 10 10 9 11 12 15 17 22 27 28 33 32 33 22 22 26 24 30 27 23 25 31 37 39 34 26 24
6 11 10 16 22 21 21 14 23 5 6 12 7 6 9 28 27 24 19 18 12 9 12 13 13 14 12 14 15 18 26 29 32 34 31 28 32 33 29 33 32 28 29 35 40 40 34 28 25
7 13 16 22 30 23 14 30 13 15 20 24 20 10 14 27 28 25 22 17 15 14 14 16 16 14 12 14 15 17 24 31 34 32 32 32 35 39 38 42 39 34 33 38 41 42 37 30 24
9 15 24 29 30 32 31 17 15 21 34 25 24 20 15 21 25 26 22 18 17 19 19 18 16 14 13 14 14 17 21 25 28 31 32 37 40 36 44 51 45 37 36 38 42 41 40 32 22
14 15 22 25 25 15 10 9 3 27 23 23 27 29 25 23 24 28 27 25 21 19 18 18 17 15 15 16 16 18 20 21 26 32 37 43 41 35 54 50 44 39 38 39 42 44 41 32 26
15 13 9 6 7 7 17 9 9 32 29 28 32 36 31 27 23 26 27 27 22 21 19 17 16 17 15 16 17 18 17 14 16 28 33 39 44 53 56 51 44 41 39 40 42 43 38 34 26
5 4 5 3 1 4 3 10 12 30 26 31 36 41 38 30 30 27 30 26 23 20 16 14 14 18 14 16 17 15 16 14 14 12 27 37 52 55 51 48 44 41 41 41 43 46 39 37 29
3 13 10 5 4 4 5 12 10 29 24 27 31 40 30 33 31 31 32 28 24 18 13 12 13 12 13 16 14 15 15 12 17 21 24 40 52 53 52 47 45 43 42 42 45 46 40 34 29
8 7 6 5 4 6 10 19 11 27 20 27 26 20 27 32 33 37 33 28 22 17 13 12 12 15 16 18 16 15 13 13 15 28 27 31 52 51 47 46 46 46 45 43 42 43 36 30 31
10 8 11 1 5 7 9 14 9 12 16 14 21 22 23 24 31 38 34 29 24 19 15 11 17 17 18 20 19 20 18 17 16 29 39 33 43 45 46 47 48 47 45 41 38 34 32 27 32
12 14 20 12 11 13 13 20 10 8 8 19 23 21 17 20 30 37 34 31 26 20 16 14 18 17 18 19 21 23 21 17 17 31 41 44 48 42 44 48 49 48 43 40 37 34 33 30 30
15 17 14 15 14 16 12 20 8 6 8 22 30 24 17 21 39 42 39 35 27 23 18 17 19 16 15 15 15 18 23 22 20 28 48 47 46 42 45 48 48 47 43 39 40 34 35 36 32
18 17 17 15 10 8 6 13 9 9 15 14 24 27 18 23 35 46 42 36 31 24 20 19 19 16 12 12 16 18 23 28 28 27 47 47 45 42 40 48 44 42 44 40 41 33 35 36 36
13 17 15 16 9 4 4 4 4 4 9 15 16 26 16 23 38 49 47 39 30 24 21 19 19 16 12 11 11 16 20 27 29 34 37 40 42 42 42 46 40 41 40 39 42 37 36 35 34
12 14 15 13 5 10 7 6 6 4 8 7 16 26 18 18 36 43 45 36 30 25 23 19 20 17 14 12 11 15 20 26 30 38 44 44 45 48 47 46 44 44 45 47 40 36 34 34 33
6 3 4 3 2 5 6 5 14 10 12 16 19 23 31 22 38 46 44 40 34 29 26 22 21 20 18 16 14 14 18 20 26 38 41 47 45 47 47 45 47 47 44 36 36 35 32 35 33
8 9 5 8 5 4 7 5 5 4 8 18 20 17 17 21 39 49 45 41 35 29 26 24 23 21 22 22 19 16 13 17 22 28 34 44 51 48 46 48 44 42 41 44 43 36 36 34 30
9 7 8 5 3 3 4 5 7 5 11 17 15 28 19 30 33 44 42 39 34 29 27 26 24 23 24 24 23 21 19 19 19 25 30 38 48 50 47 43 40 36 31 31 32 36 39 34 30
10 5 4 3 8 6 4 4 5 3 11 19 16 16 14 8 23 38 42 38 32 28 26 26 24 24 27 26 26 25 24 23 22 26 33 37 46 52 47 40 39 40 39 39 36 40 35 31 32
5 10 1 4 4 10 1 5 5 6 8 9 14 16 27 17 12 18 40 37 32 29 28 27 25 26 28 30 29 27 26 25 25 28 32 35 37 34 39 48 47 44 41 38 33 38 40 37 33
4 4 6 4 2 3 4 5 2 6 6 7 9 22 28 31 27 23 27 37 35 31 29 29 27 27 27 31 33 32 28 30 29 28 28 32 33 37 38 39 42 43 37 38 39 40 39 36 33

GFSSGP_850_spd_108.txt.gz
Wind_Speed
8 7 5 3 3 5 3 5 3 4 2 3 6 5 7 4 5 5 19 16 13 10 8 10 8 8 10 14 17 19 17 16 19 24 27 27 25 26 26 24 23 22 21 20 20 21 20 20 22
9 8 4 4 4 2 5 4 4 6 8 4 3 5 2 2 4 5 23 14 12 9 9 10 9 10 12 15 18 19 19 18 20 22 26 25 20 24 26 24 22 20 20 19 20 21 22 22 22
10 8 2 4 3 5 5 5 4 3 5 5 1 4 2 3 7 6 15 14 14 11 11 10 9 10 14 18 20 20 21 21 23 27 28 28 28 27 25 22 20 20 18 18 20 22 22 21 20
7 5 4 4 6 6 6 3 4 11 10 7 4 4 5 7 5 11 15 12 14 12 10 11 10 10 14 18 21 22 23 23 22 23 19 27 27 24 18 17 17 16 17 20 21 21 20 19 18
8 3 3 1 5 5 6 7 9 6 5 10 7 5 5 6 10 10 16 13 15 13 12 12 10 11 13 17 21 23 23 23 24 22 25 20 21 16 14 15 14 13 16 19 22 22 21 20 20
3 2 3 4 5 4 6 14 8 5 11 18 4 4 5 8 15 13 18 16 14 13 11 11 9 11 13 15 19 23 24 22 22 27 31 20 23 23 15 13 12 12 17 20 22 23 22 21 21
6 4 5 4 4 4 6 5 2 2 2 3 4 6 10 14 15 17 19 20 17 15 13 12 11 11 13 14 16 19 22 21 24 27 26 28 35 21 23 17 12 14 19 20 22 23 23 22 22
5 4 3 5 4 7 6 3 3 6 4 4 3 4 6 13 17 20 20 21 20 18 15 13 13 12 14 14 16 18 19 23 26 26 31 31 28 31 25 26 17 16 16 18 22 25 22 21 21
7 2 5 6 8 6 3 2 3 10 9 10 4 11 13 15 16 23 24 25 24 22 20 16 14 13 14 14 15 17 20 24 25 28 24 30 31 28 28 26 25 22 20 20 24 25 22 21 21
5 5 10 7 7 6 3 4 8 6 17 15 22 13 19 16 18 25 28 29 29 27 23 19 16 14 14 13 13 17 22 26 28 31 30 31 26 29 33 35 23 30 24 22 28 25 24 24 23
6 7 5 6 15 12 3 7 12 2 8 18 20 34 27 21 17 27 29 31 31 28 24 20 17 17 16 15 13 16 23 28 31 31 29 33 26 31 33 29 29 31 25 23 30 29 29 26 23
5 9 13 8 19 9 7 9 5 10 20 32 31 33 27 22 24 24 28 31 32 30 25 21 19 21 19 17 15 16 20 27 32 34 36 36 32 37 30 35 33 29 26 22 32 32 30 27 22
7 3 13 23 22 17 22 17 12 19 37 31 27 26 24 22 25 28 27 32 34 32 28 25 23 24 21 18 18 18 19 21 28 32 35 36 39 35 38 39 36 34 31 28 35 35 33 29 22
5 11 19 23 21 17 12 20 11 25 23 23 26 28 26 22 24 27 33 34 36 32 32 28 28 26 21 19 19 19 20 20 23 29 33 33 35 37 40 45 37 31 36 32 35 38 34 30 22
9 8 7 7 8 7 8 7 14 33 30 26 26 24 19 20 21 29 32 33 36 36 34 32 29 25 21 19 18 18 20 19 22 27 31 29 34 40 40 47 39 37 35 32 36 39 32 28 24
3 4 3 4 10 6 9 25 3 12 14 15 16 23 23 20 22 26 29 34 37 39 38 33 29 24 20 20 19 19 19 20 21 25 29 31 35 41 41 45 38 40 38 33 38 40 34 29 27
4 5 5 4 7 4 10 17 3 4 9 17 22 21 27 31 29 26 21 28 37 39 39 35 30 24 21 19 19 18 18 20 21 23 27 31 39 43 46 44 40 40 38 36 38 41 38 32 27
5 6 4 6 3 6 8 18 7 20 13 17 21 30 32 31 31 31 19 23 33 38 38 32 28 24 21 19 18 17 18 18 20 24 27 28 32 43 50 47 45 42 41 40 40 44 38 32 27
9 5 8 2 4 2 7 16 7 12 16 14 24 27 29 31 27 28 22 20 27 35 37 33 30 26 22 21 20 22 22 19 21 22 26 29 26 30 45 53 51 47 43 43 43 46 41 31 31
9 14 19 4 5 6 11 27 13 6 8 20 22 27 31 27 26 27 21 20 25 33 36 34 32 26 22 21 19 21 21 21 21 18 19 18 24 29 39 52 48 48 47 50 48 50 42 35 35
16 19 9 8 1 7 3 25 16 9 9 20 23 25 26 29 30 27 24 22 27 35 37 35 31 25 21 20 18 18 17 19 19 22 13 23 28 27 34 42 47 45 45 49 50 50 48 42 38
16 10 8 9 5 6 5 10 2 5 9 5 14 23 27 28 27 27 27 24 32 39 38 33 28 23 20 21 21 21 22 22 23 17 19 22 29 29 32 35 31 42 45 45 47 48 47 44 40
8 10 12 7 6 2 3 4 5 2 3 8 5 18 27 29 26 20 31 28 33 40 36 32 28 22 21 22 21 20 23 20 19 19 18 25 36 34 33 32 33 43 42 42 46 49 47 43 41
7 3 3 3 4 5 8 7 3 3 4 4 6 20 29 24 20 24 28 28 30 36 34 33 28 23 22 21 21 18 16 15 15 16 19 29 36 41 37 36 36 42 41 41 45 49 47 44 40
7 7 2 1 3 6 10 7 9 5 3 6 4 17 26 31 22 21 24 26 29 33 36 35 29 25 24 21 19 15 14 12 15 14 18 31 35 38 35 35 38 40 39 40 41 45 47 43 39
11 14 5 7 4 4 7 6 5 10 8 10 11 20 32 41 31 22 20 27 26 29 34 35 31 26 24 21 19 15 14 15 13 14 16 32 32 36 34 32 38 40 37 36 37 39 43 42 38
5 9 8 3 1 1 4 4 8 5 7 7 8 22 25 31 37 26 20 19 23 26 32 32 29 25 22 22 19 17 16 16 15 16 17 27 36 41 34 40 36 32 36 40 36 40 42 40 36
9 7 3 1 6 7 3 3 4 2 6 7 5 9 18 34 42 36 16 16 16 21 27 30 25 21 19 19 18 17 15 17 15 15 17 20 25 35 44 46 45 43 43 48 49 46 42 41 41
4 5 4 5 5 5 2 5 4 4 4 8 4 12 20 34 36 34 9 10 11 18 27 25 20 19 18 18 16 14 13 14 16 17 17 17 23 31 41 43 44 44 45 46 51 52 49 45 40
1 4 10 5 7 2 3 5 5 7 8 7 6 15 17 31 33 27 9 4 8 14 17 17 17 18 18 17 17 16 15 13 12 14 18 19 19 23 33 41 41 44 45 46 48 49 48 49 47

GFSSGP_850_spd_111.txt.gz
Wind_Speed
9 8 8 5 2 1 3 4 2 3 3 4 8 6 7 2 5 3 10 19 15 11 8 7 7 6 9 11 13 14 16 16 18 23 26 28 26 25 25 24 21 20 19 19 20 20 19 18 17
9 11 7 4 3 3 3 2 6 6 3 2 8 6 4 2 4 7 17 16 13 11 10 9 10 8 11 12 14 15 16 15 18 22 25 24 25 26 24 23 21 20 19 19 19 17 17 18 21
12 11 3 3 3 6 4 5 5 3 8 6 4 4 3 3 7 9 11 14 13 14 11 12 11 9 11 13 16 17 17 18 20 23 25 28 27 26 25 22 20 17 16 17 17 17 17 22 22
10 6 3 3 9 5 5 4 5 8 2 8 3 3 3 7 5 8 14 18 14 14 13 13 10 9 11 14 17 19 20 19 25 25 24 26 20 23 20 21 18 15 14 15 17 19 21 21 18
11 3 2 3 6 4 7 8 7 6 4 5 5 4 4 6 10 9 17 18 17 17 15 13 11 9 10 14 18 19 20 20 19 22 23 23 20 11 18 18 16 14 15 16 18 19 21 20 17
4 3 2 9 8 4 6 10 4 3 4 5 3 3 6 9 8 11 13 18 19 18 15 14 12 10 11 13 17 21 21 19 21 25 26 24 17 30 24 19 16 12 12 16 19 19 21 20 19
5 3 4 4 4 4 5 6 4 2 3 2 3 4 6 13 11 13 15 18 20 20 19 16 14 11 12 14 16 20 21 22 24 26 25 23 25 28 25 23 19 14 7 17 20 20 20 20 19
5 3 5 5 9 9 6 4 5 2 1 3 2 1 2 8 12 15 18 18 22 22 20 18 16 13 13 14 17 19 21 24 26 27 29 31 25 25 23 16 14 14 17 20 21 21 21 21 21
6 4 8 10 10 6 4 4 5 1 2 6 4 3 11 14 21 15 20 20 24 25 24 21 17 14 14 14 16 19 21 24 26 28 32 32 27 33 27 27 22 22 18 19 21 21 22 21 20
6 7 12 6 8 6 4 4 2 3 6 6 10 7 18 17 18 17 22 25 27 28 27 24 19 15 15 15 18 20 24 26 28 30 33 32 35 29 29 23 26 17 26 23 21 23 23 22 21
6 13 6 5 12 8 7 9 5 6 8 12 11 22 21 21 18 18 21 26 27 29 29 26 20 17 18 18 19 21 26 28 30 30 33 36 36 30 30 30 25 28 26 25 23 27 27 26 24
7 8 15 11 11 7 6 6 10 13 18 27 23 22 23 20 19 20 23 25 30 30 30 26 23 22 21 20 20 20 26 29 31 33 34 35 34 34 35 32 34 22 27 27 29 31 28 26 23
8 5 9 16 20 15 17 21 21 12 23 28 26 23 20 21 22 21 22 27 30 32 32 30 26 26 25 22 22 21 24 27 28 31 34 35 36 36 35 33 36 30 32 30 29 32 29 27 23
6 7 15 14 17 12 16 24 14 16 26 25 24 25 23 23 21 20 24 25 28 32 30 33 32 30 27 24 22 22 22 24 24 27 33 35 36 40 35 40 34 34 35 33 28 32 32 28 24
6 12 11 11 9 9 6 20 16 26 29 25 26 26 25 20 17 17 21 27 29 33 32 33 35 33 29 25 23 22 22 21 23 26 28 35 36 40 38 39 37 40 35 32 31 33 31 29 24
5 5 6 1 11 8 12 26 6 11 11 16 16 13 16 22 16 20 24 25 27 35 34 34 36 34 30 27 24 22 22 21 22 24 27 29 34 33 39 39 42 44 38 36 32 36 33 31 25
6 14 10 5 8 5 16 18 4 4 3 7 12 17 20 22 24 20 21 23 24 28 32 34 36 35 31 27 24 20 20 21 23 24 24 28 32 41 40 43 48 46 38 38 35 36 36 32 27
10 11 9 15 6 10 15 19 13 16 13 13 16 18 24 30 30 24 22 20 21 23 27 29 32 34 30 26 23 21 23 21 23 26 26 29 30 37 42 46 51 50 39 41 38 39 38 33 29
13 11 14 6 2 6 13 21 18 15 15 13 20 23 26 32 30 27 21 21 21 18 21 25 31 34 32 29 25 25 23 21 24 24 26 27 30 37 40 50 50 48 42 46 41 43 42 36 31
17 20 25 14 12 11 19 28 20 17 19 26 26 26 26 29 29 25 20 22 21 18 20 24 30 32 32 27 24 24 20 21 21 22 23 26 29 32 36 39 47 47 48 49 43 46 45 38 34
20 23 18 17 8 10 10 29 20 18 23 25 22 26 22 19 21 23 24 23 21 21 22 24 30 32 31 26 24 23 21 22 23 24 26 24 25 29 34 40 45 53 46 48 45 48 49 44 37
19 11 17 15 9 11 6 12 3 9 12 9 12 6 8 13 17 20 18 22 21 23 22 26 30 32 29 26 23 23 23 25 26 26 26 25 23 28 33 39 43 49 52 46 46 46 50 45 43
9 10 15 16 15 10 16 8 2 4 5 1 5 6 10 12 15 15 19 19 20 24 24 25 29 31 29 25 24 21 23 22 20 23 23 29 26 27 35 38 49 48 52 49 49 48 50 48 45
6 6 5 3 6 8 13 12 4 9 7 7 4 7 10 17 15 11 12 17 18 22 25 24 31 32 28 25 23 21 23 23 22 22 24 26 26 26 38 35 40 42 47 50 50 49 49 48 46
17 12 6 7 6 9 6 11 11 7 5 8 8 8 12 18 23 15 11 8 11 18 20 24 32 31 27 25 22 20 19 16 14 17 21 24 26 32 39 31 38 40 42 41 42 47 48 47 45
19 17 8 9 7 7 9 9 6 12 11 11 7 9 15 21 23 20 12 7 9 13 16 21 31 30 27 24 21 17 13 13 13 15 15 18 23 29 36 33 34 32 35 38 38 42 45 46 43
9 17 16 2 1 3 6 6 8 8 14 8 6 13 19 21 23 23 14 6 5 9 15 20 28 30 25 25 20 15 14 13 14 11 13 13 21 25 32 37 34 32 33 32 33 39 44 41 37
10 17 9 6 9 7 4 3 4 12 13 10 8 13 15 18 23 23 22 16 10 6 13 21 26 28 24 25 18 14 13 13 13 12 11 17 20 26 29 31 30 32 31 30 29 35 39 40 35
12 11 7 9 5 10 9 5 4 1 14 10 11 14 16 20 23 24 21 18 12 5 10 21 23 25 21 20 16 13 15 15 12 12 13 12 21 23 31 30 31 29 30 33 35 32 33 38 39
11 21 11 11 13 7 5 5 3 6 10 10 12 14 17 23 25 24 23 17 9 5 10 18 20 19 18 17 14 14 15 13 14 13 12 12 13 25 33 34 37 42 39 35 43 48 49 48 45

GFSSGP_850_spd_114.txt.gz
Wind_Speed
9 7 6 4 7 6 11 7 2 6 6 7 6 7 7 4 1 3 4 14 17 13 8 5 4 6 5 6 7 9 12 13 15 19 22 24 25 24 24 24 22 20 18 17 19 18 17 17 17
9 9 5 4 7 10 10 7 10 7 4 3 7 9 6 4 3 2 13 16 17 12 10 7 8 8 8 8 9 10 11 13 15 19 22 24 26 26 26 25 23 19 18 18 20 18 17 17 16
12 11 7 5 9 13 9 8 7 7 3 8 9 8 4 3 7 7 8 14 15 16 13 11 10 10 10 10 11 12 14 15 16 20 21 23 26 24 23 23 22 20 18 18 17 16 16 17 18
8 6 6 9 15 10 9 7 6 3 4 10 9 6 5 5 6 7 11 16 16 16 17 13 12 11 10 11 13 15 16 15 17 19 23 26 22 19 15 16 17 19 17 16 15 14 15 19 20
9 6 10 13 18 14 8 6 5 6 3 8 11 7 4 5 7 8 16 20 18 19 18 14 13 11 9 11 13 16 17 17 17 17 21 21 26 6 15 13 17 16 16 15 15 14 18 20 19
10 7 10 15 19 10 11 13 11 10 6 8 9 11 10 5 5 8 13 19 21 20 17 15 14 11 9 10 13 17 17 16 18 19 19 26 24 11 14 19 18 16 15 14 15 14 20 19 17
16 10 16 18 17 11 12 9 11 9 8 9 6 13 6 5 1 9 12 21 20 22 19 17 15 13 11 11 12 16 17 19 20 23 23 25 24 18 16 26 22 19 15 16 17 17 19 21 18
15 10 20 15 17 18 6 9 8 11 6 3 6 6 10 1 6 5 10 16 19 23 22 19 17 15 13 13 13 15 18 20 21 24 24 24 22 21 25 26 24 21 14 14 16 17 19 21 19
10 11 16 18 18 13 4 10 9 6 7 5 3 4 1 5 6 3 6 15 19 23 24 22 19 17 14 15 14 14 17 21 24 25 26 25 24 28 24 27 24 13 12 18 17 21 22 23 20
14 15 22 17 14 11 6 11 6 9 14 11 8 7 5 6 5 5 8 12 18 22 25 25 23 20 17 17 17 16 18 21 24 27 27 26 26 27 25 29 20 17 15 16 20 20 22 22 22
15 23 17 14 17 19 17 16 15 13 16 16 15 8 10 10 9 9 10 13 16 18 22 26 25 22 20 20 19 19 21 21 23 25 28 27 27 26 29 22 19 22 20 23 21 21 25 24 20
17 20 21 21 21 17 18 21 17 19 21 18 15 17 16 16 14 12 12 13 15 18 21 26 26 25 22 22 21 22 24 25 27 28 29 33 31 27 25 22 22 31 24 26 24 27 26 21 18
20 19 22 20 23 24 21 23 23 27 20 25 21 21 20 19 18 16 15 14 15 19 21 25 28 28 27 25 25 25 24 25 27 28 31 33 33 29 26 22 23 27 27 27 26 29 25 22 18
15 16 19 21 22 24 23 26 27 22 18 27 24 24 24 21 22 19 18 17 17 18 23 24 29 31 31 29 27 25 25 24 27 28 29 33 34 35 29 27 26 28 30 29 30 27 27 26 18
17 18 19 20 22 20 18 25 27 27 28 32 32 27 24 23 22 21 19 18 17 18 22 26 28 33 35 32 28 27 25 25 25 27 27 30 34 37 37 32 28 28 33 30 29 27 28 20 19
13 17 17 13 11 21 20 25 3 3 12 16 19 22 20 20 18 19 19 19 17 18 22 25 27 33 37 35 31 28 26 25 26 26 24 27 30 35 36 33 31 35 34 30 31 31 27 23 22
17 19 21 15 10 13 18 19 15 7 15 19 17 17 16 17 18 20 20 20 18 19 20 26 30 33 36 36 33 28 27 24 24 26 25 26 29 33 33 38 33 37 32 32 36 34 27 25 25
16 20 18 22 17 17 22 23 17 17 13 14 15 17 19 21 23 23 21 20 18 21 19 24 27 30 34 37 33 29 27 26 24 26 27 28 30 34 35 39 36 38 36 34 36 38 29 26 27
22 24 22 18 7 13 17 21 20 19 24 21 24 27 26 25 26 25 22 20 22 21 17 22 25 28 35 39 37 32 30 27 24 24 27 28 28 33 33 38 35 41 41 39 41 36 30 28 27
24 26 28 21 17 14 21 28 25 23 22 26 26 28 30 31 27 24 20 18 23 20 17 20 24 28 35 38 36 32 29 25 24 25 25 28 29 30 33 34 39 43 44 41 42 40 34 31 31
24 25 20 21 16 17 20 31 25 26 30 31 31 33 30 25 22 19 18 19 18 21 19 19 24 28 32 32 34 27 19 23 24 24 26 27 28 32 32 38 39 45 49 49 46 41 37 38 35
23 20 19 18 13 16 14 22 15 4 8 11 17 15 14 13 13 16 18 19 18 18 19 19 22 27 28 29 29 28 23 19 21 23 25 26 25 28 32 31 37 49 52 50 51 46 42 37 36
25 17 15 15 15 16 21 11 11 11 13 11 8 7 7 6 8 10 12 16 14 16 19 19 23 26 29 28 24 23 18 16 15 17 21 24 27 28 32 31 38 41 53 53 52 50 46 42 38
18 12 11 10 10 14 20 16 11 12 10 7 5 6 1 3 4 5 6 6 11 13 17 18 22 28 33 32 25 22 21 19 20 19 22 26 27 30 32 29 32 42 46 49 50 51 51 47 41
25 18 10 10 10 17 9 13 18 4 6 7 7 5 3 5 7 7 5 2 8 13 15 18 25 30 32 33 28 23 20 20 21 20 20 25 27 32 30 32 33 43 50 41 55 53 53 46 43
23 25 12 19 13 14 12 10 9 13 14 10 10 5 4 6 8 10 6 2 4 9 12 18 26 28 31 31 26 22 19 16 16 16 18 19 21 26 28 31 36 40 44 48 55 49 52 50 45
26 22 28 18 13 8 12 16 8 7 15 14 10 6 5 7 10 11 10 6 2 4 10 16 23 23 29 25 21 20 18 16 14 15 15 15 16 18 22 29 32 38 42 46 46 54 54 48 45
24 23 21 14 19 20 18 18 8 14 17 16 10 7 6 9 10 10 9 8 5 2 6 11 18 21 25 21 20 17 18 15 14 16 14 13 15 13 14 20 29 28 30 34 41 43 42 44 44
17 16 19 20 16 15 14 12 8 14 17 15 10 8 8 10 11 12 12 10 11 6 2 8 15 18 20 23 21 18 16 15 15 14 12 10 12 12 13 18 26 30 29 27 35 32 34 40 40
22 21 24 14 23 16 12 7 5 8 16 13 12 12 11 12 13 15 15 11 9 7 2 4 15 17 18 20 21 18 16 15 16 14 11 10 11 11 14 19 26 30 32 30 27 30 32 32 34

GFSSGP_850_spd_117.txt.gz
Wind_Speed
9 6 4 9 8 8 16 18 7 3 4 9 4 5 5 4 2 3 5 9 13 13 9 7 6 4 3 3 5 6 9 11 13 15 18 20 19 20 21 21 20 19 19 18 17 16 15 15 14
7 7 9 13 9 14 14 17 8 10 5 5 7 6 5 6 5 7 11 12 14 13 9 5 4 4 2 4 6 6 8 10 11 14 18 19 21 23 24 23 22 22 19 18 18 15 16 16 16
11 10 14 9 15 16 16 5 6 7 7 10 9 11 8 7 6 9 12 14 14 13 11 6 8 6 5 6 7 8 9 10 11 13 15 18 19 20 13 18 13 17 20 19 19 18 16 17 15
8 9 14 12 20 17 16 11 6 6 10 12 13 8 7 2 9 8 12 16 14 13 12 11 11 8 7 7 8 9 10 11 11 10 12 15 14 15 18 13 15 18 17 19 16 16 16 15 14
14 14 14 18 22 23 9 11 3 7 8 11 15 11 7 10 7 9 13 16 16 15 15 14 12 10 8 8 9 10 12 12 11 12 14 17 20 12 7 15 20 9 10 14 15 13 12 16 17
17 18 15 16 22 21 13 9 11 13 12 13 17 17 11 12 9 10 14 17 16 16 17 14 13 11 8 7 9 10 12 12 11 12 14 20 19 12 7 18 12 14 14 13 13 12 14 17 19
18 14 19 21 21 21 7 12 12 16 17 17 14 16 16 11 6 8 13 16 15 16 17 16 15 13 10 7 8 10 12 13 14 14 17 19 18 13 15 14 17 18 17 15 12 14 18 20 17
23 15 25 21 17 24 15 12 12 20 19 10 9 10 17 13 5 7 11 14 16 15 17 18 17 15 12 9 9 10 12 15 16 17 18 18 17 14 12 13 19 18 16 16 15 14 20 20 18
18 15 19 22 21 20 16 7 17 14 18 9 17 14 4 6 7 8 10 13 15 16 16 16 17 17 15 12 10 11 13 17 18 19 20 19 19 17 14 20 21 18 17 14 15 17 20 20 19
19 16 26 19 17 16 14 8 18 13 18 17 14 13 9 7 9 11 12 14 16 18 18 18 18 17 18 15 14 13 14 17 20 21 21 22 19 19 20 20 22 21 14 11 15 16 18 21 20
25 25 23 21 23 20 15 21 19 18 17 23 24 21 18 15 12 13 14 15 16 18 18 20 20 19 19 18 17 15 15 14 16 20 20 23 21 21 22 22 24 23 15 14 19 16 19 21 19
25 30 27 25 30 23 20 24 24 24 22 24 18 19 12 17 17 17 16 16 17 18 19 21 22 21 24 20 21 16 18 16 16 18 23 23 23 24 22 20 19 25 20 22 22 22 19 19 19
28 25 31 29 27 27 29 27 24 28 25 24 25 26 22 24 23 20 19 18 17 19 20 22 23 23 24 26 22 20 21 19 19 19 22 25 24 26 26 21 22 23 24 25 22 19 21 20 19
26 28 26 28 32 30 25 27 28 32 29 31 33 30 28 29 27 24 23 24 20 19 21 23 24 25 25 27 29 27 22 22 24 24 23 26 27 28 27 26 24 20 25 30 25 23 25 23 21
26 25 23 25 25 24 24 28 29 31 32 35 32 31 32 32 30 30 28 27 25 22 21 24 25 26 27 29 31 30 23 22 25 25 25 28 28 30 29 27 27 27 28 27 22 27 26 23 21
23 22 22 21 25 27 27 34 24 19 20 38 34 35 34 32 31 30 29 28 27 24 23 24 25 28 30 26 25 24 27 25 24 23 24 27 27 29 30 28 30 27 24 26 28 29 28 24 21
20 22 26 26 21 18 16 27 22 29 29 17 21 21 24 25 27 29 26 26 26 24 23 22 26 28 31 28 25 25 26 27 25 24 23 24 27 27 30 32 32 29 29 28 31 29 27 28 25
20 20 21 22 19 20 22 25 22 25 19 18 22 24 22 24 23 22 23 24 24 23 22 22 25 29 31 30 28 25 26 29 28 26 24 22 24 25 27 31 31 32 32 31 32 28 29 27 25
20 25 27 26 20 20 21 22 19 22 28 25 27 27 23 22 20 23 24 24 25 23 22 21 24 28 32 33 35 39 35 30 29 26 24 24 24 24 27 28 32 32 34 33 32 30 33 30 27
25 27 30 28 26 21 24 23 22 22 25 27 27 28 27 27 28 26 25 25 25 24 23 21 23 27 32 38 41 31 26 25 20 20 20 23 26 29 29 29 32 32 35 34 34 35 40 34 29
30 27 28 26 24 19 23 28 25 27 30 35 36 34 30 29 28 28 26 25 22 25 23 22 23 26 33 40 33 23 22 25 27 26 23 21 22 28 31 32 33 32 32 44 41 39 43 40 36
26 27 26 23 20 18 21 22 22 24 25 23 28 34 33 29 28 24 20 21 23 26 22 22 23 25 35 33 29 29 25 27 24 19 19 22 23 26 30 30 33 33 35 41 39 42 43 40 39
31 25 25 22 18 20 25 18 15 15 19 17 14 16 17 9 11 15 18 19 21 23 21 20 22 25 31 29 28 30 25 18 15 17 18 20 18 22 25 30 34 33 44 48 46 45 44 45 41
26 23 26 20 16 17 25 22 19 17 12 11 4 2 7 7 7 7 8 9 14 13 16 19 21 25 28 31 30 27 26 21 19 18 17 19 20 22 25 27 30 33 36 48 47 46 49 46 42
28 22 17 16 15 20 23 21 19 13 11 11 15 12 10 8 4 1 1 1 5 11 14 16 20 24 29 33 30 26 23 22 19 17 17 18 20 25 29 31 31 34 31 43 54 47 51 50 46
28 26 17 24 16 21 22 19 18 17 16 10 11 13 10 6 5 6 5 3 2 7 10 14 17 24 32 30 29 24 22 19 17 18 15 18 19 23 29 30 29 33 34 33 44 51 49 53 49
26 25 27 26 20 14 13 18 19 15 13 14 13 13 9 7 6 8 7 6 2 3 8 12 17 23 28 31 26 22 20 18 15 15 14 15 20 21 21 24 28 29 32 35 46 53 49 54 53
23 21 23 18 23 23 17 18 16 19 14 21 15 10 9 8 7 7 7 7 5 2 6 10 17 20 23 23 25 19 19 18 15 15 16 17 17 18 17 17 19 23 31 40 46 49 50 49 53
13 19 21 18 19 18 15 15 16 14 18 19 16 13 9 8 8 7 8 7 4 3 3 7 13 20 20 22 23 19 17 15 15 14 16 15 14 13 12 12 14 17 25 39 44 46 49 55 54
21 21 23 11 21 18 16 14 12 12 14 15 14 13 12 12 11 11 10 9 6 4 2 2 9 16 18 23 20 18 15 14 14 15 13 14 12 8 7 8 11 15 18 26 35 40 45 49 48

GFSSGP_850_spd_120.txt.gz
Wind_Speed
7 5 3 8 6 8 15 19 20 12 2 4 9 2 6 14 11 5 14 12 14 13 12 11 9 7 4 2 1 3 4 6 7 9 10 9 9 10 11 13 14 14 14 13 14 13 14 13 12
7 5 8 11 8 12 14 24 19 5 12 9 3 3 3 2 15 14 15 14 13 15 13 9 7 5 3 3 3 2 3 4 6 8 9 9 9 9 10 11 11 13 14 14 14 14 13 13 12
9 10 12 6 12 15 17 24 15 16 15 8 3 7 5 4 13 14 16 17 15 12 12 9 7 4 2 2 4 4 3 5 6 7 7 8 12 16 16 5 10 9 11 13 15 14 13 14 14
9 8 11 10 20 19 24 21 10 8 11 7 9 6 8 8 11 14 17 18 17 12 12 11 10 6 2 0 2 4 4 3 4 4 8 11 15 12 8 16 15 16 4 11 13 14 15 14 13
12 12 11 15 21 22 22 28 10 11 2 10 12 12 9 11 9 16 17 18 17 17 14 13 12 9 4 2 2 4 4 4 3 5 10 13 12 8 5 13 28 11 8 15 11 11 12 13 14
13 16 13 15 21 24 22 28 9 6 9 9 9 17 9 15 15 12 17 19 17 20 18 15 14 11 7 3 3 4 5 5 5 5 9 9 9 11 4 8 12 17 19 16 16 14 13 14 16
17 13 19 21 20 22 23 14 4 10 15 16 13 14 16 18 19 19 16 19 19 21 20 15 15 13 10 6 5 5 6 7 7 8 9 7 8 10 6 10 9 11 14 16 14 14 15 17 19
21 13 25 21 19 25 22 29 10 12 15 18 13 11 10 18 19 21 19 17 18 21 21 16 16 14 12 9 6 6 7 9 10 11 10 9 9 10 9 8 12 17 15 15 12 14 16 19 18
22 15 18 24 24 22 25 22 10 7 16 25 7 10 7 9 9 15 18 18 19 18 17 17 17 17 16 13 10 9 9 10 11 13 13 12 12 12 18 9 14 19 18 14 14 14 16 17 18
18 16 25 20 23 22 25 23 10 8 21 20 13 14 10 8 12 17 18 21 22 21 19 18 17 18 19 17 14 13 11 11 13 15 15 16 16 16 17 12 19 20 18 15 15 15 16 18 18
24 24 21 26 34 33 27 27 18 14 15 15 23 16 18 14 16 18 20 22 23 22 22 21 19 19 19 20 18 16 14 14 15 17 16 18 19 16 15 15 19 19 19 18 15 17 17 20 20
23 31 29 30 33 32 24 31 22 22 25 24 22 19 26 28 26 21 19 19 23 24 25 23 23 22 20 21 21 18 17 15 13 14 16 16 20 20 19 22 22 23 24 19 16 17 18 21 21
22 24 32 34 32 33 34 27 25 29 25 27 24 28 23 15 20 17 19 20 21 25 29 26 26 25 24 23 22 21 20 18 15 15 15 21 22 22 22 23 20 23 27 20 16 18 20 22 21
26 30 30 31 31 29 26 25 27 35 31 31 30 29 29 26 22 23 25 25 21 21 26 25 25 28 28 26 25 23 24 20 22 22 18 19 22 22 22 24 25 23 20 22 18 20 23 23 22
25 22 23 24 25 26 30 25 27 33 33 34 34 35 34 35 30 31 33 29 28 26 25 25 27 27 31 30 28 28 30 28 26 26 21 19 20 22 22 28 29 25 21 22 24 21 19 21 22
22 23 20 19 22 26 25 30 24 33 32 36 36 36 37 36 38 38 39 37 33 31 31 31 31 31 32 33 30 33 33 28 28 24 23 21 20 22 24 26 26 24 25 25 27 29 21 24 23
18 19 24 28 22 26 24 34 24 32 28 30 35 29 39 36 37 37 36 35 35 32 29 35 34 32 31 35 33 27 32 30 29 26 23 23 21 22 25 26 26 27 28 26 25 27 23 29 26
18 17 21 21 20 25 22 27 22 18 29 24 27 22 20 26 26 32 33 35 33 32 29 28 32 35 32 34 33 27 25 28 28 28 24 23 22 23 24 27 27 29 30 29 26 28 28 30 28
23 24 28 27 25 22 24 23 23 19 23 23 26 19 25 24 23 25 25 27 26 23 31 27 21 30 33 35 37 35 32 33 33 29 25 22 21 23 25 27 28 29 32 31 28 28 31 33 29
27 28 29 28 23 20 21 24 26 25 18 22 23 25 28 29 25 19 20 20 24 27 28 28 29 23 32 36 39 37 33 34 30 32 28 25 23 22 25 27 29 30 31 33 31 30 34 29 35
26 24 29 28 25 18 18 23 26 28 31 30 32 34 35 26 30 27 23 27 27 28 26 27 26 24 32 35 34 34 34 29 24 30 28 27 26 25 25 28 29 30 34 34 33 32 36 36 39
28 28 30 27 22 17 17 18 20 21 24 26 32 38 39 34 31 26 31 31 32 33 33 32 24 25 30 36 39 38 36 35 33 32 29 26 24 25 29 29 31 31 31 33 33 36 34 39 45
30 29 25 24 25 20 23 14 20 20 24 26 25 38 40 42 30 28 29 28 14 16 23 26 26 26 30 37 41 35 34 33 26 29 29 29 25 21 23 29 32 31 33 31 34 38 41 41 46
25 28 28 25 17 18 20 19 15 17 23 23 14 19 23 14 10 4 5 9 13 14 25 29 28 26 31 36 34 30 33 30 25 23 23 22 22 23 25 24 30 34 34 32 35 40 37 44 45
23 22 15 17 15 14 22 19 15 16 23 26 10 16 15 12 8 7 8 7 8 11 14 17 21 21 27 32 27 29 31 27 23 23 25 24 21 21 22 24 26 31 32 33 36 36 42 42 48
25 19 15 22 15 16 21 21 19 25 25 22 13 18 16 15 12 10 10 8 4 8 8 15 17 24 16 27 22 28 26 28 23 21 21 24 21 23 26 24 24 26 27 29 31 41 46 48 49
10 15 19 21 23 14 14 17 23 24 19 20 15 22 15 15 19 17 8 7 5 5 4 8 9 21 25 24 26 31 26 26 25 22 25 18 20 21 24 25 28 29 27 29 30 40 45 49 50
13 16 13 13 21 20 17 20 12 19 17 12 16 15 18 18 15 12 8 8 8 5 2 6 8 16 20 23 30 28 25 26 21 22 20 20 20 25 25 21 20 23 27 29 32 34 34 54 53
12 10 16 15 16 14 13 13 16 6 19 17 17 22 20 28 19 9 8 9 7 5 3 3 6 14 14 19 28 25 25 23 20 19 20 21 24 23 20 19 19 20 25 28 31 35 40 47 44
15 14 17 9 20 13 14 17 19 13 6 14 16 23 27 24 22 13 12 11 9 6 3 3 1 7 13 15 22 22 21 22 21 19 18 20 20 17 17 16 17 19 22 24 25 33 42 44 46

GFSSGP_850_spd_123.txt.gz
Wind_Speed
4 4 2 1 3 3 5 10 16 19 9 6 15 13 6 7 6 6 25 15 12 14 15 13 9 7 5 4 4 4 5 6 7 8 7 6 6 7 7 8 8 6 9 11 14 14 13 11 11
7 7 2 4 4 0 6 15 15 15 8 13 13 13 11 1 22 28 22 15 11 16 15 11 9 8 6 4 4 4 5 6 8 8 8 7 9 11 11 12 12 9 7 9 12 13 13 13 12
9 8 3 4 4 7 6 7 13 9 6 5 4 9 5 11 26 24 20 17 18 16 12 11 9 7 6 5 5 4 5 6 8 9 9 9 9 10 8 12 9 16 12 13 9 11 13 14 15
6 6 6 1 9 10 12 21 15 6 2 5 6 5 9 22 24 22 24 16 18 14 13 11 9 6 4 4 4 4 6 6 8 9 10 9 8 4 1 13 18 26 15 12 11 10 13 15 18
8 5 3 5 9 11 16 28 26 11 6 7 4 1 10 13 19 25 23 18 11 16 16 13 12 8 4 3 3 4 5 6 8 8 6 6 7 8 2 8 13 15 12 15 16 13 14 15 17
4 5 2 6 9 16 18 29 26 19 7 7 7 2 5 19 26 26 26 22 12 14 17 16 14 11 7 5 4 4 5 5 7 7 6 7 9 12 7 11 15 6 18 18 17 15 15 15 19
10 4 7 7 10 16 18 27 11 5 4 4 6 8 6 27 25 27 29 26 21 19 16 17 17 14 11 8 6 6 6 6 7 7 8 9 11 12 7 14 18 11 20 21 18 15 13 15 21
21 4 12 9 11 15 22 29 22 10 5 4 8 4 5 24 25 28 29 29 26 24 21 18 18 17 15 11 9 9 8 7 7 8 9 11 13 12 6 16 14 22 18 17 14 12 13 15 20
18 5 13 8 13 16 29 18 27 17 6 10 10 6 19 29 27 24 29 28 27 25 24 21 20 20 18 15 12 12 10 9 8 9 10 12 13 14 10 13 9 17 19 17 14 13 15 17 19
5 6 4 7 12 16 26 19 23 22 13 10 12 18 21 21 22 23 25 26 26 26 24 21 21 22 20 19 16 14 13 11 10 10 11 12 13 13 12 13 10 19 20 16 15 16 18 21 19
16 14 10 20 28 33 28 27 28 15 10 12 13 8 20 18 17 25 25 25 27 26 23 21 21 21 22 22 20 18 16 15 14 13 12 12 14 15 15 16 15 21 22 20 20 18 19 23 23
11 19 20 23 28 27 21 30 25 22 24 34 25 21 19 23 24 25 31 32 32 29 22 21 21 22 22 23 23 21 19 18 17 16 15 14 15 18 17 20 20 24 24 24 20 19 20 23 24
9 8 21 26 29 28 29 25 24 31 35 33 36 30 26 20 20 29 29 32 33 33 28 21 21 22 22 23 23 23 21 20 18 17 16 16 16 18 19 19 21 26 26 25 21 18 21 22 23
15 24 24 29 27 27 18 20 22 35 29 29 33 37 37 30 22 27 29 25 26 37 33 29 25 22 22 24 24 24 23 21 20 18 16 17 18 18 18 19 24 26 25 24 21 19 20 21 22
16 12 15 18 18 16 27 21 20 33 30 29 34 36 41 38 33 26 25 25 29 21 34 36 32 27 25 24 24 25 25 23 22 21 19 19 20 20 17 21 26 27 23 23 21 22 20 20 22
8 7 7 11 10 22 16 24 22 32 31 36 36 35 38 45 41 39 34 29 30 32 30 31 31 32 29 28 26 27 27 26 25 26 24 23 22 22 19 24 29 27 24 22 24 25 25 23 24
5 8 9 21 15 16 14 25 14 30 37 34 36 36 38 41 47 48 42 40 34 35 38 37 38 37 35 32 28 29 29 30 31 30 28 26 25 23 22 26 29 30 28 25 26 28 26 24 24
8 8 13 17 18 13 16 20 15 28 21 33 37 32 34 38 45 52 48 44 42 44 44 43 42 41 39 33 30 29 29 30 32 32 32 29 28 24 24 28 30 33 31 28 28 30 29 25 26
17 18 22 24 23 19 22 23 22 19 24 19 28 29 28 32 23 44 46 49 44 42 45 43 43 44 42 38 34 31 31 32 35 35 28 25 28 27 25 26 30 33 32 30 31 32 30 30 29
17 20 23 25 19 16 19 22 23 16 23 26 26 30 28 29 31 26 19 36 38 39 37 40 36 42 42 39 35 31 29 31 31 33 27 27 29 29 28 27 29 32 32 31 33 33 32 31 34
22 20 18 24 26 23 21 25 21 19 19 27 36 35 33 32 27 28 29 19 27 28 28 27 29 36 39 39 36 34 29 29 31 31 30 30 29 30 28 28 29 32 33 32 35 35 35 37 38
24 17 21 23 22 17 17 18 19 15 18 20 27 34 33 31 33 32 30 29 22 18 22 24 30 33 34 34 38 35 36 36 38 35 36 31 30 28 28 27 28 31 36 36 36 37 36 38 43
15 19 22 22 19 20 22 11 24 11 18 20 22 29 36 38 41 35 36 30 32 29 25 27 30 32 30 32 33 35 35 36 37 33 29 30 32 31 29 29 31 32 37 37 36 38 38 38 43
21 16 19 18 13 16 17 15 22 15 19 18 23 25 34 43 44 40 24 31 31 26 24 29 30 27 29 30 33 35 34 33 32 31 29 30 28 26 29 29 30 31 35 37 39 38 37 38 45
11 10 6 6 7 14 12 16 15 11 13 19 12 15 2 13 19 22 19 18 15 15 22 26 24 24 24 28 30 34 32 34 34 32 29 30 31 29 29 28 29 34 34 34 37 37 37 38 41
22 13 10 7 4 12 13 17 16 14 22 31 23 9 8 33 31 31 29 27 23 19 19 22 23 14 16 20 27 30 28 29 31 28 28 24 25 23 24 25 26 28 34 35 35 36 37 39 42
8 6 14 12 13 10 8 21 17 23 24 18 14 23 20 21 27 26 23 20 18 13 8 10 14 17 14 21 24 22 20 26 28 25 25 23 20 21 21 23 23 23 26 30 35 38 37 42 37
13 11 5 2 4 5 9 16 15 13 17 23 13 11 28 32 25 22 17 14 11 7 5 6 7 8 17 21 21 20 25 26 27 22 25 22 22 22 20 22 24 24 29 31 31 34 37 40 43
10 8 6 5 7 3 5 9 3 8 18 17 20 25 28 29 24 11 8 9 10 6 2 1 2 6 12 14 18 19 25 26 30 25 24 25 23 21 21 23 24 25 29 32 35 35 36 39 41
3 13 6 5 4 7 5 12 4 10 11 13 12 25 29 35 33 26 17 13 9 6 6 3 1 4 9 11 17 22 22 24 25 24 21 21 22 22 23 23 24 25 27 29 32 34 38 39 41

GFSSGP_850_spd_126.txt.gz
Wind_Speed
4 5 4 2 3 4 4 8 4 9 8 6 9 6 9 5 5 5 31 20 24 17 19 17 12 8 7 8 8 8 9 11 13 12 11 11 11 12 12 14 16 15 13 11 11 11 11 11 12
7 7 4 2 4 3 6 5 7 9 13 22 6 8 5 4 18 24 31 27 20 16 18 17 14 9 8 8 8 9 10 12 13 14 12 11 11 11 10 11 12 14 15 16 11 10 10 10 10
8 7 2 3 4 6 6 4 5 11 31 19 7 1 9 12 16 38 33 28 20 19 20 18 14 10 8 6 7 8 9 11 13 13 13 12 10 9 8 11 14 14 12 14 14 10 10 10 11
6 4 4 3 10 8 7 4 10 13 27 29 5 1 5 16 33 26 30 24 24 22 20 18 14 10 7 6 5 7 9 11 12 11 11 10 10 10 11 14 17 14 18 17 17 14 13 13 17
7 3 2 3 8 7 9 15 13 12 11 22 12 4 14 25 24 31 28 27 25 23 20 18 15 11 8 7 6 7 9 11 11 10 10 10 12 13 7 9 16 15 16 23 16 16 15 17 19
3 1 1 4 8 8 10 16 16 13 24 19 6 5 10 28 31 34 29 29 25 22 23 19 17 13 10 8 7 8 9 11 11 10 11 13 14 13 8 9 10 15 16 23 18 18 18 19 20
3 3 4 4 9 11 14 15 11 11 18 19 9 6 5 31 34 35 31 27 27 22 24 22 19 17 14 11 9 8 8 11 11 11 12 14 14 13 10 13 17 11 21 23 19 18 20 19 21
4 3 3 3 8 11 13 20 18 15 20 30 14 6 7 37 39 38 32 27 24 24 23 24 21 20 18 14 11 10 9 9 12 13 12 15 16 13 13 16 16 10 26 22 19 17 18 19 22
7 1 2 5 5 8 25 18 17 24 22 32 21 12 12 37 41 41 37 30 25 23 24 24 23 23 21 18 15 13 12 11 12 15 14 16 18 15 15 16 16 19 24 21 17 19 18 18 21
6 4 6 7 6 14 21 29 24 22 27 32 28 5 17 39 42 44 42 37 32 27 27 26 24 24 24 22 19 15 14 13 13 15 17 16 17 16 14 18 14 22 20 19 18 18 18 19 23
5 8 9 15 25 29 25 27 32 15 16 23 16 24 15 30 38 41 40 37 32 29 28 28 27 26 27 25 23 20 18 16 16 15 16 17 17 19 18 19 17 24 25 23 20 18 20 22 24
6 14 15 15 26 24 11 26 27 20 28 29 33 24 23 21 25 38 38 37 34 33 30 29 28 28 30 27 26 23 22 20 19 18 18 19 19 19 20 20 17 24 28 27 23 21 22 25 24
4 5 16 24 26 25 28 18 16 34 28 15 28 23 24 24 27 27 34 39 38 34 30 30 30 29 29 29 28 26 25 23 21 20 19 19 19 18 20 21 21 23 27 27 25 23 23 25 26
10 18 22 22 27 24 11 20 17 38 37 22 28 36 28 29 28 26 25 38 41 31 29 28 29 29 28 29 28 29 27 26 24 23 22 20 19 18 19 21 23 24 26 26 25 24 21 22 26
15 10 15 16 14 10 13 19 13 38 36 33 27 36 40 34 33 34 30 26 43 37 30 35 34 30 28 26 27 27 28 27 27 26 23 21 20 20 20 20 23 25 26 25 26 22 20 21 22
5 4 6 2 6 10 1 19 21 32 30 32 35 29 41 43 36 37 35 31 27 40 38 35 37 36 32 29 26 26 28 28 28 27 25 24 21 21 21 20 23 26 28 28 26 25 23 21 22
4 6 8 21 2 9 3 16 18 32 29 28 33 37 35 43 45 40 39 38 36 33 33 38 38 39 38 35 33 29 28 28 29 28 27 25 23 22 22 22 23 27 29 28 27 27 25 26 22
10 12 12 16 11 9 21 21 25 31 29 30 30 29 30 31 41 40 42 42 41 41 40 37 38 37 42 41 39 34 28 28 28 29 29 26 25 24 24 24 25 28 30 30 27 26 27 28 25
6 10 18 23 17 13 15 23 24 26 29 27 31 30 37 34 35 42 42 40 47 49 50 46 41 39 47 49 44 38 34 31 31 31 30 29 29 27 27 26 26 31 32 31 28 29 31 31 28
14 17 21 26 19 17 18 24 26 26 27 36 33 31 34 34 37 37 27 39 41 43 45 47 46 45 48 51 47 43 37 32 31 32 31 32 31 30 30 29 29 34 34 34 33 33 36 34 34
14 13 16 19 25 23 21 27 21 22 25 36 39 40 39 35 36 41 37 34 27 32 47 48 48 49 51 52 53 46 39 34 32 33 32 32 31 31 31 32 32 34 36 37 36 36 39 40 38
19 9 14 21 18 16 11 24 27 24 25 24 33 35 33 32 33 39 42 40 32 26 36 49 56 47 49 54 53 48 43 39 36 35 35 29 32 31 32 32 32 32 33 37 34 35 40 42 41
13 15 20 19 20 19 29 13 25 15 22 22 20 34 33 38 32 32 37 36 30 24 21 30 35 40 44 50 50 46 42 37 36 36 32 30 31 32 31 31 30 31 33 34 34 34 38 42 42
16 11 23 23 10 9 30 16 22 19 20 19 19 31 29 31 32 31 29 31 37 31 26 25 25 33 39 44 47 43 41 38 37 33 31 31 31 33 32 32 32 32 31 34 35 36 36 40 43
10 14 6 5 1 12 14 15 21 15 13 19 19 23 28 30 34 35 30 37 35 34 25 31 34 37 42 45 41 36 35 37 33 29 27 27 31 33 34 34 34 34 32 33 34 37 39 38 42
14 4 5 7 9 18 18 10 10 10 10 20 26 30 21 10 6 17 25 26 28 25 25 28 30 29 31 35 33 35 35 30 28 28 26 26 28 30 29 29 32 33 32 33 32 36 36 37 40
3 4 14 10 11 9 4 8 11 8 13 11 11 22 11 23 32 33 33 29 27 26 22 20 19 18 23 28 33 33 29 27 27 28 27 25 24 22 25 27 29 29 29 32 34 34 37 40 42
4 9 7 6 7 6 5 7 5 13 14 15 21 13 14 17 32 33 28 25 20 17 15 10 10 12 14 19 23 22 23 25 22 27 26 26 24 22 21 23 23 20 21 23 28 33 35 40 41
7 5 4 7 6 7 6 4 18 22 18 19 22 9 30 7 27 30 28 23 20 14 14 9 7 5 9 14 15 16 22 22 22 24 25 24 24 22 21 21 21 23 26 25 26 32 34 38 40
1 11 10 4 9 5 5 5 10 12 16 19 23 28 19 24 29 31 27 21 23 18 14 10 9 8 4 7 8 12 11 17 21 25 24 23 24 22 19 21 22 21 25 26 28 30 33 37 38

GFSSGP_850_spd_129.txt.gz
Wind_Speed
3 3 2 1 3 5 5 6 3 6 5 6 32 6 4 2 4 5 23 27 29 26 25 21 18 16 13 12 11 11 12 13 14 14 15 14 13 13 12 13 15 14 15 15 15 13 12 12 12
3 4 1 1 4 3 6 3 5 5 9 29 21 7 3 1 5 15 27 28 27 25 23 21 18 16 14 12 11 10 11 12 14 14 14 14 13 12 11 11 13 15 17 18 16 14 13 13 12
5 4 2 3 3 6 5 4 4 13 27 25 10 14 4 6 10 39 27 31 29 24 22 21 20 17 13 11 11 10 11 12 13 13 13 13 12 12 12 12 13 13 12 15 15 13 14 14 13
5 3 3 3 5 6 6 6 9 18 30 18 29 11 6 14 22 27 34 30 28 24 23 22 20 17 13 11 10 10 10 11 12 13 13 12 12 12 12 13 14 15 15 16 18 16 15 15 15
5 2 1 1 5 5 7 7 17 14 14 20 35 9 6 14 27 29 34 30 28 27 26 23 20 16 13 10 9 9 10 10 11 12 13 13 13 12 10 13 16 14 13 15 18 18 15 16 16
2 2 2 3 4 4 7 11 12 11 20 26 25 28 5 9 26 35 32 31 29 30 28 24 20 17 13 10 9 8 9 10 11 11 13 13 14 14 10 14 16 11 14 16 16 19 18 17 18
5 4 4 3 4 4 5 10 10 9 15 12 30 7 14 20 23 36 35 34 32 32 29 26 23 19 15 11 9 8 10 11 12 12 13 14 14 13 10 12 15 18 18 17 15 20 20 19 18
3 3 2 4 5 6 4 13 14 14 16 27 29 6 23 29 29 41 37 36 35 33 30 28 25 22 18 15 12 10 10 12 14 14 14 15 14 14 11 15 17 17 19 17 15 18 20 19 18
3 2 2 5 2 4 16 7 20 27 26 23 11 28 31 32 34 42 39 38 36 34 31 29 27 23 20 17 15 14 11 13 15 15 14 16 17 15 14 15 16 14 22 22 18 18 18 18 18
4 3 7 6 4 7 9 20 29 15 26 25 21 29 30 22 22 28 41 42 40 37 34 30 28 26 24 21 19 17 15 15 16 16 16 16 18 16 15 16 16 14 22 21 19 19 18 18 20
1 6 4 8 19 22 13 18 28 15 18 14 25 28 25 20 11 19 24 39 38 38 34 33 30 27 26 26 23 22 19 18 17 17 16 16 18 19 18 19 19 20 23 22 20 20 20 20 21
4 7 5 7 12 19 8 17 17 27 20 18 24 25 21 17 12 17 27 33 31 35 32 33 31 29 28 28 27 25 24 22 20 19 19 19 18 20 19 22 18 24 24 23 21 22 21 21 22
4 4 17 16 24 23 22 16 21 28 39 34 20 24 28 26 21 18 19 35 33 32 36 35 33 32 31 32 31 29 27 25 23 22 22 22 20 18 20 23 21 21 26 26 24 23 22 22 23
9 15 22 21 26 19 10 15 13 23 32 40 26 25 31 31 32 27 23 24 31 40 38 37 35 32 31 33 33 32 30 28 26 24 24 24 22 19 18 22 23 21 25 27 25 23 22 22 23
10 7 7 3 7 7 18 15 6 21 26 35 40 27 27 33 32 35 34 30 28 31 41 45 41 37 34 33 34 34 32 31 29 28 26 25 24 22 18 19 23 22 22 27 26 24 22 21 21
7 4 6 8 11 9 14 15 19 26 28 36 43 43 32 31 38 34 36 37 35 30 32 48 46 42 36 34 34 33 32 33 32 31 28 27 26 25 23 19 20 22 23 26 26 25 24 21 21
7 5 14 10 16 9 5 25 25 33 27 32 33 40 41 38 39 38 34 34 35 35 32 34 51 46 41 36 35 34 33 34 33 32 31 29 28 26 26 23 19 21 23 26 27 27 25 22 22
6 7 6 14 8 10 11 22 25 31 26 34 37 40 41 39 44 41 33 29 34 36 34 33 37 48 45 43 39 37 36 34 33 33 33 31 29 27 27 26 22 21 24 28 29 29 27 23 23
5 6 14 18 11 15 15 23 26 27 29 32 41 41 43 43 49 47 44 38 27 33 36 37 40 42 48 49 47 44 41 37 34 33 34 32 31 29 28 27 26 24 25 28 30 30 29 26 27
5 12 16 21 9 14 18 32 30 25 25 31 35 40 35 40 44 43 46 44 36 29 31 37 39 44 47 52 50 50 45 41 36 34 34 31 32 31 29 28 29 28 28 29 31 32 31 29 30
4 7 12 13 26 25 20 24 25 31 30 38 40 41 46 42 42 44 48 48 43 42 32 27 29 44 51 50 51 53 48 42 35 34 34 34 34 31 31 31 30 30 30 32 32 33 33 32 33
10 6 11 19 17 13 18 17 30 29 25 25 33 37 40 40 37 41 44 46 41 42 37 32 32 38 47 54 56 54 53 49 46 41 38 36 34 32 30 30 33 32 32 32 31 32 33 35 37
9 9 13 23 19 16 32 4 13 20 27 27 25 33 31 37 33 39 43 44 35 32 23 28 31 38 46 53 54 52 52 52 48 43 39 37 34 34 32 32 34 34 35 34 33 35 36 39 38
8 11 22 8 1 4 11 5 19 22 18 22 21 26 33 34 32 37 36 36 28 25 35 31 31 33 46 50 50 51 52 52 47 42 40 38 36 34 31 33 35 36 34 35 35 33 36 37 38
9 12 5 5 3 9 13 15 12 23 23 22 21 24 31 33 33 27 29 32 35 36 35 43 29 29 39 44 47 48 47 48 47 43 38 35 35 37 36 32 34 35 34 33 31 33 33 36 38
4 3 2 6 9 18 20 5 9 17 22 29 25 26 14 10 8 10 19 24 35 33 34 34 24 27 34 36 40 43 45 39 36 36 34 28 30 32 28 31 32 33 34 34 33 31 32 33 37
3 1 8 7 13 9 5 8 9 14 22 27 30 38 6 14 15 14 15 18 24 23 25 24 21 28 29 28 30 31 31 31 30 29 29 25 21 25 24 28 32 32 34 34 33 32 32 32 34
4 4 5 4 6 9 7 12 9 19 18 22 26 30 23 19 18 18 23 28 31 31 28 25 22 24 28 32 32 31 29 28 26 27 26 25 23 23 23 24 27 28 29 31 32 32 33 32 33
4 3 3 5 4 5 8 10 8 13 14 15 16 37 27 23 18 13 20 28 28 25 23 21 17 18 17 17 22 25 24 26 27 26 26 26 24 24 25 22 22 25 24 21 25 25 27 30 34
4 7 9 4 8 10 8 14 10 17 14 13 17 26 30 25 17 12 21 28 28 28 22 20 16 11 9 10 10 11 13 17 18 23 23 25 24 23 24 22 21 21 21 22 25 27 27 29 32

GFSSGP_850_spd_132.txt.gz
Wind_Speed
2 2 4 4 4 5 4 5 2 5 4 15 30 7 7 4 6 5 6 28 23 25 25 26 24 22 20 19 17 16 15 14 14 14 13 14 15 14 13 12 12 14 15 15 14 14 14 14 14
3 6 5 4 5 3 5 4 5 3 21 28 18 29 6 7 12 6 20 28 25 24 25 25 23 20 18 17 16 16 14 14 13 13 13 13 13 13 12 12 13 14 17 17 16 15 15 15 14
5 6 3 4 4 5 5 3 5 11 19 14 14 14 9 8 7 15 28 28 29 27 25 23 20 18 18 18 16 14 13 13 12 12 12 12 12 12 11 12 14 15 15 16 15 14 14 14 14
4 4 6 4 5 6 6 5 5 13 6 12 20 6 26 21 14 21 27 28 28 27 25 23 21 20 19 17 14 13 12 12 11 11 12 12 12 12 12 14 15 16 17 16 16 16 16 14 14
5 4 4 2 4 5 6 5 9 4 10 17 13 12 34 34 15 19 27 30 28 29 26 24 23 22 19 17 13 12 11 11 11 11 12 13 13 13 13 14 14 15 15 16 16 16 16 15 15
4 4 4 3 5 5 6 7 6 6 11 22 10 19 14 33 22 13 28 31 30 27 27 26 25 22 20 17 14 12 11 11 12 12 12 13 13 13 12 13 14 13 12 13 16 18 17 17 17
6 4 3 4 4 5 4 6 6 5 8 7 17 9 11 33 33 18 32 34 32 30 29 29 27 23 20 17 14 12 11 11 12 12 12 13 13 14 13 15 17 15 12 14 17 19 18 18 18
4 4 3 4 3 6 6 9 17 10 13 17 8 4 16 33 32 16 30 34 33 32 31 30 28 25 22 19 16 13 11 10 11 12 13 14 14 15 13 15 17 14 16 15 17 18 20 20 18
5 4 2 4 4 4 15 6 19 17 13 15 16 17 23 26 26 18 27 33 33 34 34 32 29 26 24 21 19 16 13 12 12 13 14 15 15 16 13 15 15 18 16 16 17 19 20 19 17
4 4 7 5 3 4 8 19 25 7 14 17 22 26 19 25 23 19 28 37 34 33 34 35 32 29 27 25 22 19 17 14 13 14 15 16 16 16 14 17 17 17 18 17 18 19 19 17 18
2 4 4 4 7 6 8 15 17 10 0 19 28 29 33 23 18 16 24 34 35 34 34 36 33 31 29 28 25 23 20 17 16 15 15 16 17 18 16 18 17 14 21 24 21 21 20 19 18
2 3 1 6 9 17 6 12 10 16 20 28 27 27 27 21 20 21 17 31 34 34 35 37 35 33 31 29 28 25 23 21 19 18 17 18 18 20 18 20 17 17 23 24 23 22 20 18 17
3 3 10 15 22 20 18 10 10 22 22 25 27 24 24 27 29 25 25 21 30 37 36 38 36 35 34 33 30 29 27 25 22 21 20 19 18 19 20 20 20 20 24 23 22 21 20 19 19
3 6 13 7 15 11 12 12 7 6 25 31 31 32 32 29 27 30 30 30 25 25 33 37 37 37 36 35 33 31 29 28 26 24 23 22 21 18 19 21 23 21 25 24 23 20 20 19 19
5 4 5 8 16 6 29 3 7 23 25 33 39 38 36 35 32 31 30 33 31 28 29 31 35 37 40 38 37 34 32 30 29 28 26 26 24 21 18 19 23 23 21 26 25 22 20 20 18
5 5 6 7 12 8 15 11 5 19 38 39 33 39 42 48 47 44 35 31 31 34 34 34 35 37 42 43 40 38 37 34 33 31 30 28 27 25 22 20 22 23 22 21 24 24 21 21 19
7 4 5 6 14 7 5 26 19 32 28 37 38 39 39 51 52 50 44 36 31 33 33 37 39 40 39 46 44 40 39 37 35 34 33 31 30 28 27 22 20 23 23 22 24 26 24 23 21
5 5 5 8 5 5 9 25 23 41 25 31 43 45 43 44 57 50 49 47 38 32 31 32 43 40 38 44 47 43 40 39 38 37 36 34 32 31 30 28 23 23 24 24 25 27 26 24 22
4 4 11 10 9 7 8 22 25 32 33 30 36 43 47 46 57 52 46 44 44 37 31 38 38 40 42 43 50 47 44 41 40 38 37 35 34 33 33 31 28 25 26 25 26 28 28 27 24
6 8 9 11 1 12 14 27 22 18 15 28 33 36 42 46 49 50 42 38 39 41 33 33 35 37 41 44 43 50 46 45 42 40 38 37 35 34 34 33 32 30 27 27 28 31 31 29 27
4 5 5 12 21 10 9 12 11 26 20 30 36 37 39 44 46 49 49 42 41 42 35 33 33 33 40 41 44 48 47 45 44 42 39 38 36 36 36 34 33 32 30 29 29 31 33 32 31
4 3 8 12 9 6 10 8 11 14 20 21 35 47 42 39 44 43 45 45 41 39 33 32 29 34 31 40 47 50 52 52 51 48 45 38 36 36 36 35 34 33 32 32 31 31 33 33 32
7 7 11 16 12 2 1 1 10 20 18 16 24 56 50 44 42 43 42 45 42 37 37 31 27 26 27 37 42 52 55 51 50 52 47 42 38 35 35 34 34 32 34 34 32 32 33 34 32
8 6 9 1 2 2 4 2 18 7 10 19 21 41 52 41 35 36 39 42 43 34 37 30 23 16 13 30 36 50 56 53 52 49 49 46 42 35 34 34 33 33 33 35 32 30 30 30 32
7 6 4 5 4 4 4 11 9 15 15 19 21 34 48 45 26 19 24 32 30 22 24 25 26 27 25 20 35 47 49 51 52 54 52 49 42 37 36 36 37 34 33 35 33 35 34 34 34
3 1 3 3 4 11 16 5 6 15 19 30 27 35 51 40 25 22 19 15 3 13 22 25 22 33 28 24 36 45 44 45 48 51 49 50 43 36 36 36 37 32 31 34 34 34 33 34 33
2 1 5 3 9 5 5 7 12 19 23 23 25 31 34 35 31 34 32 21 14 7 8 20 25 14 21 24 32 37 36 41 46 44 41 43 36 27 27 33 33 31 30 31 32 33 33 31 31
3 2 4 2 4 6 3 8 5 22 25 27 24 25 31 37 37 36 37 30 24 16 17 14 21 13 18 14 25 29 27 28 27 32 32 34 28 22 20 25 31 30 29 30 32 33 32 32 30
2 2 2 2 2 3 6 7 6 18 22 25 23 27 28 35 38 32 34 31 27 27 22 28 19 9 16 19 21 17 17 15 18 23 29 29 26 24 25 28 29 26 27 27 28 31 30 31 29
4 4 3 1 3 5 5 7 12 26 23 27 24 26 29 32 40 38 30 33 30 31 32 31 27 16 8 14 20 22 17 12 17 28 26 30 27 26 27 27 27 25 23 25 26 25 28 26 25